[[{"header":{"parameterUnit":"m.s-1","parameterCategory":1,"la1":30.6,"la2":28.766,"lo1":-90.7593,"lo2":-88.6598,"dx":0.0162,"dy":0.0183,"nx":116,"ny":114,"refTime":"2022-11-13T06:00:00:Z","depth":0,"parameterNumber":2,"parameterNumberName":"U-component_of_WINDS"},"data":[0.0,0.0,0.0,0.0,0.0,0.0,0.0,0.0,0.0,0.0,0.0,0.0,0.0,0.0,0.0,0.0,0.0,0.0,0.0,0.0,0.0,0.0,0.0,0.0,0.0,0.0,0.0,0.0,0.0,0.0,0.0,0.0,0.0,0.0,0.0,0.0,0.0,0.0,0.0,0.0,0.0,0.0,0.0,0.0,0.0,0.0,0.0,0.0,0.0,0.0,0.0,0.0,0.0,0.0,0.0,0.0,0.0,0.0,0.0,0.0,0.0,0.0,0.0,0.0,0.0,0.0,0.0,0.0,0.0,0.0,0.0,0.0,0.0,0.0,0.0,0.0,0.0,0.0,0.0,0.0,0.0,0.0,0.0,0.0,0.0,0.0,0.0,0.0,0.0,0.0,0.0,0.0,0.0,0.0,0.0,0.0,0.0,0.0,0.0,0.0,0.0,0.0,0.0,0.0,0.0,0.0,0.0,0.0,0.0,0.0,0.0,0.0,0.0,0.0,0.0,0.0,0.0,0.0,0.0,0.0,0.0,0.0,0.0,0.0,0.0,0.0,0.0,0.0,0.0,0.0,0.0,0.0,0.0,0.0,0.0,0.0,0.0,0.0,0.0,0.0,0.0,0.0,0.0,0.0,0.0,0.0,0.0,0.0,0.0,0.0,0.0,0.0,0.0,0.0,0.0,0.0,0.0,0.0,0.0,0.0,0.0,0.0,0.0,0.0,0.0,0.0,0.0,0.0,0.0,0.0,0.0,0.0,0.0,0.0,0.0,0.0,0.0,0.0,0.0,0.0,0.0,0.0,0.0,0.0,0.0,0.0,0.0,0.0,0.0,0.0,0.0,0.0,0.0,0.0,0.0,0.0,0.0,0.0,0.0,0.0,0.0,0.0,0.0,0.0,0.0,0.0,0.0,0.0,0.0,0.0,0.0,0.0,0.0,0.0,0.0,0.0,0.0,0.0,0.0,0.0,0.0,0.0,0.0,0.0,0.0,0.0,0.0,0.0,0.0,0.0,0.0,0.0,0.0,0.0,0.0,0.0,0.0,0.0,0.0,0.0,0.0,0.0,0.0,0.0,0.0,0.0,0.0,0.0,0.0,0.0,0.0,0.0,0.0,0.0,0.0,0.0,0.0,0.0,0.0,0.0,0.0,0.0,0.0,0.0,0.0,0.0,0.0,0.0,0.0,0.0,0.0,0.0,0.0,0.0,0.0,0.0,0.0,0.0,0.0,0.0,0.0,0.0,0.0,0.0,0.0,0.0,0.0,0.0,0.0,0.0,0.0,0.0,0.0,0.0,0.0,0.0,0.0,0.0,0.0,0.0,0.0,0.0,0.0,0.0,0.0,0.0,0.0,0.0,0.0,0.0,0.0,0.0,0.0,0.0,0.0,0.0,0.0,0.0,0.0,0.0,0.0,0.0,0.0,0.0,0.0,0.0,0.0,0.0,0.0,0.0,0.0,0.0,0.0,0.0,0.0,0.0,0.0,0.0,0.0,0.0,0.0,0.0,0.0,0.0,0.0,0.0,0.0,0.0,0.0,0.0,0.0,0.0,0.0,0.0,0.0,0.0,0.0,0.0,0.0,0.0,0.0,0.0,0.0,0.0,0.0,0.0,0.0,0.0,0.0,0.0,0.0,0.0,0.0,0.0,0.0,0.0,0.0,0.0,0.0,0.0,0.0,0.0,0.0,0.0,0.0,0.0,0.0,0.0,0.0,0.0,0.0,0.0,0.0,0.0,0.0,0.0,0.0,0.0,0.0,0.0,0.0,0.0,0.0,0.0,0.0,0.0,0.0,0.0,0.0,0.0,0.0,0.0,0.0,0.0,0.0,0.0,0.0,0.0,0.0,0.0,0.0,0.0,0.0,0.0,0.0,0.0,0.0,0.0,0.0,0.0,0.0,0.0,0.0,0.0,0.0,0.0,0.0,0.0,0.0,0.0,0.0,0.0,0.0,0.0,0.0,0.0,0.0,0.0,0.0,0.0,0.0,0.0,0.0,0.0,0.0,0.0,0.0,0.0,0.0,0.0,0.0,0.0,0.0,0.0,0.0,0.0,0.0,0.0,0.0,0.0,0.0,0.0,0.0,0.0,0.0,0.0,0.0,0.0,0.0,0.0,0.0,0.0,0.0,0.0,0.0,0.0,0.0,0.0,0.0,0.0,0.0,0.0,0.0,0.0,0.0,0.0,0.0,0.0,0.0,0.0,0.0,0.0,0.0,0.0,0.0,0.0,0.0,0.0,0.0,0.0,0.0,0.0,0.0,0.0,0.0,0.0,0.0,0.0,0.0,0.0,0.0,0.0,0.0,0.0,0.0,0.0,0.0,0.0,0.0,0.0,0.0,0.0,0.0,0.0,0.0,0.0,0.0,0.0,0.0,0.0,0.0,0.0,0.0,0.0,0.0,0.0,0.0,0.0,0.0,0.0,0.0,0.0,0.0,0.0,0.0,0.0,0.0,0.0,0.0,0.0,0.0,0.0,0.0,0.0,0.0,0.0,0.0,0.0,0.0,0.0,0.0,0.0,0.0,0.0,0.0,0.0,0.0,0.0,0.0,0.0,0.0,0.0,0.0,0.0,0.0,0.0,0.0,0.0,0.0,0.0,0.0,0.0,0.0,0.0,0.0,0.0,0.0,0.0,0.0,0.0,0.0,0.0,0.0,0.0,0.0,0.0,0.0,0.0,0.0,0.0,0.0,0.0,0.0,0.0,0.0,0.0,0.0,0.0,0.0,0.0,0.0,0.0,0.0,0.0,0.0,0.0,0.0,0.0,0.0,0.0,0.0,0.0,0.0,0.0,0.0,0.0,0.0,0.0,0.0,0.0,0.0,0.0,0.0,0.0,0.0,0.0,0.0,0.0,0.0,0.0,0.0,0.0,0.0,0.0,0.0,0.0,0.0,0.0,0.0,0.0,0.0,0.0,0.0,0.0,0.0,0.0,0.0,0.0,0.0,0.0,0.0,0.0,0.0,0.0,0.0,0.0,0.0,0.0,0.0,0.0,0.0,0.0,0.0,0.0,0.0,0.0,0.0,0.0,0.0,0.0,0.0,0.0,0.0,0.0,0.0,0.0,0.0,0.0,0.0,0.0,0.0,0.0,0.0,0.0,0.0,0.0,0.0,0.0,0.0,0.0,0.0,0.0,0.0,0.0,0.0,0.0,0.0,0.0,0.0,0.0,0.0,0.0,0.0,0.0,0.0,0.0,0.0,0.0,0.0,0.0,0.0,0.0,0.0,0.0,0.0,0.0,0.0,0.0,0.0,0.0,0.0,0.0,0.0,0.0,0.0,0.0,0.0,0.0,0.0,0.0,0.0,0.0,0.0,0.0,0.0,0.0,0.0,0.0,0.0,0.0,0.0,0.0,0.0,0.0,0.0,0.0,0.0,0.0,0.0,0.0,0.0,0.0,0.0,0.0,0.0,0.0,0.0,0.0,0.0,0.0,0.0,0.0,0.0,0.0,0.0,0.0,0.0,0.0,0.0,0.0,0.0,0.0,0.0,0.0,0.0,0.0,0.0,0.0,0.0,0.0,0.0,0.0,0.0,0.0,0.0,0.0,0.0,0.0,0.0,0.0,0.0,0.0,0.0,0.0,0.0,0.0,0.0,0.0,0.0,0.0,0.0,0.0,0.0,0.0,0.0,0.0,0.0,0.0,0.0,0.0,0.0,0.0,0.0,0.0,0.0,0.0,0.0,0.0,0.0,0.0,0.0,0.0,0.0,0.0,0.0,0.0,0.0,0.0,0.0,0.0,0.0,0.0,0.0,0.0,0.0,0.0,0.0,0.0,0.0,0.0,0.0,0.0,0.0,0.0,0.0,0.0,0.0,0.0,0.0,0.0,0.0,0.0,0.0,0.0,0.0,0.0,0.0,0.0,0.0,0.0,0.0,0.0,0.0,0.0,0.0,0.0,0.0,0.0,0.0,0.0,0.0,0.0,0.0,0.0,0.0,0.0,0.0,0.0,0.0,0.0,0.0,0.0,0.0,0.0,0.0,0.0,0.0,0.0,0.0,0.0,0.0,0.0,0.0,0.0,0.0,0.0,0.0,0.0,0.0,0.0,0.0,0.0,0.0,0.0,0.0,0.0,0.0,0.0,0.0,0.0,0.0,0.0,0.0,0.0,0.0,0.0,0.0,0.0,0.0,0.0,0.0,0.0,0.0,0.0,0.0,0.0,0.0,0.0,0.0,0.0,0.0,0.0,0.0,0.0,0.0,0.0,0.0,0.0,0.0,0.0,0.0,0.0,0.0,0.0,0.0,0.0,0.0,0.0,0.0,0.0,0.0,0.0,0.0,0.0,0.0,0.0,0.0,0.0,0.0,0.0,0.0,0.0,0.0,0.0,0.0,0.0,0.0,0.0,0.0,0.0,0.0,0.0,0.0,0.0,0.0,0.0,0.0,0.0,0.0,0.0,0.0,0.0,0.0,0.0,0.0,0.0,0.0,0.0,0.0,0.0,0.0,0.0,0.0,0.0,0.0,0.0,0.0,0.0,0.0,0.0,0.0,0.0,0.0,0.0,0.0,0.0,0.0,0.0,0.0,0.0,0.0,0.0,0.0,0.0,0.0,0.0,0.0,0.0,0.0,0.0,0.0,0.0,0.0,0.0,0.0,0.0,0.0,0.0,0.0,0.0,0.0,0.0,0.0,0.0,0.0,0.0,0.0,0.0,0.0,0.0,0.0,0.0,0.0,0.0,0.0,0.0,0.0,0.0,0.0,0.0,0.0,0.0,0.0,0.0,0.0,0.0,0.0,0.0,0.0,0.0,0.0,0.0,0.0,0.0,0.0,0.0,0.0,0.0,0.0,0.0,0.0,0.0,0.0,0.0,0.0,0.0,0.0,0.0,0.0,0.0,0.0,0.0,0.0,0.0,0.0,0.0,0.0,0.0,0.0,0.0,0.0,0.0,0.0,0.0,0.0,0.0,0.0,0.0,0.0,0.0,0.0,0.0,0.0,0.0,0.0,0.0,0.0,0.0,0.0,0.0,0.0,0.0,0.0,0.0,0.0,0.0,0.0,0.0,0.0,0.0,0.0,0.0,0.0,0.0,0.0,0.0,0.0,0.0,0.0,0.0,0.0,0.0,0.0,0.0,0.0,0.0,0.0,0.0,0.0,0.0,0.0,0.0,0.0,0.0,0.0,0.0,0.0,0.0,0.0,0.0,0.0,0.0,0.0,0.0,0.0,0.0,0.0,0.0,0.0,0.0,0.0,0.0,0.0,0.0,0.0,0.0,0.0,0.0,0.0,0.0,0.0,0.0,0.0,0.0,0.0,0.0,0.0,0.0,0.0,0.0,0.0,0.0,0.0,0.0,0.0,0.0,0.0,0.0,0.0,0.0,0.0,0.0,0.0,0.0,0.0,0.0,0.0,0.0,0.0,0.0,0.0,0.0,0.0,0.0,0.0,0.0,0.0,0.0,0.0,0.0,0.0,0.0,0.0,0.0,0.0,0.0,0.0,0.0,0.0,0.0,0.0,0.0,0.0,0.0,0.0,0.0,0.0,0.0,0.0,0.0,0.0,0.0,0.0,0.0,0.0,0.0,0.0,0.0,0.0,0.0,0.0,0.0,0.0,0.0,0.0,0.0,0.0,0.0,0.0,0.0,0.0,0.0,0.0,0.0,0.0,0.0,0.0,0.0,0.0,0.0,0.0,0.0,0.0,0.0,0.0,0.0,0.0,0.0,0.0,0.0,0.0,0.0,0.0,0.0,0.0,0.0,0.0,0.0,0.0,0.0,0.0,0.0,0.0,0.0,0.0,0.0,0.0,0.0,0.0,0.0,0.0,0.0,0.0,0.0,0.0,0.0,0.0,0.0,0.0,0.0,0.0,0.0,0.0,0.0,0.0,0.0,0.0,0.0,0.0,0.0,0.0,0.0,0.0,0.0,0.0,0.0,0.0,0.0,0.0,0.0,0.0,0.0,0.0,0.0,0.0,0.0,0.0,0.0,0.0,0.0,0.0,0.0,0.0,0.0,0.0,0.0,0.0,0.0,0.0,0.0,0.0,0.0,0.0,0.0,0.0,0.0,0.0,0.0,0.0,0.0,0.0,0.0,0.0,0.0,0.0,0.0,0.0,0.0,0.0,0.0,5.4803,4.8514,0.0,0.0,0.0,0.0,0.0,0.0,0.0,0.0,0.0,0.0,0.0,0.0,0.0,0.0,0.0,0.0,0.0,0.0,0.0,0.0,0.0,0.0,0.0,2.6436,2.6715,2.6715,2.7063,0.0,0.0,0.0,0.0,0.0,0.0,0.0,2.6704,2.752,2.876,3.0451,3.2236,3.5507,4.0096,3.8346,3.6434,3.4406,0.0,0.0,0.0,0.0,0.0,0.0,0.0,0.0,0.0,0.0,0.0,0.0,0.0,0.0,0.0,0.0,0.0,0.0,0.0,0.0,0.0,0.0,0.0,0.0,0.0,0.0,0.0,0.0,0.0,0.0,0.0,0.0,0.0,0.0,0.0,0.0,0.0,0.0,0.0,0.0,0.0,0.0,0.0,0.0,0.0,0.0,0.0,0.0,0.0,0.0,0.0,0.0,0.0,0.0,0.0,0.0,0.0,0.0,0.0,0.0,0.0,0.0,0.0,0.0,0.0,0.0,0.0,0.0,0.0,0.0,5.8954,5.5921,0.0,0.0,0.0,0.0,0.0,0.0,0.0,0.0,0.0,0.0,0.0,0.0,0.0,0.0,0.0,0.0,0.0,0.0,0.0,0.0,0.0,2.6862,2.7326,2.8031,2.8628,2.9101,2.8977,2.8883,2.8907,2.8743,0.0,0.0,0.0,0.0,2.8232,2.9386,3.1615,3.4986,3.8222,4.2632,4.8008,4.8242,4.6016,4.1758,3.9101,0.0,0.0,0.0,0.0,0.0,0.0,0.0,0.0,0.0,0.0,0.0,0.0,0.0,0.0,0.0,0.0,0.0,0.0,0.0,0.0,0.0,0.0,0.0,0.0,0.0,0.0,0.0,0.0,0.0,0.0,0.0,0.0,0.0,0.0,0.0,0.0,0.0,0.0,0.0,0.0,0.0,0.0,0.0,0.0,0.0,0.0,0.0,0.0,0.0,0.0,0.0,0.0,0.0,0.0,0.0,0.0,0.0,0.0,0.0,0.0,0.0,0.0,0.0,6.3245,6.3787,6.3787,6.3903,6.518,6.6998,6.3323,6.4213,6.7617,5.7985,0.0,0.0,0.0,0.0,0.0,0.0,0.0,0.0,0.0,0.0,0.0,0.0,0.0,0.0,0.0,0.0,0.0,0.0,0.0,2.7558,2.9824,3.0181,3.1158,3.3364,3.286,3.2416,3.2416,3.17,0.0,0.0,0.0,2.994,2.9216,3.1516,3.4052,3.6831,4.6093,5.2225,5.5234,5.6015,5.6015,5.5078,4.8828,4.5508,4.4336,0.0,0.0,0.0,0.0,0.0,0.0,0.0,0.0,0.0,0.0,0.0,0.0,0.0,0.0,0.0,0.0,0.0,0.0,0.0,0.0,0.0,0.0,0.0,0.0,0.0,0.0,0.0,0.0,0.0,0.0,0.0,0.0,0.0,0.0,0.0,0.0,0.0,0.0,0.0,0.0,0.0,5.4108,5.6001,0.0,0.0,0.0,0.0,0.0,0.0,0.0,0.0,0.0,0.0,0.0,0.0,0.0,6.1311,6.4135,6.6456,6.8738,7.0943,7.3264,7.4386,7.4425,7.516,7.5701,7.5933,7.4618,0.0,6.6533,6.6456,0.0,0.0,0.0,0.0,0.0,0.0,0.0,0.0,0.0,0.0,0.0,0.0,0.0,0.0,0.0,0.0,0.0,0.0,0.0,0.0,0.0,3.4476,3.6488,3.8612,3.8938,3.8152,3.6211,3.5272,0.0,0.0,3.1187,3.1661,3.229,3.6267,4.1515,4.8035,5.5073,5.9336,6.0937,6.1328,6.1758,6.207,5.8555,5.4062,4.9023,4.668,0.0,0.0,0.0,0.0,0.0,0.0,0.0,0.0,0.0,0.0,0.0,0.0,0.0,0.0,0.0,0.0,0.0,0.0,0.0,0.0,0.0,0.0,0.0,0.0,0.0,0.0,0.0,0.0,0.0,0.0,0.0,0.0,0.0,0.0,0.0,0.0,0.0,0.0,0.0,5.1851,5.5241,5.6985,5.5498,5.3181,0.0,0.0,0.0,0.0,0.0,0.0,0.0,0.0,0.0,6.6185,6.7114,6.9048,7.2104,7.3728,7.5082,7.6204,7.779,7.8293,7.7906,7.9221,7.9569,7.9105,7.9221,7.7558,7.4541,7.0982,6.8042,6.5373,0.0,0.0,0.0,0.0,5.992,6.0558,0.0,0.0,0.0,0.0,0.0,0.0,0.0,0.0,0.0,0.0,0.0,0.0,3.6115,3.9301,4.2008,4.4006,4.4414,4.3481,4.0882,3.8875,3.654,3.3757,3.3011,3.3595,3.556,4.1978,4.9531,5.8164,6.207,6.4453,6.5312,6.5312,6.5625,6.6211,6.5351,6.1015,5.4297,5.3047,4.9414,4.4258,0.0,0.0,0.0,0.0,0.0,0.0,0.0,0.0,0.0,0.0,0.0,0.0,0.0,0.0,0.0,0.0,0.0,0.0,0.0,0.0,0.0,0.0,0.0,0.0,0.0,0.0,0.0,0.0,0.0,0.0,0.0,0.0,0.0,0.0,0.0,0.0,0.0,5.5083,5.752,5.9264,5.9167,5.7446,0.0,0.0,0.0,0.0,0.0,0.0,6.5758,6.6165,6.8429,7.3109,7.3922,7.5701,7.8704,7.94,7.9981,8.0406,8.1001,8.1001,8.0459,8.1697,8.189,8.1349,8.2006,8.2238,8.1736,7.5546,7.2723,7.1872,6.7849,6.5373,6.4135,6.4986,6.5334,6.5876,0.0,0.0,0.0,0.0,0.0,0.0,0.0,0.0,0.0,0.0,0.0,3.7094,4.135,4.4134,4.669,4.9293,4.8085,4.7147,4.6953,4.2304,3.9101,3.8124,3.5741,3.5663,3.8241,4.8242,5.6445,6.2656,6.539,6.7148,6.8008,6.8008,6.8047,6.8047,6.7148,6.5156,6.2265,5.9805,5.664,5.293,4.793,0.0,0.0,0.0,0.0,0.0,0.0,0.0,0.0,0.0,0.0,0.0,0.0,0.0,0.0,0.0,0.0,0.0,0.0,0.0,0.0,0.0,0.0,0.0,0.0,0.0,0.0,0.0,0.0,0.0,0.0,0.0,0.0,0.0,0.0,0.0,0.0,0.0,0.0,6.543,6.6399,0.0,0.0,0.0,0.0,6.3147,6.4889,6.7771,7.1949,7.2955,7.5005,7.8486,7.8757,7.971,8.1451,8.1669,8.2598,8.4223,8.4262,8.4237,8.4211,8.4314,8.4314,8.4289,8.4327,8.4289,8.3979,8.1813,7.8564,7.4811,7.3806,7.1369,6.8584,6.9396,7.1214,7.3574,0.0,0.0,0.0,0.0,0.0,2.5762,2.6591,2.7658,2.9205,3.1506,3.6046,4.0268,4.3466,4.7651,5.1293,5.3906,5.4687,5.4297,5.2578,4.8164,4.5469,4.5156,4.1601,4.3437,5.1641,5.7617,6.2773,6.7187,6.8633,6.9492,6.9805,6.9805,6.9805,6.9765,6.8906,6.8008,6.6992,6.4414,6.1328,5.7851,5.4922,4.9844,0.0,0.0,0.0,0.0,0.0,0.0,0.0,0.0,0.0,0.0,0.0,0.0,0.0,0.0,0.0,0.0,0.0,0.0,0.0,0.0,0.0,0.0,0.0,0.0,0.0,0.0,0.0,0.0,0.0,0.0,0.0,0.0,0.0,0.0,0.0,0.0,0.0,6.4419,6.6763,0.0,6.4749,6.6977,6.8816,6.9336,7.2529,7.5585,7.8177,7.8704,7.9981,8.2341,8.2534,8.2893,8.3515,8.3554,8.4176,8.5343,8.5866,8.6138,8.6199,8.7288,8.7483,8.6994,8.7522,8.7426,8.6825,8.6141,8.3554,7.9918,7.8486,7.721,7.6127,7.5895,7.6397,7.7287,0.0,0.0,0.0,0.0,2.5492,2.5886,2.6986,2.8625,3.0868,3.4042,3.922,4.3826,4.7012,5.1518,5.5156,5.7226,5.875,5.875,5.6758,5.2578,4.9922,4.9375,4.7109,5.0586,6.0703,6.3711,6.6875,7.0351,7.1172,7.1562,7.1562,7.1875,7.1875,7.1562,7.0976,7.0586,7.0195,6.8164,6.5664,6.2812,6.0547,5.5859,4.9883,0.0,0.0,0.0,0.0,0.0,0.0,0.0,0.0,0.0,0.0,0.0,0.0,0.0,0.0,0.0,0.0,0.0,0.0,0.0,0.0,0.0,0.0,0.0,0.0,0.0,0.0,0.0,0.0,0.0,0.0,0.0,0.0,0.0,0.0,6.2039,6.5318,6.5341,6.8906,7.0496,6.821,7.1849,7.4695,7.5546,7.8602,8.1001,8.2355,8.2573,8.3328,8.4764,8.494,8.5281,8.5827,8.5905,8.6363,8.7221,8.7768,8.7885,8.769,8.8782,8.8821,8.8041,8.8626,8.854,8.7897,8.7646,8.6079,8.3674,8.2235,8.1271,8.0716,8.0111,8.0111,8.0382,0.0,0.0,0.0,2.553,2.553,2.608,2.7776,2.9532,3.2822,3.8828,4.3346,4.7717,5.2146,5.5664,5.8125,5.918,6.0039,6.0156,5.9375,5.5234,5.2109,5.0469,5.2226,5.6758,6.4336,6.6211,6.875,7.207,7.293,7.3359,7.3359,7.4219,7.414,7.3359,7.332,7.2812,7.1992,7.1094,6.9805,6.8008,6.457,6.1133,5.7539,0.0,0.0,0.0,0.0,0.0,0.0,0.0,0.0,0.0,0.0,0.0,0.0,0.0,0.0,0.0,0.0,0.0,0.0,0.0,0.0,0.0,0.0,0.0,0.0,0.0,0.0,0.0,0.0,0.0,0.0,0.0,0.0,0.0,6.3574,6.6668,6.8906,6.8953,7.3412,7.5856,7.4309,7.7968,8.0754,8.1528,8.265,8.3579,8.434,8.4546,8.4993,8.5884,8.6068,8.6916,8.8491,8.8635,8.9101,8.9961,8.9961,8.9531,8.875,8.875,8.832,8.7578,8.7578,8.7431,8.7195,8.6389,8.5988,8.5779,8.4854,8.3449,8.1964,8.1838,8.2302,8.3153,0.0,0.0,2.5685,2.6281,2.6359,2.6947,2.8683,3.0914,3.4148,3.8965,4.3948,4.8697,5.3086,5.6133,5.8711,6.082,6.1797,6.2187,6.1953,5.793,5.5312,5.4844,6.1289,6.6172,6.8867,7.0664,7.2305,7.3906,7.414,7.4258,7.4258,7.4492,7.4453,7.4219,7.3594,7.3164,7.289,7.1992,7.1367,7.0742,6.8555,6.5586,6.2265,0.0,0.0,0.0,0.0,0.0,0.0,0.0,0.0,0.0,0.0,0.0,0.0,0.0,0.0,0.0,0.0,0.0,0.0,0.0,0.0,0.0,0.0,0.0,0.0,0.0,0.0,0.0,0.0,0.0,0.0,0.0,6.4672,6.7757,6.7316,7.0258,7.2909,7.4146,7.6746,7.8704,7.9492,8.0716,8.2079,8.3571,8.4566,8.5413,8.6233,8.6954,8.7808,8.8678,8.8845,8.8813,8.8657,8.8666,8.8828,8.9062,8.9062,8.9258,8.9648,8.9648,8.9531,8.9297,8.9297,8.8904,8.8264,8.8039,8.7585,8.6845,8.5175,8.4209,8.3781,8.3639,8.3691,8.3824,0.0,2.5492,2.5762,2.6552,2.6691,2.7301,2.9038,3.1766,3.5475,4.059,4.5172,4.9883,5.5039,5.7305,5.9453,6.2031,6.2695,6.2539,6.1484,5.8398,5.8047,6.1328,6.6289,7.0039,7.2265,7.332,7.4258,7.5156,7.5508,7.5898,7.625,7.6562,7.6367,7.5664,7.5156,7.4336,7.3281,7.2773,7.2344,7.1914,7.0898,6.8867,6.625,6.414,6.164,5.8945,5.6367,5.5195,5.4609,5.2891,0.0,0.0,0.0,0.0,0.0,0.0,0.0,0.0,0.0,0.0,0.0,0.0,0.0,0.0,0.0,0.0,0.0,0.0,0.0,0.0,0.0,0.0,0.0,0.0,6.9308,7.277,7.3041,7.4479,7.6127,7.7867,7.9361,8.081,8.2204,8.2792,8.3753,8.5429,8.6168,8.7005,8.8126,8.8756,8.9348,8.9878,8.9964,8.9765,8.9258,8.9258,8.9258,8.9258,8.9258,8.9336,8.9453,8.9453,8.9258,8.8945,8.8945,8.8672,8.8203,8.8203,8.7919,8.7386,0.0,0.0,0.0,0.0,8.539,8.5217,2.553,2.5569,2.5886,2.6715,2.6936,2.7557,2.9216,3.2329,3.6735,4.2807,4.6582,5.1094,5.7344,5.875,6.0273,6.293,6.3047,6.2031,5.9765,5.8633,6.1094,6.789,6.8672,7.0781,7.4805,7.4883,7.5351,7.6328,7.7109,7.789,7.8633,7.9375,7.8906,7.7461,7.7265,7.5898,7.3711,7.3515,7.3008,7.2305,7.2305,7.1289,6.9531,6.7109,6.5195,6.3555,6.1211,5.9805,5.8828,5.7148,0.0,0.0,0.0,0.0,0.0,0.0,0.0,0.0,0.0,0.0,0.0,0.0,0.0,0.0,0.0,0.0,0.0,0.0,0.0,0.0,0.0,0.0,0.0,0.0,7.3582,7.7465,7.923,7.8805,7.8897,8.0396,8.1445,8.2456,8.3555,8.4472,8.5651,8.7214,8.7713,8.854,8.9903,9.007,0.0,0.0,0.0,8.9961,8.9844,8.9961,8.9961,8.9844,8.9961,8.9609,8.8867,8.8867,8.8476,8.7773,8.7773,8.7773,8.7773,8.7773,8.7773,8.7773,8.7656,8.7617,8.7612,8.7504,8.7343,8.7113,2.5646,2.6002,2.6753,2.7621,2.8315,2.9139,3.0202,3.3238,3.7404,4.2884,4.6582,5.1328,5.8203,5.9101,6.0508,6.375,6.3398,6.2773,6.2305,6.5195,6.7305,6.8164,7.1523,7.4414,7.664,7.6719,7.7422,7.8984,7.914,7.9297,7.9453,7.9648,7.9531,7.914,7.7812,7.6914,7.6367,7.4961,7.4258,7.4101,7.4101,7.3047,7.1367,7.0156,6.9492,6.9062,6.793,6.6953,6.6055,6.5,6.2773,6.0273,5.9258,5.7031,0.0,0.0,0.0,0.0,0.0,0.0,0.0,0.0,0.0,0.0,0.0,0.0,0.0,0.0,0.0,0.0,0.0,0.0,0.0,7.2684,7.6712,8.0009,8.1078,8.176,8.2031,8.1658,8.3104,8.4745,8.636,8.6796,8.7655,8.9291,9.0116,9.0701,9.0989,9.1012,9.1054,9.1054,9.0351,8.9648,8.8945,8.9648,8.9648,8.8945,8.9648,0.0,8.9765,8.9765,8.9648,8.9531,8.9531,8.9531,8.9531,8.9531,8.9531,8.9453,8.875,8.8398,8.8398,8.9045,8.9184,8.9074,2.6829,2.7086,2.7644,2.8487,2.9003,2.9573,3.0482,3.3122,3.6784,4.1659,4.4899,4.9101,5.5273,5.5937,5.6992,5.957,6.0195,6.1172,6.289,6.6211,6.9101,7.1328,7.3867,7.6055,7.7812,7.7851,7.8672,8.0351,8.0351,8.0586,8.1015,8.1015,8.0781,8.0312,7.9492,7.8633,7.7773,7.6875,7.6289,7.5859,7.543,7.4726,7.3828,7.25,7.1445,7.0664,7.0234,6.9531,6.8711,6.8281,6.7031,6.5547,6.5078,6.289,5.9844,0.0,0.0,0.0,0.0,0.0,0.0,0.0,0.0,0.0,0.0,0.0,0.0,0.0,0.0,6.6012,6.7282,0.0,7.5469,7.6378,7.979,8.2573,8.3115,8.4375,8.5078,8.465,8.5434,8.6719,8.8476,8.8711,8.9297,9.0547,9.1054,9.1289,9.1289,9.1289,9.0898,9.0039,9.0,8.957,8.8711,8.957,8.9765,8.9375,8.9804,9.0,9.0,9.0,9.0,9.0,9.0,9.0,9.0,9.0,9.0,9.0,9.0,8.9687,8.9297,8.9726,8.9833,8.9704,2.8241,2.8393,2.8689,2.9226,2.9458,2.9844,3.0714,3.2842,3.5999,4.0421,4.3061,4.6484,5.1641,5.2226,5.2891,5.4648,5.7305,6.0078,6.2812,6.6211,7.0078,7.4414,7.543,7.6797,7.8672,7.8711,7.957,8.125,8.125,8.1601,8.2304,8.2304,8.1914,8.125,8.1094,8.0234,7.8984,7.875,7.8281,7.7615,7.6756,7.6288,7.5976,7.4414,7.2812,7.1445,7.1289,7.0547,6.9648,6.9648,6.957,6.9492,6.9687,6.7812,6.5,6.2226,5.9101,0.0,0.0,0.0,0.0,0.0,0.0,0.0,0.0,6.225,6.3291,6.6969,6.9022,7.0628,7.2032,7.5928,7.9249,8.01,8.2832,8.4961,8.5155,8.6706,8.789,8.8047,8.7929,8.8476,9.0078,9.0117,9.0351,9.1211,9.1133,9.1054,9.1054,9.0898,9.0234,8.8984,8.9453,8.9492,8.8945,8.9804,9.0234,9.0234,9.0429,9.0508,9.0508,9.0508,9.0508,9.0508,9.0508,9.0508,9.0508,9.0508,9.0508,9.0586,9.1289,9.1133,9.0508,9.0508,9.0429,9.0351,2.9139,2.9776,3.0095,2.9419,2.9931,3.0714,3.1545,3.3238,3.597,4.0427,4.2524,4.5391,4.9961,5.0469,5.1172,5.2851,5.8789,6.2578,6.2969,6.9023,7.3203,7.4531,7.543,7.7031,7.9492,7.957,8.0429,8.2148,8.2148,8.2187,8.2304,8.2304,8.2265,8.2109,8.1367,8.0898,8.0664,7.9883,7.9485,7.9332,7.8473,7.768,7.6953,7.5976,7.5,7.4062,7.3281,7.1953,7.0547,7.0547,7.0039,6.9531,7.0312,7.0312,6.9336,6.6015,6.3086,6.0273,5.6914,5.7422,5.9453,6.1797,6.289,6.539,0.0,7.2458,7.1684,7.6455,7.8785,8.0048,8.0318,8.2122,8.3656,8.3876,8.565,8.6982,8.6982,8.8553,9.0,9.0742,9.0156,9.0078,9.1054,9.0469,9.0351,9.1211,9.0586,9.0156,9.0156,8.9414,8.9258,8.9844,8.9219,8.9179,8.9844,9.0703,9.1133,9.1172,9.1953,9.2304,9.2304,9.2304,9.2304,9.2304,9.2304,9.2304,9.2304,9.2304,9.2304,9.2304,9.2422,9.2383,9.2304,9.2304,9.2304,9.2304,3.0047,3.0356,3.0482,3.0124,3.0366,3.0878,3.1661,3.2851,3.4874,3.8236,3.975,4.1641,4.457,4.5351,4.6133,4.7344,5.5156,6.0234,6.0742,6.8633,7.3476,7.3828,7.4687,7.6133,7.8203,7.8242,7.9336,8.1523,8.1523,8.1797,8.2304,8.2304,8.2304,8.2265,8.1914,8.1484,8.0976,8.0615,8.0168,7.9633,7.8735,7.8184,7.7812,7.6953,7.6445,7.5742,7.2812,7.1328,0.0,7.0703,7.0469,7.0508,7.2383,7.1914,7.0234,6.7812,6.5273,6.3437,6.4531,6.4648,6.539,6.9492,7.039,7.1601,7.6562,7.6923,7.7344,8.1387,8.2767,8.327,8.3296,8.4743,8.5916,8.61,8.7626,8.8789,8.8867,8.9961,9.0898,9.125,9.0976,9.0898,9.125,9.0976,9.0703,9.0547,9.0195,9.0,9.0,8.9648,8.9609,9.0,9.0156,9.039,9.0742,9.1601,9.207,9.207,9.2422,9.2617,9.2617,9.3125,9.3359,9.3359,9.3359,9.3086,9.2617,9.2617,9.2617,9.2617,9.2617,9.2617,9.2617,9.2617,9.2617,9.2656,3.0598,3.0598,3.0598,3.0598,3.0598,3.0955,3.2019,3.2676,3.4047,3.6654,3.7624,3.8659,4.0234,4.1172,4.2148,4.3242,5.1406,5.7226,5.9062,6.7187,7.2305,7.3242,7.3906,7.5078,7.6797,7.707,7.8203,8.0312,8.0547,8.1094,8.1953,8.1953,8.207,8.2304,8.2031,8.1601,8.0972,8.0749,8.0263,7.9639,7.8735,7.8419,7.832,7.75,7.6601,7.5312,7.1914,7.039,6.9844,6.8633,6.8555,6.9258,7.1172,7.0781,6.9414,6.8203,6.5976,6.4765,6.8594,6.9648,7.0742,7.543,7.7031,7.789,7.9648,8.0505,8.16,8.4007,8.4863,8.5212,8.5253,8.6628,8.7812,8.8008,8.9258,9.0234,9.0351,9.1094,9.1562,9.1328,9.1289,9.1094,9.0625,9.0586,9.0429,9.0039,8.9765,8.9765,9.0,9.0,9.0117,9.0351,9.0976,9.1523,9.1992,9.2656,9.3086,9.332,9.332,9.332,9.3359,9.3984,9.4258,9.4258,9.4258,9.3906,9.332,9.332,9.332,9.332,9.332,9.332,9.332,9.332,9.3164,9.3086,3.0598,3.0598,3.0598,3.0598,3.0598,3.1149,3.2803,3.3063,3.4047,3.6654,3.7102,3.7522,3.8553,3.9453,4.0625,4.2305,4.8828,5.4648,5.8906,6.4961,6.9844,7.3164,7.332,7.414,7.5898,7.6758,7.7656,7.8594,7.9375,8.0195,8.1054,8.1054,8.1484,8.2265,8.1406,8.1009,8.0927,8.0107,7.9717,7.96,7.8741,7.8383,7.832,7.75,7.5117,7.2031,7.1055,6.9648,6.7617,6.3398,6.3086,6.4492,6.4609,6.5703,6.6992,6.6953,6.5078,6.3633,6.6289,7.0039,7.3984,7.7539,8.1523,8.457,8.4531,8.4531,8.453,8.4491,8.578,8.6991,8.7186,8.8593,8.9765,8.9883,9.0664,9.125,9.125,9.1992,9.2265,9.1406,9.1289,9.0625,8.8945,8.8789,8.9101,8.9922,8.9219,8.9101,8.9961,9.0,9.039,9.1211,9.1289,9.2109,9.3789,9.3867,9.4297,9.5117,9.5117,9.5117,9.5117,9.5156,9.5156,9.5156,9.5156,9.5156,9.5117,9.5117,9.5117,9.5117,9.5117,9.5117,9.5117,9.5117,9.4609,9.3984,3.0598,3.0598,3.0598,3.0598,3.0598,3.1187,3.2842,3.3102,3.3815,3.5869,3.6197,0.0,0.0,0.0,0.0,0.0,4.6523,5.1758,5.5508,6.2461,6.75,6.9805,7.1523,7.2969,7.414,7.5039,7.6172,7.7656,7.8476,7.9336,8.0156,8.0742,8.0856,8.0602,8.0875,8.0358,7.9248,7.8975,7.8155,7.714,7.7414,7.6527,7.5099,7.6014,7.3125,6.8359,0.0,6.4844,6.3476,6.0898,6.1172,6.289,6.4609,6.4765,6.4219,6.3633,6.5273,6.8008,7.1133,7.4726,7.8398,8.1875,8.3828,8.5039,8.5586,8.5703,8.6015,8.707,8.6836,8.6679,8.7304,8.832,8.9062,8.914,9.0859,9.2148,9.2148,9.1914,9.164,9.1328,9.0781,9.0195,8.9609,8.957,8.9453,8.914,8.9414,8.9922,9.082,9.0859,9.1523,9.2969,9.3047,9.3594,9.4765,9.4765,9.4922,9.5195,9.5195,9.5508,9.6054,9.6054,9.6054,9.6054,9.6054,9.5742,9.5195,9.5195,9.5195,9.5195,9.5195,9.5195,9.5273,9.5859,9.5898,9.5664,3.0598,3.083,3.0955,3.0636,3.083,0.0,0.0,0.0,0.0,0.0,0.0,0.0,0.0,0.0,0.0,0.0,0.0,4.9101,5.2812,5.8633,6.3086,6.5742,6.7148,6.8398,6.9609,6.9844,7.1133,7.3515,7.5,7.6601,7.8359,7.9531,7.9954,7.9711,7.9951,7.9287,7.7921,7.7609,7.6828,7.5735,7.5071,7.4017,7.2807,7.238,6.8867,0.0,6.1172,5.9297,5.7773,5.6094,5.7031,5.9297,6.1289,6.2617,6.3594,6.4258,6.6836,7.0586,7.5547,7.8711,8.1523,8.5312,8.6484,8.6875,8.7422,8.7578,8.7851,8.8945,8.7812,8.6836,8.7383,8.8164,8.8594,8.832,9.0703,9.2383,9.1758,9.1445,9.1172,9.0859,9.0351,9.0,9.0,9.0273,9.0234,8.9687,9.0156,9.0859,9.1719,9.1758,9.2422,9.3867,9.3906,9.4453,9.5664,9.5664,9.582,9.6094,9.6094,9.6406,9.6914,9.6914,9.6914,9.6914,9.6914,9.6601,9.6094,9.6094,9.6094,9.6094,9.6094,9.6094,9.6172,9.6719,9.6914,9.6914,3.0636,3.1265,3.1545,0.0,0.0,0.0,0.0,0.0,0.0,0.0,0.0,0.0,0.0,0.0,0.0,0.0,0.0,0.0,5.0859,5.3633,5.6992,6.1172,6.0742,6.1172,6.2812,6.2148,6.3398,6.6758,6.9219,7.2148,7.5469,7.7109,7.8311,7.9008,7.8233,7.7414,7.6594,7.5696,7.5305,7.4993,7.1753,7.0816,7.0977,6.6989,6.2734,5.8594,5.6172,5.3594,5.1094,4.9531,5.1484,5.4726,5.5742,6.0078,6.539,6.8711,6.9883,7.1758,7.9062,8.1875,8.3633,8.7656,8.9297,8.9922,8.9883,8.9844,8.9765,8.9687,8.8281,8.707,8.6992,8.7734,8.8125,8.7344,9.0195,9.1875,9.0234,9.0703,9.0937,9.0117,0.0,0.0,0.0,0.0,9.1367,9.1367,9.1367,9.1719,9.2578,9.2656,9.3086,9.3945,9.4023,9.4844,9.6523,9.6562,9.6953,9.7695,9.7734,9.7734,9.7695,9.7734,9.7734,9.7695,9.7695,9.7695,9.7695,9.7695,9.7695,9.7695,9.7695,9.7695,9.7695,9.7695,9.7695,9.7695,0.0,0.0,0.0,0.0,0.0,0.0,0.0,0.0,0.0,0.0,0.0,0.0,0.0,0.0,0.0,0.0,0.0,0.0,4.7344,5.0625,5.375,5.6797,5.914,6.0625,6.1055,6.2109,6.3437,6.4961,6.625,6.7695,6.9219,7.0299,7.0587,7.018,7.057,7.0609,7.0336,6.9522,6.8781,6.8122,6.7255,6.5465,6.3395,6.3593,6.0195,5.5312,5.5312,5.3242,5.0547,5.0703,5.5625,6.2265,6.5703,6.8711,7.1289,7.2812,7.6015,7.9453,8.1445,8.4922,8.8008,8.7851,8.8437,8.8867,8.8281,8.7656,8.6797,8.5508,8.3359,8.1328,8.0078,8.207,8.3867,8.3672,8.7578,9.0508,9.0078,9.0195,9.0234,9.0039,0.0,9.0976,9.0976,9.1758,9.2265,9.2265,9.2265,9.2383,9.2578,9.3203,9.3984,9.4844,9.5508,9.6328,9.7383,9.7383,9.75,9.7695,9.8359,9.832,9.7734,9.8359,9.832,9.7695,9.7695,9.7695,9.7695,9.7695,9.7695,9.7695,9.7695,9.7695,9.7695,9.7695,9.7695,9.7695,0.0,0.0,0.0,0.0,0.0,0.0,0.0,0.0,0.0,0.0,0.0,0.0,0.0,0.0,0.0,0.0,0.0,0.0,0.0,4.7109,4.9609,5.1836,5.375,5.5156,5.5898,5.6133,5.7578,6.0351,6.0859,6.2305,6.4648,6.5109,6.5098,6.463,6.5098,6.5294,6.5254,6.4399,6.4008,0.0,0.0,6.0156,5.8672,5.8125,5.5586,5.2383,5.2891,5.3281,5.4101,5.7617,6.1758,6.6172,7.0508,7.3047,7.4922,7.7265,8.0312,8.3203,8.4687,8.7773,9.0234,8.8945,8.9219,8.9219,8.6875,8.5664,8.4375,8.1875,7.9297,7.7187,7.6211,7.9492,8.2187,8.1797,8.7031,9.0859,9.0117,9.0312,9.0586,9.0586,9.1015,0.0,9.1836,9.2304,9.2617,9.2617,9.2617,9.2773,9.3164,9.3633,9.4453,9.5742,9.625,9.6875,9.7695,9.7695,9.789,9.8281,9.8398,9.8359,9.8281,9.8398,9.8164,9.7695,9.7695,9.7695,9.7695,9.7695,9.7695,9.7695,9.7695,9.7929,9.8281,9.8281,9.8515,9.8828,0.0,0.0,0.0,0.0,0.0,0.0,0.0,0.0,0.0,3.6566,3.6964,3.7311,0.0,0.0,0.0,0.0,0.0,0.0,0.0,0.0,4.5625,4.7344,4.7539,4.832,4.9805,4.8476,5.0039,5.4609,5.4609,5.6562,6.0312,6.0312,6.0312,6.0312,6.0312,6.039,6.0469,5.957,5.9648,6.0,5.6172,5.5,5.5234,0.0,5.0703,5.0234,5.0586,5.3789,5.8984,6.6015,6.8242,6.8867,7.3398,7.5976,7.8008,8.1875,8.3594,8.4922,8.789,8.9961,9.1094,9.0234,9.0664,9.0156,8.5742,8.3945,8.2148,7.8281,7.5469,7.3711,7.3594,7.7695,8.1015,8.0703,8.6797,9.1172,9.0,9.0586,9.1172,9.1289,9.1484,9.1953,9.2695,9.289,9.2969,9.2969,9.2969,9.3203,9.3867,9.4101,9.5,9.6601,9.664,9.7031,9.7851,9.7851,9.832,9.914,9.8398,9.8398,9.8984,9.8203,9.7812,9.7695,9.7695,9.7695,9.7695,9.7812,9.7851,9.7851,9.7851,9.832,9.8984,9.8984,9.9414,9.9961,0.0,0.0,0.0,0.0,0.0,0.0,0.0,0.0,0.0,0.0,3.9259,3.8377,0.0,0.0,0.0,0.0,0.0,0.0,0.0,0.0,0.0,4.6445,4.7226,4.7734,4.8047,4.8476,4.9453,5.1094,5.1094,5.1797,5.3203,5.3203,5.3203,5.3203,5.3203,5.3594,5.4219,5.332,5.3047,5.3047,5.1641,5.0742,5.0156,4.957,0.0,0.0,5.2578,5.5312,5.9062,6.6719,7.1523,7.5351,8.1094,8.3594,8.4687,8.6172,8.7187,8.7929,8.8554,8.9961,9.1094,9.0234,9.0664,9.0,8.4961,8.2578,7.9648,7.3359,7.0586,6.9101,6.8359,7.1875,7.5742,7.8476,8.3047,8.6875,8.8672,8.9687,9.0508,9.1211,9.2578,9.3515,9.3672,9.4336,9.4765,9.4765,9.4765,9.4492,9.3945,9.5273,9.6484,9.7461,9.75,9.789,9.8789,9.8789,9.9219,10.0117,9.9922,9.9531,9.8984,9.8828,9.8398,9.7695,9.7695,9.7695,9.7773,9.8476,9.8789,9.8789,9.8789,9.8867,9.8984,9.8984,9.8633,9.8242,0.0,0.0,0.0,0.0,0.0,0.0,0.0,4.0289,4.1788,4.4318,4.4007,4.3078,4.1753,4.096,4.0664,0.0,0.0,0.0,0.0,0.0,0.0,4.5586,4.6445,4.6914,4.6914,4.7344,4.8203,4.9531,0.0,4.8828,5.0078,4.918,4.875,4.875,4.875,4.9219,5.0,4.9101,4.9023,4.9336,4.8516,4.793,4.7656,4.8555,0.0,0.0,5.3242,5.5976,5.9336,6.4414,6.9883,7.5742,8.2695,8.5195,8.5625,8.6015,8.7344,8.8594,8.8203,8.9648,9.1211,9.0781,9.0976,8.9492,8.2539,7.9609,7.625,6.8906,6.6367,6.5508,6.5547,6.9805,7.414,7.6719,8.2265,8.6836,8.8476,9.0625,9.2187,9.2617,9.3789,9.457,9.457,9.4961,9.5195,9.5195,9.5625,9.5703,9.5273,9.6445,9.75,9.8359,9.8398,9.8789,9.9687,9.9687,10.0117,10.1015,10.0508,10.0117,9.9648,9.9219,9.8515,9.7734,9.8164,9.8398,9.8437,9.9336,9.9687,9.9687,9.9687,9.9687,9.9726,10.0195,10.0117,9.9844,0.0,0.0,0.0,0.0,0.0,0.0,4.1241,4.3041,4.4896,4.7811,4.8639,4.7796,4.4794,4.2928,4.167,0.0,0.0,0.0,0.0,0.0,0.0,0.0,0.0,0.0,4.6289,0.0,0.0,4.8359,4.6953,0.0,0.0,0.0,0.0,0.0,4.6289,4.668,4.7266,4.6601,4.6719,0.0,0.0,4.6289,4.6484,0.0,0.0,0.0,0.0,5.5742,5.8633,6.2109,6.6875,7.2656,8.0078,8.3164,8.414,8.4492,8.6289,8.8164,8.8047,8.9648,9.1328,9.1523,9.1562,8.9297,8.0508,7.7305,7.3867,6.5703,6.332,6.3086,6.4336,6.8594,7.2812,7.5469,8.1328,8.625,8.8164,9.1094,9.3281,9.3828,9.4844,9.5469,9.5469,9.5625,9.5742,9.5742,9.6367,9.6758,9.6758,9.7539,9.8281,9.8984,9.8984,9.9414,10.0312,10.0312,10.0703,10.1601,10.0898,10.0508,10.0312,9.9609,9.8789,9.8047,9.8906,9.9297,9.9336,10.0195,10.0586,10.0586,10.0586,10.0586,10.0703,10.1289,10.1484,10.1406,0.0,0.0,0.0,0.0,0.0,0.0,4.135,4.4068,4.7104,5.1211,5.109,4.9969,4.815,4.588,4.3545,0.0,0.0,0.0,0.0,0.0,0.0,0.0,0.0,0.0,0.0,0.0,0.0,4.6523,4.6367,0.0,0.0,0.0,0.0,0.0,0.0,4.6328,4.6406,4.6328,0.0,0.0,0.0,0.0,0.0,0.0,0.0,0.0,0.0,5.4219,5.5469,6.1992,6.4609,6.6211,7.2422,7.7578,8.1679,8.3242,8.5,8.6914,8.914,9.0508,9.1484,9.2265,9.2461,9.0039,8.0625,7.7773,7.4414,6.5039,6.2422,6.2578,6.5039,6.6562,6.9336,7.4961,7.7812,8.1289,8.6836,8.9219,9.125,9.3633,9.5351,9.6367,9.6367,9.7031,9.7461,9.7461,9.7539,9.7578,9.7578,9.8398,9.8906,9.8984,9.8984,9.9414,10.0312,10.0312,10.0703,10.1601,10.1484,10.1094,10.0312,10.0195,9.9687,9.8945,9.9804,10.0195,10.0195,10.1094,10.1484,10.1484,10.1484,10.1484,10.1484,10.1601,10.1094,10.0508,0.0,0.0,0.0,0.0,0.0,0.0,4.2833,4.4909,4.7622,5.2355,5.2696,5.1807,5.0079,4.8188,4.5395,4.1405,0.0,0.0,0.0,0.0,0.0,0.0,0.0,0.0,0.0,0.0,4.6289,4.6289,4.6289,0.0,0.0,0.0,0.0,0.0,0.0,4.6289,4.6289,4.6289,0.0,0.0,0.0,0.0,0.0,0.0,0.0,0.0,0.0,0.0,5.5273,5.8555,6.1719,6.4531,6.5898,7.0234,7.5351,7.8164,8.2031,8.5625,8.664,8.9062,9.1523,9.2383,9.1797,8.8828,8.0429,7.6992,7.3242,6.4765,6.2305,6.2344,6.4414,6.5547,6.7734,7.2734,7.5898,7.9101,8.3047,8.6836,9.0,9.2109,9.4336,9.5937,9.6445,9.7226,9.7695,9.7695,9.7695,9.7695,9.7695,9.8515,9.9258,9.9765,10.0312,10.1015,10.1914,10.1914,10.1992,10.2383,10.2383,10.1719,10.0312,10.0781,10.0312,9.9062,10.0508,10.1094,10.1211,10.1992,10.2383,10.2383,10.2383,10.2109,10.1719,10.2187,10.1797,10.1211,0.0,0.0,0.0,0.0,0.0,3.8833,4.3504,4.537,4.7802,5.2177,5.2966,5.2447,5.0713,4.8841,4.6208,4.2455,4.3042,0.0,0.0,0.0,0.0,0.0,0.0,0.0,0.0,0.0,4.6445,4.668,4.668,4.668,0.0,0.0,4.6562,4.6289,0.0,0.0,0.0,0.0,0.0,0.0,0.0,0.0,0.0,0.0,0.0,0.0,0.0,0.0,0.0,0.0,0.0,6.2265,6.1562,6.4609,6.9297,7.3828,7.9023,8.3633,8.4922,8.8047,9.1172,9.2304,9.0937,8.7304,7.9805,7.5898,7.1719,6.418,6.2148,6.2226,6.3984,6.4805,6.6601,7.0937,7.4101,7.7305,8.0898,8.5195,8.8789,9.1015,9.3164,9.4883,9.6015,9.707,9.7695,9.7695,9.7695,9.7812,9.8086,9.8906,9.9687,10.0312,10.1094,10.1914,10.25,10.25,10.25,10.25,10.2812,10.2109,10.0703,10.1601,10.1211,9.9844,10.1289,10.1992,10.1992,10.2617,10.289,10.289,10.289,10.25,10.2109,10.2695,10.25,10.2109,0.0,0.0,0.0,0.0,0.0,0.0,4.2795,4.5454,4.8009,5.0569,5.1679,5.158,4.9886,4.7388,4.5549,4.4821,4.4046,0.0,0.0,0.0,0.0,0.0,0.0,0.0,0.0,0.0,4.6719,4.7578,4.7578,4.7578,4.7578,4.7578,4.7148,4.6289,0.0,0.0,0.0,0.0,0.0,0.0,0.0,0.0,4.8984,0.0,0.0,0.0,0.0,0.0,0.0,0.0,0.0,0.0,0.0,6.164,6.4414,7.1328,7.6367,8.0703,8.5,8.8047,9.0429,9.2187,9.0039,8.5703,7.8789,7.4531,7.0078,6.3125,6.1719,6.2226,6.3984,6.4297,6.5703,7.0039,7.2187,7.543,8.1445,8.457,8.75,9.0898,9.2109,9.332,9.5039,9.6719,9.7695,9.7695,9.7695,9.8086,9.8945,9.9804,10.0312,10.0312,10.1094,10.1601,10.1601,10.1601,10.1601,10.1601,10.25,10.2383,10.1601,10.25,10.2383,10.1601,10.25,10.289,10.289,10.289,10.289,10.289,10.289,10.289,10.289,10.289,10.289,10.289,0.0,0.0,0.0,0.0,0.0,0.0,4.0346,4.2369,4.4742,4.7893,4.8522,4.8933,4.9567,4.6822,4.4877,4.4821,4.4007,0.0,0.0,0.0,0.0,0.0,0.0,0.0,0.0,0.0,4.7617,4.8476,4.9101,4.9375,4.9375,4.8789,4.8008,4.7148,4.6562,4.6289,0.0,0.0,0.0,0.0,0.0,4.8633,4.9062,0.0,0.0,0.0,0.0,0.0,0.0,0.0,0.0,0.0,0.0,0.0,0.0,6.6328,7.1445,7.664,7.8633,8.1445,8.3828,8.3789,8.2109,7.9101,7.3945,7.1015,6.793,6.2773,6.1719,6.2226,6.3984,6.4297,6.6289,7.2383,7.3828,7.6094,8.1523,8.5078,8.7929,9.0156,9.3281,9.5703,9.6797,9.6875,9.7109,9.7656,9.7695,9.8086,9.8945,9.9844,10.0586,10.1211,10.1992,10.25,10.25,10.25,10.25,10.25,10.2812,10.2383,10.1601,10.25,10.2383,10.1601,10.25,10.289,10.289,10.289,10.289,10.289,10.289,10.289,10.289,10.289,10.289,10.289,0.0,0.0,0.0,0.0,0.0,0.0,3.9236,4.0642,4.2524,4.5258,4.5641,4.6283,4.7981,4.5418,4.3912,4.4744,4.3695,0.0,0.0,0.0,0.0,0.0,0.0,0.0,4.6289,4.6836,4.8008,4.9844,5.0391,5.0976,5.1601,5.1094,4.9844,4.8086,4.7539,4.6914,0.0,0.0,0.0,0.0,4.8203,4.8906,4.9062,0.0,0.0,0.0,0.0,0.0,0.0,0.0,0.0,0.0,0.0,0.0,0.0,0.0,6.7109,7.1328,7.414,7.6953,7.918,7.9609,7.7695,7.4844,7.1484,6.8633,6.5781,6.2383,6.1719,6.2148,6.3555,6.4062,6.6133,7.1758,7.3203,7.5547,8.1054,8.4258,8.7148,9.0117,9.375,9.6211,9.6719,9.6875,9.7148,9.7656,9.7695,9.8086,9.8945,9.9492,10.0195,10.1094,10.1992,10.2304,10.1914,10.2187,10.2383,10.2383,10.2695,10.2617,10.2109,10.2695,10.2617,10.2109,10.2695,10.289,0.0,10.289,10.289,10.289,10.289,10.289,10.289,10.289,10.289,10.289,0.0,0.0,0.0,0.0,0.0,0.0,0.0,4.0072,4.1184,4.2806,4.3057,4.3739,4.5333,4.3374,4.2627,4.4356,4.311,0.0,0.0,0.0,0.0,0.0,0.0,0.0,4.6289,4.6406,4.8086,5.1406,5.1601,5.2539,5.418,5.418,5.2344,4.9062,4.9023,4.8008,0.0,0.0,0.0,0.0,4.8203,4.8906,0.0,0.0,0.0,0.0,0.0,0.0,0.0,0.0,0.0,0.0,0.0,0.0,0.0,0.0,0.0,0.0,0.0,7.3828,7.5703,7.8047,7.5625,7.2226,7.0547,6.707,0.0,6.2031,6.1719,6.2031,6.3086,6.3945,6.5703,6.9375,7.1367,7.4492,8.0351,8.2969,8.6094,9.1172,9.3906,9.539,9.5469,9.6836,9.7695,9.7695,9.7695,9.8086,9.8945,9.8984,9.9375,10.0195,10.1015,10.1094,10.0312,10.1094,10.1484,10.1601,10.2383,10.2812,10.289,10.289,10.289,10.289,10.289,10.289,10.289,10.289,10.289,10.289,10.289,10.289,10.289,10.289,10.289,10.289,0.0,0.0,0.0,0.0,0.0,0.0,0.0,0.0,0.0,0.0,4.1771,4.2348,4.2765,4.1685,4.117,0.0,0.0,0.0,0.0,0.0,0.0,0.0,0.0,0.0,4.6289,4.7617,4.9297,5.1406,5.3398,5.4922,5.5976,5.5976,5.4141,5.0781,5.0156,4.8555,0.0,0.0,0.0,0.0,4.8203,4.8906,0.0,0.0,0.0,0.0,5.3359,5.457,0.0,0.0,0.0,0.0,0.0,0.0,0.0,0.0,6.2148,6.2773,6.4844,0.0,6.8008,6.793,6.7148,6.6133,0.0,6.4023,6.3008,6.1914,6.1719,6.2578,6.5469,6.6133,6.8086,7.3515,7.5859,7.8398,8.2422,8.7304,9.1914,9.5742,9.6758,9.7383,9.8047,9.7851,9.7695,9.7695,9.7695,9.8086,9.8945,9.8984,9.9101,9.9297,9.9492,9.9844,10.0312,10.0508,10.0898,10.1601,10.1797,10.2304,10.289,10.289,10.289,10.289,10.289,10.289,10.289,10.289,10.289,10.289,10.289,10.289,10.289,10.289,10.289,10.289,0.0,0.0,0.0,0.0,0.0,0.0,0.0,0.0,0.0,0.0,4.0754,4.127,4.1309,4.0906,4.0706,0.0,0.0,0.0,0.0,0.0,0.0,0.0,0.0,4.5391,4.6289,4.7617,4.9531,5.1992,5.4219,5.6172,5.7773,5.7773,5.5703,5.1875,4.9492,4.7617,0.0,0.0,0.0,4.6445,4.8203,0.0,0.0,0.0,0.0,0.0,5.293,5.4219,0.0,5.7305,5.9023,6.039,0.0,0.0,0.0,0.0,6.1406,6.1797,6.2265,6.3984,6.5586,6.5508,6.5195,6.4765,6.4297,6.3242,6.2265,6.1797,6.1719,6.2539,6.5195,6.6992,6.9805,7.5039,7.8359,8.1875,8.6484,9.0976,9.4648,9.6875,9.7812,9.832,9.8398,9.7969,9.7695,9.7695,9.7695,9.789,9.8398,9.8398,9.8398,9.8398,9.8398,9.8633,9.9101,9.9883,10.0508,10.1015,10.1797,10.2383,10.289,10.289,10.289,10.289,10.289,10.289,10.289,10.289,10.3086,10.3515,10.3086,10.3086,10.3398,10.3008,10.289,10.289,0.0,0.0,0.0,0.0,0.0,0.0,0.0,0.0,0.0,0.0,0.0,0.0,0.0,0.0,0.0,0.0,0.0,0.0,0.0,0.0,0.0,0.0,4.4805,4.5391,4.668,4.7305,4.9297,5.2695,5.457,5.6758,5.9219,5.9609,5.7305,5.2734,4.8672,4.668,4.6289,0.0,0.0,4.6445,4.8047,0.0,0.0,0.0,0.0,0.0,0.0,0.0,0.0,5.6953,5.8711,6.0195,6.0078,0.0,0.0,0.0,0.0,0.0,6.2148,6.4219,6.6211,6.6445,6.6055,6.5586,6.5586,6.3789,6.2109,6.2109,6.2305,6.3242,6.5625,6.8594,7.2109,7.6562,8.0547,8.5078,9.0703,9.3633,9.5586,9.6562,9.7929,9.8554,9.7969,9.7773,9.7695,9.7695,9.7695,9.7695,9.7695,9.7695,9.7695,9.7695,9.7695,9.7773,9.789,9.9375,10.0195,10.0508,10.1992,10.2812,10.289,10.289,10.289,10.289,10.289,10.2812,10.2695,10.2695,10.3086,10.3711,10.3008,10.3203,10.3906,10.3203,10.289,10.289,0.0,0.0,0.0,0.0,0.0,0.0,0.0,0.0,0.0,0.0,0.0,0.0,0.0,0.0,0.0,0.0,0.0,0.0,0.0,0.0,0.0,4.3867,4.3906,4.5351,4.8437,4.7891,4.9297,5.2695,5.5195,5.7344,5.9258,6.1406,5.9336,5.3672,5.0859,4.8359,4.6289,4.6289,0.0,4.6406,4.7383,0.0,0.0,0.0,0.0,0.0,0.0,0.0,0.0,5.5351,5.7344,5.9258,5.8515,0.0,0.0,0.0,0.0,0.0,6.4219,6.6875,6.8164,6.539,6.5156,6.5586,6.5586,6.4726,6.3906,6.3906,6.5078,6.7734,7.3125,7.5156,7.7656,8.2695,8.5312,8.8047,9.1875,9.4023,9.5781,9.7344,9.7734,9.8125,9.875,9.8125,9.7695,9.7695,9.7695,9.7695,9.7695,9.7695,9.7695,9.7695,9.7695,9.8047,9.8789,9.9062,9.9922,10.1406,10.1719,10.2187,10.289,10.289,10.289,10.289,10.289,10.25,10.1797,10.1797,10.1914,10.1992,10.1914,10.2304,10.3086,10.289,10.289,10.289,0.0,0.0,0.0,0.0,0.0,0.0,0.0,0.0,0.0,0.0,0.0,0.0,0.0,0.0,0.0,0.0,0.0,0.0,0.0,0.0,4.3203,4.5039,4.5547,4.6797,4.8867,4.9375,5.1367,5.4805,5.7383,5.9531,6.1211,6.0078,5.7305,5.3164,5.0156,4.7851,4.6289,4.6289,4.6289,4.6367,0.0,0.0,0.0,0.0,0.0,0.0,0.0,0.0,0.0,0.0,5.6719,5.8515,5.8594,0.0,0.0,0.0,0.0,0.0,6.3047,6.539,6.7539,6.8281,7.0195,7.1875,7.1875,7.1562,7.0586,6.8242,6.914,7.164,7.582,7.8047,8.1719,8.9258,9.1133,9.2539,9.5,9.6054,9.6836,9.7617,9.8125,9.8359,9.8281,9.7929,9.7695,9.7695,9.7695,9.7695,9.7695,9.7695,9.7695,9.7695,9.7695,9.8359,9.9687,9.9687,10.0312,10.1601,10.2109,10.25,10.289,10.289,10.289,10.289,10.289,10.2383,10.1601,10.1601,10.1914,10.2304,10.2304,10.3086,10.4219,10.3789,10.3281,10.289,0.0,0.0,0.0,0.0,0.0,0.0,0.0,0.0,0.0,0.0,0.0,0.0,0.0,0.0,0.0,0.0,0.0,0.0,0.0,4.2148,4.3594,4.5586,4.7109,4.8672,5.0351,5.1445,5.3711,5.7226,5.957,6.1601,6.3203,5.9101,5.5703,5.2851,4.9648,4.75,4.6289,4.6289,4.6289,4.6367,0.0,0.0,0.0,0.0,0.0,0.0,0.0,0.0,0.0,0.0,0.0,0.0,0.0,0.0,0.0,6.0547,6.1015,6.1836,6.2461,6.4492,6.7461,7.1562,7.3984,7.5859,7.7656,7.7305,7.5859,7.332,7.418,7.6289,7.9101,8.1875,8.6054,9.3125,9.4648,9.5508,9.7187,9.7578,9.7695,9.7695,9.8281,9.8437,9.7773,9.7695,9.7695,9.7695,9.7695,9.7695,9.7695,9.7695,9.7695,9.7695,9.7695,9.8554,10.0312,10.0312,10.0781,10.1914,10.2617,10.289,10.289,10.289,10.289,10.289,10.289,10.2304,10.1289,10.1719,10.2109,10.2304,10.2695,10.3711,10.4804,10.4101,10.3594,10.3203,0.0,0.0,0.0,0.0,0.0,0.0,0.0,0.0,0.0,0.0,0.0,0.0,0.0,0.0,0.0,0.0,0.0,0.0,0.0,4.2695,4.3672,4.3867,4.7031,5.0703,5.4765,5.418,5.5508,5.9023,6.0742,6.25,6.414,6.0625,5.7187,5.3789,5.1172,4.8633,4.6289,4.6289,4.6289,4.6328,4.6367,0.0,0.0,0.0,0.0,0.0,0.0,0.0,0.0,0.0,0.0,0.0,0.0,0.0,5.9492,6.0195,6.1015,6.2226,6.4648,6.7187,6.9961,7.3515,7.2187,7.1836,7.9062,7.7656,7.5586,7.8476,8.0429,8.2695,8.6133,8.9492,9.1719,9.1601,9.2929,9.4609,9.6328,9.7226,9.7695,9.7695,9.7773,9.7773,9.7695,9.7695,9.7695,9.7695,9.7695,9.7695,9.7695,9.7695,9.7695,9.7695,9.7695,9.8554,10.0312,10.0312,10.1094,10.2812,10.289,10.289,10.289,10.289,10.289,10.289,10.289,10.1914,10.0508,10.2109,10.1914,10.0586,10.2304,10.3008,10.3086,10.3008,10.3515,10.3984,0.0,0.0,0.0,0.0,0.0,0.0,0.0,0.0,0.0,0.0,0.0,0.0,0.0,0.0,0.0,0.0,0.0,0.0,0.0,4.2226,4.3633,4.5234,4.7617,5.0391,5.3594,5.5469,5.8125,6.1562,6.3281,6.3633,6.2617,5.918,5.6015,5.3047,4.9961,4.8359,4.7851,4.6758,4.6914,4.7812,4.6758,4.6601,0.0,0.0,0.0,0.0,0.0,0.0,0.0,0.0,5.4765,5.6289,5.7265,5.9023,6.0703,6.0469,6.0625,6.1211,6.2773,6.625,7.0273,7.375,7.4414,7.5703,8.1328,8.3437,8.4101,8.3789,8.5117,8.6679,8.8008,9.1523,9.3945,9.3047,9.3906,9.5117,9.6328,9.7187,9.7695,9.7695,9.7695,9.7695,9.7695,9.7695,9.7695,9.7695,9.7695,9.7695,9.7695,9.7695,9.7695,9.7695,9.7695,9.8281,9.9492,10.0,10.0898,10.2109,10.2617,10.289,10.289,10.289,10.289,10.289,10.289,10.2187,10.1211,10.1797,10.1719,10.1289,10.3008,10.3711,10.3711,10.3711,10.3906,10.4101,0.0,0.0,0.0,0.0,0.0,0.0,0.0,0.0,0.0,0.0,0.0,0.0,0.0,0.0,0.0,0.0,0.0,0.0,4.1094,4.1914,4.332,4.5391,4.7422,4.9687,5.2226,5.5976,5.918,6.1797,6.3789,6.3594,6.1211,5.8086,5.5508,5.3398,5.0195,4.9297,4.9961,4.7969,4.7812,4.8789,4.7305,4.707,0.0,0.0,0.0,0.0,0.0,0.0,0.0,0.0,5.4101,5.5625,5.6992,5.8828,6.0508,6.043,6.1562,6.2851,6.293,6.6523,7.1055,7.4219,7.6328,7.8828,8.3398,8.5859,8.7187,8.7383,8.875,8.9844,8.957,9.1953,9.3789,9.3164,9.4023,9.5078,9.5976,9.7031,9.7695,9.7695,9.7695,9.7695,9.7695,9.7695,9.7695,9.7695,9.7695,9.7695,9.7695,9.7695,9.7695,9.7695,9.7695,9.8125,9.8984,9.9844,10.0703,10.1601,10.25,10.289,10.289,10.289,10.289,10.289,10.289,10.2383,10.1601,10.1914,10.1992,10.2109,10.3281,10.3984,10.4219,10.3906,10.4101,10.4414,0.0,0.0,0.0,0.0,0.0,0.0,0.0,0.0,0.0,0.0,0.0,0.0,0.0,0.0,0.0,0.0,0.0,0.0,4.1094,4.1914,4.2773,4.3672,4.6172,4.875,5.1289,5.5586,5.8281,5.9219,6.1719,6.207,6.0312,5.7773,5.6094,5.5156,5.2578,5.1875,5.2539,5.0,4.8906,4.8867,4.7969,4.7617,4.7695,0.0,0.0,0.0,0.0,0.0,0.0,0.0,5.3398,5.3476,5.7812,5.8594,5.8242,5.9922,6.4101,6.7773,6.6055,6.875,7.2695,7.5273,7.7265,7.9922,8.5039,8.3554,8.2773,8.875,9.1406,9.2344,9.1445,9.1328,9.1328,9.1289,9.2773,9.4219,9.5078,9.664,9.7695,9.7695,9.7695,9.7695,9.7695,9.7695,9.7695,9.7695,9.7695,9.7695,9.7695,9.7695,9.7695,9.7695,9.7695,9.8125,9.8984,9.9844,10.0703,10.1601,10.25,10.289,10.289,10.289,10.289,10.289,10.289,10.2383,10.1719,10.25,10.289,10.289,10.289,10.3398,10.4101,10.3203,10.3984,10.5195,0.0,0.0,0.0,0.0,0.0,0.0,0.0,0.0,0.0,0.0,0.0,0.0,0.0,0.0,0.0,0.0,0.0,0.0,4.1094,4.1328,4.2148,4.3633,4.5039,4.6406,4.7773,5.0898,5.4961,6.0039,6.0234,5.9453,5.7695,5.5703,5.4648,5.4336,5.293,5.2461,5.2578,5.0625,5.0156,5.0586,4.9766,4.9062,4.8594,0.0,0.0,0.0,0.0,0.0,0.0,0.0,0.0,0.0,5.5859,5.7539,5.914,6.082,6.2851,6.4687,6.539,7.0976,0.0,7.6758,8.1289,8.5937,8.6875,8.6328,8.625,8.8594,9.1953,9.3594,9.0898,9.1875,9.2734,9.1484,9.2773,9.4219,9.5078,9.664,9.7695,9.7695,9.7695,9.7695,9.7695,9.7695,9.7695,9.7695,9.7695,9.7695,9.7695,9.7695,9.7695,9.7695,9.7695,9.7812,9.8086,9.8945,9.9804,10.0703,10.1601,10.2304,10.289,10.289,10.289,10.289,10.289,10.2383,10.1601,10.1914,10.2304,10.289,10.289,10.3086,10.3203,10.2304,10.3086,10.4297,0.0,0.0,0.0,0.0,0.0,0.0,0.0,0.0,0.0,0.0,4.0508,4.0562,0.0,0.0,0.0,0.0,0.0,0.0,4.1089,4.1406,4.2226,4.3633,4.4531,4.5898,4.7812,5.0039,5.3047,5.6836,5.7031,5.6601,5.5547,5.5195,5.5234,5.5547,5.5351,5.5078,5.4648,5.2578,5.1992,5.2344,5.1523,5.0898,5.0469,0.0,0.0,0.0,0.0,0.0,0.0,0.0,0.0,0.0,5.4414,5.6328,5.8633,6.1015,6.4765,6.8515,7.0234,7.6015,0.0,8.2578,8.5547,8.8281,8.8437,8.875,8.914,8.9648,9.2656,9.457,9.2461,9.3086,9.3672,9.2969,9.3711,9.4726,9.5586,9.6875,9.7695,9.7695,9.7695,9.7695,9.7695,9.7695,9.7695,9.7695,9.7695,9.7695,9.7695,9.7695,9.7695,9.7695,9.7695,9.7695,9.7695,9.8554,9.9453,10.0312,10.1211,10.2109,10.289,10.289,10.289,10.289,10.289,10.2383,10.1601,10.1992,10.2187,10.2383,10.2383,10.2812,10.3281,10.1992,10.2695,10.3984,0.0,0.0,0.0,0.0,0.0,0.0,0.0,0.0,0.0,4.0508,4.0508,4.0562,0.0,0.0,0.0,4.0947,4.0976,4.0991,4.1108,4.191,4.2773,4.3672,4.4687,4.6758,5.0,5.1484,5.1836,5.1055,5.2812,5.3711,5.3906,5.5586,5.6914,5.793,5.8711,5.8515,5.7383,5.4844,5.3711,5.3594,5.2851,5.2578,5.2578,5.2578,0.0,0.0,0.0,0.0,0.0,0.0,0.0,0.0,5.3437,5.5078,5.7031,6.0469,6.793,7.5508,7.75,8.1953,8.6875,9.0234,8.9492,0.0,9.0,9.1015,9.1562,9.125,9.332,9.5156,9.5,9.4453,9.4258,9.4961,9.5195,9.5586,9.6406,9.7187,9.7695,9.7695,9.7695,9.7695,9.7695,9.7695,9.7695,9.7695,9.7695,9.7695,9.7695,9.7695,9.7695,9.7695,9.7695,9.7695,9.7695,9.8476,9.9375,10.0312,10.1094,10.1992,10.289,10.289,10.289,10.289,10.2812,10.2383,10.1797,10.25,10.2304,10.1601,10.1719,10.2617,10.3789,10.2187,10.2695,10.4101,0.0,0.0,0.0,0.0,0.0,0.0,0.0,0.0,4.0508,4.0508,4.0508,4.0508,4.0562,4.0562,0.0,4.0754,4.0821,4.0873,4.0991,4.1871,4.2773,4.3672,4.5859,4.7695,4.9141,4.8867,4.8594,4.8437,5.0156,5.168,5.3008,5.4062,5.5742,5.789,5.8086,5.6953,5.4726,5.2773,5.1601,5.1055,5.1484,5.168,5.168,5.168,5.0625,0.0,0.0,0.0,0.0,0.0,0.0,0.0,5.3437,5.4258,5.5234,5.8711,6.4062,6.9648,7.3398,7.9687,8.5859,8.8594,9.039,9.1797,9.2812,9.375,9.3594,9.0859,9.289,9.4765,9.3398,9.4101,9.4765,9.4258,9.5312,9.6289,9.6484,9.7187,9.7695,9.7695,9.7695,9.7695,9.7695,9.7695,9.7695,9.7695,9.7695,9.7695,9.7695,9.7695,9.7695,9.7695,9.7695,9.7695,9.7695,9.789,9.875,10.0312,10.0508,10.1406,10.289,10.289,10.289,10.289,10.2187,10.2187,10.2617,10.2109,10.1797,10.1719,10.2383,10.2383,10.2109,10.1719,10.2304,10.3203,0.0,0.0,0.0,0.0,0.0,0.0,0.0,0.0,4.0508,4.0508,4.0508,4.0508,4.0508,4.0508,0.0,0.0,4.0715,4.0818,4.0928,4.1835,4.293,4.4258,4.6445,4.7617,4.7656,4.7617,4.7383,4.6992,4.7891,4.9609,5.2109,5.2969,5.5,5.789,5.789,5.6445,5.3906,5.2578,5.1797,5.1445,5.1836,5.2031,5.1992,5.1562,5.0117,4.8359,4.8789,0.0,0.0,0.0,0.0,0.0,0.0,0.0,5.4687,5.8164,6.3164,6.8906,7.5273,8.1172,8.6328,8.9726,9.1601,9.2812,9.3711,9.457,9.4804,9.3398,9.457,9.5429,9.4101,9.4609,9.5039,9.4609,9.5625,9.664,9.7031,9.7422,9.7695,9.7695,9.7695,9.7695,9.7695,9.7695,9.7695,9.7695,9.7695,9.7695,9.7695,9.7695,9.7695,9.7695,9.7695,9.7695,9.7695,9.7695,9.8554,10.0312,10.0312,10.1211,10.289,10.289,10.289,10.289,10.2383,10.25,10.289,10.2383,10.2187,10.2187,10.2304,10.2304,10.2187,10.2187,10.2812,10.3594,0.0,0.0,0.0,0.0,0.0,0.0,0.0,0.0,0.0,4.0508,4.0508,4.0508,4.0508,4.0508,4.0562,0.0,0.0,0.0,4.0879,4.1756,4.3164,4.5156,4.6601,4.7187,4.6758,4.7305,4.7266,4.6523,4.6367,4.8125,0.0,5.2344,5.457,5.789,5.7578,5.6094,5.3711,5.2539,5.1953,5.1836,5.1836,5.1914,5.1953,5.1094,4.9453,4.7617,4.7617,4.7617,4.7851,4.9609,0.0,0.0,0.0,0.0,5.4141,5.7187,6.2226,6.8515,7.625,8.207,8.7031,9.1484,9.2617,9.2851,9.3906,9.4687,9.5469,9.6328,9.6367,9.6094,9.5547,9.5312,9.5234,9.539,9.6133,9.6953,9.7617,9.7695,9.7695,9.7695,9.7695,9.7695,9.7695,9.7695,9.7695,9.7695,9.7695,9.7695,9.7695,9.7695,9.7695,9.7695,9.7695,9.7695,9.7695,9.7851,9.8711,10.0312,10.0586,10.1484,10.289,10.289,10.289,10.289,10.289,10.289,10.289,10.289,10.2812,10.2617,10.1992,10.2304,10.289,10.3086,10.3711,10.4609,0.0,0.0,0.0,0.0,0.0,0.0,0.0,0.0,0.0,0.0,4.0508,4.0508,4.0508,4.0562,4.06,4.06,4.0716,4.0781,4.0826,0.0,0.0,4.6016,4.6367,4.7148,4.8516,4.793,4.7539,4.7422,4.668,4.8437,0.0,0.0,0.0,5.7812,5.6328,5.4609,5.2734,5.0391,4.8984,4.8281,4.8281,4.8711,4.9297,4.8437,4.7891,4.7617,4.7617,4.7617,4.7851,4.9609,5.0195,0.0,0.0,0.0,5.1992,5.3203,5.7305,6.2344,6.6523,7.6172,8.6289,9.1328,9.2617,9.3047,9.4648,9.5117,9.5469,9.6328,9.5898,9.5586,9.6211,9.5703,9.5469,9.6211,9.6992,9.7578,9.7695,9.7695,9.7695,9.7695,9.7695,9.7695,9.7695,9.7695,9.7695,9.7695,9.7695,9.7695,9.7695,9.7695,9.7695,9.7695,9.7695,9.7695,9.7695,9.8437,9.9336,10.0312,10.1797,10.2695,10.289,10.289,10.289,10.289,10.289,10.289,10.289,10.289,10.25,10.1797,10.25,10.2812,10.3008,10.3711,10.4609,10.5508,0.0,0.0,0.0,0.0,0.0,0.0,0.0,0.0,0.0,0.0,0.0,4.0562,4.0562,4.06,4.0592,4.0602,4.064,4.0745,4.0887,4.1744,4.2812,4.4062,4.457,4.5195,4.5976,4.5625,4.5664,4.6133,4.5742,0.0,0.0,5.2695,5.457,0.0,0.0,5.4062,5.1836,4.9766,4.8398,4.7617,4.7617,4.9258,5.1445,4.8672,4.8789,5.0156,4.7734,4.6875,4.7148,4.8867,4.9453,4.9687,5.0976,0.0,0.0,0.0,5.4297,5.8008,6.6797,7.6875,8.5898,9.0117,9.1875,9.3047,9.4804,9.5195,9.5586,9.6914,9.6133,9.5156,9.5078,9.5117,9.5312,9.5703,9.6875,9.7695,9.7695,9.7695,9.7695,9.7695,9.7695,9.7695,9.7695,9.7695,9.7695,9.7695,9.7695,9.7695,9.7695,9.7695,9.7695,9.7695,9.7695,9.7929,9.8437,9.8828,9.9687,10.1015,10.2812,10.3594,10.3594,10.3594,10.3398,10.289,10.289,10.289,10.289,10.289,10.2695,10.2383,10.2812,10.289,10.3086,10.4414,10.5195,10.5586,0.0,0.0,0.0,0.0,0.0,0.0,0.0,0.0,0.0,0.0,0.0,4.0622,4.0622,0.0,0.0,0.0,4.0642,4.0733,4.0926,4.1549,4.2031,4.2344,4.3008,4.3476,4.3711,4.3711,4.4141,4.5,0.0,0.0,5.3047,5.3047,5.5,0.0,5.6719,5.4492,0.0,0.0,0.0,4.832,4.8984,5.1133,5.3789,5.1914,5.2773,5.4414,5.0117,0.0,0.0,0.0,4.9219,4.9453,5.0703,5.0664,0.0,0.0,0.0,5.5273,6.7148,7.5234,8.1679,8.7304,8.9844,9.1719,9.4531,9.5195,9.5625,9.7109,9.6406,9.5273,9.4375,9.4765,9.5351,9.5781,9.6875,9.7695,9.7695,9.7695,9.7695,9.7695,9.7695,9.7695,9.7695,9.7695,9.7773,9.8008,9.7812,9.7812,9.8008,9.7812,9.7695,9.7695,9.789,9.8359,9.8984,9.9453,10.039,10.1914,10.3203,10.3906,10.3906,10.4101,10.3789,10.3203,10.3008,10.289,10.289,10.289,10.289,10.289,10.289,10.3008,10.3398,10.4687,10.5312,10.5586,0.0,0.0,0.0,0.0,0.0,0.0,0.0,0.0,0.0,0.0,0.0,4.0604,4.0604,4.0642,4.0681,4.0693,4.0693,4.0714,4.081,4.0959,4.1445,4.2266,4.2422,0.0,4.3672,4.3711,4.4141,4.5,0.0,0.0,5.3945,5.3945,5.6211,6.0195,5.8515,5.6328,5.375,0.0,0.0,5.0273,5.2695,5.3789,5.4492,5.918,6.1094,6.0664,0.0,0.0,0.0,0.0,0.0,0.0,5.0234,5.0234,5.0234,0.0,0.0,0.0,6.3515,6.6875,7.0625,8.2265,8.5859,8.8047,9.3867,9.5195,9.5469,9.6367,9.6484,9.6172,9.5273,9.5156,9.5703,9.7304,9.7656,9.7695,9.7695,9.7695,9.7695,9.7695,9.7695,9.7695,9.7695,9.7695,9.8047,9.8867,9.8164,9.8047,9.8906,9.8164,9.7695,9.7695,9.8515,9.8945,9.8984,10.0586,10.1914,10.2812,10.289,10.3008,10.3008,10.3789,10.4219,10.4101,10.3281,10.289,10.289,10.289,10.289,10.289,10.289,10.3398,10.4101,10.4219,10.4804,10.5508,0.0,0.0,0.0,0.0,0.0,0.0,0.0,0.0,0.0,0.0,0.0,0.0,0.0,4.1609,4.139,4.0822,4.0776,4.0815,4.0926,4.1014,4.1212,4.1562,4.1601,4.1797,4.2109,4.2109,4.2773,0.0,0.0,4.6719,5.1562,5.2656,5.4297,5.6328,5.6836,5.6211,5.4648,5.1836,0.0,0.0,5.539,5.8984,6.164,6.3515,0.0,0.0,0.0,0.0,0.0,0.0,0.0,0.0,0.0,5.1562,4.9375,4.9375,5.1758,5.5508,6.082,6.5312,6.9961,7.5976,8.1015,8.5234,8.7969,9.1601,9.4609,9.5508,9.6094,9.6562,9.6758,9.6367,9.6211,9.6836,9.7344,9.7695,9.7695,9.7695,9.7695,9.7695,9.7695,9.7695,9.7695,9.7695,9.7812,9.8125,9.789,9.7851,9.8164,9.7851,9.7969,9.8515,9.8828,9.9531,10.0703,10.1797,10.2617,10.289,10.3515,10.3711,10.3789,10.4609,10.5,10.5,10.4687,10.4297,10.3711,10.3711,10.3398,10.289,10.289,10.3086,10.3398,10.3984,10.4414,10.4687,0.0,0.0,0.0,0.0,0.0,0.0,0.0,0.0,4.1631,4.2167,0.0,0.0,0.0,0.0,4.2228,4.1364,4.1285,4.1197,4.0982,4.1038,4.1123,4.1172,4.1172,4.1211,4.1211,4.1445,4.2148,0.0,0.0,0.0,0.0,5.1211,5.2773,5.4453,5.4726,5.5195,0.0,0.0,0.0,5.2461,0.0,0.0,6.4258,0.0,0.0,0.0,0.0,0.0,0.0,0.0,0.0,0.0,0.0,5.3711,4.9297,4.8984,5.1719,5.543,5.8008,6.2265,6.707,7.1719,7.5898,8.0156,8.5078,8.9062,9.2422,9.4726,9.6094,9.7148,9.7969,9.7695,9.7226,9.6953,9.7344,9.7695,9.7695,9.7695,9.7812,9.8086,9.8125,9.8242,9.8554,9.8554,9.8554,9.8554,9.8281,9.8125,9.8125,9.7851,9.8242,9.9414,9.9726,10.0586,10.1992,10.2617,10.289,10.289,10.3515,10.3789,10.3789,10.4687,10.5117,10.5117,10.539,10.5195,10.4609,10.4297,10.3906,10.3281,10.3008,10.289,10.3008,10.3594,10.3789,10.3789,0.0,0.0,0.0,0.0,0.0,0.0,4.2422,0.0,4.2344,4.2383,0.0,0.0,0.0,0.0,0.0,4.233,4.2252,4.1885,4.1015,4.1055,4.1094,4.1094,4.1172,4.125,4.125,4.2031,4.2461,4.2461,4.418,4.6328,4.8828,4.9726,5.1914,5.5,5.2539,5.332,5.6523,0.0,5.6758,5.5937,0.0,6.3711,6.207,0.0,0.0,0.0,7.4453,7.4453,0.0,7.3789,0.0,0.0,6.3125,5.625,5.0039,4.9219,5.1367,5.4219,0.0,0.0,0.0,6.9531,7.0508,7.2695,8.5312,8.7656,8.8672,9.3945,9.6328,9.7773,9.8828,9.8984,9.8711,9.789,9.7773,9.7734,9.7695,9.7695,9.8008,9.8867,9.8984,9.9336,10.0195,10.0312,10.0312,10.0312,9.9531,9.9023,9.8984,9.8203,9.8515,10.0195,10.1094,10.1992,10.289,10.289,10.289,10.289,10.289,10.289,10.289,10.3789,10.4219,10.4219,10.5117,10.5508,10.539,10.4609,10.4219,10.4101,10.3203,10.289,10.289,10.289,10.289,10.289,0.0,0.0,0.0,0.0,0.0,4.3359,4.3359,4.332,4.3555,0.0,0.0,0.0,4.4648,4.4521,4.4387,4.4114,4.3564,4.2837,4.1953,4.1445,4.1172,4.1172,4.1758,4.207,4.207,4.2891,4.3633,4.4297,4.4766,4.5703,4.7031,4.8555,4.9766,5.0703,5.1836,5.2891,5.3711,5.2734,0.0,0.0,6.3086,6.8008,0.0,0.0,0.0,0.0,0.0,8.4414,8.289,0.0,7.8672,6.8555,0.0,5.2891,5.0273,5.0625,5.2734,5.5117,5.6015,0.0,0.0,0.0,0.0,0.0,7.4297,7.7461,8.1445,8.9726,9.1328,9.2773,9.8047,9.8984,9.914,9.9531,9.9062,9.8437,9.7773,9.7695,9.7773,9.8047,9.8633,9.9101,9.9336,9.9922,10.0312,10.0312,10.0117,9.9687,9.9023,9.8789,9.8867,9.9336,10.0781,10.1719,10.1992,10.2617,10.289,10.289,10.289,10.289,10.289,10.3789,10.4219,10.4219,10.5117,10.5508,10.539,10.4609,10.3789,10.3203,10.3008,10.289,10.289,10.289,10.289,10.289,0.0,0.0,4.4453,4.5195,4.5312,4.5312,4.5312,4.5312,4.5508,0.0,0.0,0.0,4.6641,4.7226,4.7031,4.5547,4.5,4.4219,4.2969,4.2148,4.1875,4.2226,4.2344,4.2578,4.293,4.3789,4.4297,4.4453,4.5195,4.5625,4.5781,4.7187,4.8008,4.8398,4.9531,5.082,5.2031,0.0,0.0,0.0,6.4492,0.0,0.0,7.9726,8.3828,0.0,0.0,0.0,8.6875,9.125,8.4804,0.0,0.0,5.6719,5.4219,5.2851,5.4609,5.6953,5.7109,5.875,6.0547,6.1172,0.0,0.0,7.2344,7.5234,7.9219,8.9062,9.0976,9.2422,9.7539,9.8164,9.8359,9.957,9.9336,9.8945,9.8828,9.8164,9.7969,9.8711,9.8906,9.914,9.9492,10.0312,10.0703,10.0312,10.0586,10.0508,9.9609,9.9883,9.9922,9.9531,10.1211,10.1992,10.1601,10.25,10.289,10.289,10.289,10.289,10.289,10.3398,10.3711,10.3711,10.4219,10.4414,10.4414,10.3906,10.3594,10.3398,10.3008,10.289,10.289,10.289,10.289,10.289,0.0,0.0,4.582,4.7461,4.7891,4.8047,4.8164,4.8164,4.8203,0.0,4.832,4.8672,4.9648,5.082,5.0312,4.7266,4.6641,4.5742,4.4101,4.3086,4.2891,4.3672,4.3047,4.3047,4.3828,4.4687,4.4766,4.3984,4.5547,4.5898,4.5156,4.5937,4.6719,4.7422,4.6641,4.8086,5.1055,4.9844,0.0,5.9101,6.6211,6.8789,0.0,0.0,8.1758,8.125,8.8125,8.9179,8.8164,9.3437,8.914,0.0,0.0,0.0,0.0,0.0,5.7265,5.9687,5.8594,5.9492,6.1211,6.3437,6.2344,0.0,7.4453,7.625,7.8476,8.8515,9.0976,9.2265,9.5273,9.5429,9.5508,9.6914,9.7773,9.8672,9.9844,9.8672,9.8281,9.9844,9.9414,9.9336,10.0195,10.1094,10.1289,10.0508,10.1211,10.1289,10.0508,10.1094,10.1094,10.0312,10.1914,10.2383,10.1601,10.25,10.289,10.289,10.289,10.289,10.289,10.289,10.289,10.289,10.289,10.289,10.289,10.289,10.3398,10.3984,10.3203,10.289,10.289,10.289,10.289,10.289,4.5898,4.6601,4.7422,4.8476,4.9766,5.0898,5.1601,5.1719,5.1953,5.2656,5.2734,5.3359,5.4922,5.3516,5.2187,5.1523,4.8945,4.6914,4.5859,4.4336,4.3516,4.3672,4.4219,4.457,4.4726,4.5586,4.5976,4.5781,4.6133,4.6211,4.6055,4.6211,4.6406,4.6562,4.6367,4.7461,4.9492,5.1211,0.0,6.2265,6.5195,0.0,7.7812,8.3359,8.8164,9.2148,9.3633,9.4336,9.375,8.8828,8.6289,8.3164,0.0,0.0,0.0,6.207,0.0,6.3867,6.1562,6.1719,6.2461,0.0,0.0,0.0,6.6367,6.6406,6.8125,7.6406,7.6562,7.707,8.3125,8.5273,8.5976,8.5625,9.0234,9.4883,9.7812,9.789,9.7812,9.8164,9.8672,9.9336,10.0195,10.1094,10.1484,10.1406,10.1484,10.1484,10.1406,10.0781,10.0508,10.0312,10.1289,10.1797,10.1601,10.25,10.289,10.289,10.289,10.289,10.289,10.289,10.289,10.289,10.289,10.289,10.289,10.289,10.3008,10.3086,10.3008,10.289,10.289,10.289,10.289,10.2812,4.6289,4.7344,4.8633,4.9922,5.1562,5.3125,5.4453,5.4648,5.4805,5.5234,5.6055,5.6601,5.6601,5.582,5.4609,5.2851,5.0742,4.8789,4.707,4.5703,4.5,4.5,4.5,4.5195,4.5625,4.6094,4.6289,4.6289,4.6289,4.6289,4.6289,4.6289,4.7656,5.0039,4.7891,4.9336,5.3359,0.0,5.6172,6.2148,6.7344,0.0,8.0937,8.6133,9.0234,9.3359,9.4258,9.5117,9.4844,8.8398,8.5898,0.0,0.0,7.3672,7.164,0.0,6.5547,6.5664,0.0,0.0,0.0,6.3555,0.0,0.0,0.0,6.6523,6.7695,7.5039,7.4453,7.4219,7.9414,8.0039,8.0195,8.1445,8.6367,9.0039,9.0039,9.4844,9.8672,9.9531,9.9648,9.9804,10.0312,10.0703,10.1094,10.1601,10.1601,10.1797,10.2187,10.1797,10.1406,10.1015,10.1797,10.1992,10.1601,10.25,10.289,10.289,10.289,10.289,10.289,10.289,10.289,10.289,10.289,10.289,10.289,10.289,10.289,10.289,10.289,10.2617,10.2304,10.2304,10.1992,10.1484,4.6484,4.7695,4.9375,5.0898,5.3008,5.5039,5.6601,5.7109,5.7383,5.7578,5.9101,5.9883,5.914,5.9258,5.8437,5.6133,5.4531,5.2422,4.9531,4.8359,4.7773,4.7773,4.6172,4.5976,4.75,4.6719,4.6289,4.6289,4.6289,4.6289,4.6289,4.6289,4.8594,5.2656,5.0,0.0,0.0,0.0,0.0,6.3748,0.0,7.6014,8.0036,8.6873,8.9724,9.0388,9.2968,9.4336,9.4179,8.9179,8.6797,8.5234,8.1445,7.8086,0.0,0.0,0.0,0.0,0.0,0.0,0.0,0.0,0.0,6.5078,0.0,0.0,0.0,7.418,7.3594,7.2969,7.5703,7.4844,7.4414,7.668,8.1367,8.3672,8.0508,8.8984,9.6172,9.7929,9.8828,9.9258,9.9062,9.9219,9.9961,10.1484,10.1015,10.1289,10.2812,10.289,10.2617,10.1914,10.25,10.2617,10.1914,10.25,10.289,10.289,10.289,10.289,10.289,10.289,10.289,10.289,10.289,10.289,10.289,10.289,10.2812,10.2617,10.2617,10.2187,10.1601,10.1406,10.0898,10.0312,4.6484,4.7695,4.9219,5.0156,5.3633,5.664,5.7617,5.9023,6.0234,6.1015,6.2656,6.4805,6.7734,6.6055,0.0,0.0,0.0,5.9961,5.5859,5.4023,5.3125,5.3125,4.8633,4.7969,5.1875,4.8242,4.6289,4.6289,4.6289,4.6289,4.6289,4.6289,4.7031,4.8476,5.1797,0.0,0.0,0.0,6.4723,0.0,7.4896,7.4574,0.0,8.3939,8.6828,8.6366,9.1912,9.3945,9.3398,0.0,8.8359,8.8047,0.0,8.0351,8.1836,7.3008,0.0,0.0,0.0,0.0,0.0,0.0,6.7187,0.0,0.0,0.0,6.4531,6.3789,0.0,6.3281,6.3672,0.0,0.0,6.3047,6.9609,7.4258,7.2305,7.8398,8.3672,8.5429,9.164,9.5469,9.4687,9.5312,9.7383,10.1289,9.8789,9.8789,10.2695,10.289,10.289,10.2812,10.2812,10.289,10.2812,10.289,10.289,10.289,10.289,10.289,10.289,10.289,10.289,10.289,10.289,10.289,10.289,10.289,10.2383,10.1719,10.1719,10.1719,10.1484,10.0703,10.039,10.0195,4.6367,4.8125,4.9766,5.0156,5.2891,5.5742,5.7617,6.0195,6.2031,6.2422,6.3515,6.5039,0.0,0.0,0.0,0.0,0.0,6.289,0.0,0.0,5.6367,5.3398,5.0234,4.9414,5.1211,4.8476,4.6797,4.6289,4.6289,4.6289,4.6289,4.6289,4.8633,5.293,5.5703,0.0,6.4258,0.0,6.7164,0.0,0.0,0.0,0.0,8.42,8.8455,8.8305,9.1887,9.3158,9.2851,0.0,8.8592,0.0,0.0,0.0,0.0,7.664,0.0,0.0,0.0,0.0,0.0,0.0,0.0,0.0,6.4297,0.0,6.2734,0.0,0.0,0.0,0.0,0.0,0.0,0.0,6.7031,6.9922,6.668,7.3476,7.9805,8.2539,8.5742,8.8945,9.2109,9.1797,9.3828,9.9648,9.5508,9.5039,10.039,10.1601,10.2109,10.2109,10.2617,10.289,10.289,10.289,10.289,10.289,10.289,10.289,10.289,10.289,10.289,10.289,10.289,10.2617,10.2109,10.2109,10.1601,10.0781,10.0312,10.0117,10.0,9.9687,9.9219,9.875,4.6601,4.8398,4.9844,4.9844,5.2344,5.5312,5.8164,6.0703,6.2539,6.3242,6.4101,0.0,6.7812,6.6953,0.0,0.0,7.082,6.8437,0.0,0.0,6.125,5.914,5.3594,0.0,5.4375,5.0156,4.7539,4.6641,4.6406,4.6523,4.6992,4.6758,4.9687,5.5312,5.8164,6.3241,6.9642,0.0,7.1011,7.3447,7.4005,7.4538,7.6028,8.5116,8.9177,9.0218,9.1975,9.2278,9.183,9.1623,8.8619,8.5582,8.9062,8.4883,7.8945,0.0,0.0,0.0,7.2617,0.0,0.0,0.0,0.0,0.0,0.0,0.0,0.0,0.0,0.0,0.0,0.0,0.0,0.0,0.0,0.0,6.6406,6.2773,6.8437,7.4062,7.6992,7.9023,8.2383,8.7929,8.6484,8.8437,9.6289,9.1523,9.1406,9.8594,10.039,10.1406,10.1601,10.2187,10.2695,10.289,10.2695,10.2695,10.289,10.289,10.289,10.289,10.289,10.289,10.289,10.2617,10.2187,10.1601,10.1289,10.0703,9.9883,9.9258,9.8867,9.8633,9.8633,9.8242,9.7695,4.7383,4.832,4.8945,4.8945,5.2422,5.6406,5.9805,6.039,6.1406,6.3945,6.5039,0.0,0.0,0.0,0.0,0.0,0.0,7.9414,7.6836,0.0,6.9219,7.4922,5.9883,5.5664,0.0,5.4414,4.8437,4.7578,4.6719,4.7148,4.8789,4.7969,4.8984,5.1836,5.7734,6.2842,6.7273,7.1377,7.8422,8.6572,8.4089,8.5605,8.9015,0.0,8.706,9.0218,9.1975,0.0,8.9945,8.9125,8.8696,8.8006,8.4879,8.4804,0.0,0.0,0.0,0.0,0.0,0.0,0.0,7.1953,0.0,0.0,0.0,0.0,6.5,0.0,0.0,0.0,0.0,0.0,0.0,0.0,0.0,0.0,0.0,0.0,0.0,0.0,7.0781,0.0,8.0898,7.8281,8.0547,9.0781,8.6758,8.8242,9.8476,9.9844,10.0703,10.1601,10.1601,10.1992,10.289,10.2109,10.2109,10.289,10.289,10.289,10.289,10.289,10.289,10.289,10.1992,10.1601,10.1484,10.0703,9.9844,9.9023,9.9023,9.8476,9.7734,9.7734,9.7734,9.7695,4.9258,5.0,5.0195,4.9101,5.1484,5.4765,5.8203,6.0664,0.0,0.0,0.0,0.0,0.0,7.7969,7.9961,0.0,0.0,8.2734,8.0703,7.5742,0.0,0.0,0.0,5.9922,0.0,5.7422,5.2148,5.0117,4.9297,4.918,4.9726,4.8867,5.0117,5.3398,5.9414,6.581,0.0,0.0,0.0,0.0,0.0,8.5449,8.8383,8.95,8.9573,8.9359,9.1101,9.1369,9.0804,9.0531,8.9657,8.8781,8.9393,8.7219,8.4648,8.5508,8.4531,8.3008,8.2109,8.3125,8.2929,7.6601,7.457,7.2578,0.0,0.0,0.0,0.0,0.0,0.0,0.0,0.0,0.0,0.0,0.0,0.0,0.0,0.0,0.0,0.0,0.0,0.0,0.0,0.0,8.0117,8.8164,8.664,8.8828,9.6914,9.8125,9.9492,10.1484,10.1601,10.1719,10.1992,10.2304,10.2304,10.1992,10.2617,10.289,10.289,10.289,10.289,10.289,10.2617,10.1797,10.0703,10.039,9.9453,9.8125,9.8125,9.7969,9.7695,9.7695,9.7695,9.7695,5.1016,5.125,5.1055,4.9961,5.2187,5.5234,5.8711,6.2695,0.0,0.0,7.2305,0.0,7.9297,0.0,8.2695,0.0,8.6562,8.539,8.3359,8.0078,0.0,7.9062,7.0312,0.0,0.0,6.2969,5.7383,5.5078,5.2383,5.125,5.1523,5.0664,5.1758,5.4687,5.9492,6.6123,7.3875,7.7043,8.1304,0.0,0.0,8.7049,8.9047,9.1233,9.0296,8.811,9.0789,9.1135,9.0452,9.1077,9.0564,8.9918,9.1623,8.9677,8.7146,8.8828,8.7734,8.5898,8.5508,8.6445,8.6211,8.082,7.9023,7.6836,7.0273,0.0,6.9219,0.0,0.0,0.0,0.0,0.0,0.0,0.0,0.0,0.0,0.0,5.8711,0.0,0.0,0.0,0.0,0.0,0.0,0.0,8.6211,8.3945,0.0,0.0,9.7265,9.875,10.1094,10.1406,10.1601,10.1601,10.1797,10.1992,10.2109,10.2304,10.2617,10.289,10.289,10.289,10.289,10.2617,10.1797,10.0703,10.039,9.9648,9.8594,9.8281,9.8359,9.8554,9.7929,9.7695,9.7695,5.2656,5.2226,5.1758,5.1836,5.4609,5.789,6.125,0.0,6.9531,0.0,7.4961,7.9023,8.0039,8.2383,8.5234,8.8554,8.8789,8.7734,8.5312,8.3398,0.0,0.0,7.8515,7.7187,8.2304,0.0,0.0,6.1953,5.5859,5.3281,5.4062,5.3164,5.3672,5.539,5.8008,6.3935,7.2359,7.6497,8.2912,9.0179,9.0172,9.0641,9.1311,9.135,8.9242,8.6776,9.096,9.0882,8.9086,9.0726,9.133,9.1353,9.1405,9.1988,9.2684,9.2734,9.2734,9.2187,8.9687,8.8476,8.7265,8.4648,8.2656,8.0234,7.6015,7.6328,7.7031,0.0,0.0,0.0,0.0,0.0,0.0,0.0,0.0,0.0,0.0,0.0,0.0,0.0,0.0,0.0,0.0,0.0,0.0,0.0,0.0,0.0,0.0,9.6953,9.8203,10.0195,10.1094,10.1484,10.1484,10.0703,10.1094,10.2812,10.1992,10.2109,10.289,10.289,10.289,10.289,10.1992,10.1601,10.1484,10.0703,10.0312,10.0195,9.9375,9.957,10.0117,9.8398,9.7734,9.7695,5.4726,5.5508,5.6601,5.7851,5.8828,6.0156,0.0,0.0,0.0,0.0,7.7812,8.1914,8.5937,8.7578,8.8984,9.0508,9.0039,0.0,0.0,0.0,0.0,8.9453,8.1781,7.9572,8.4146,7.3632,0.0,6.5586,5.8867,5.539,5.4961,5.4062,5.4258,5.539,5.7344,6.371,7.3119,7.5506,8.2857,9.2807,9.2814,9.2209,9.1389,9.1975,9.0452,8.8337,9.0765,9.1194,9.0687,9.1155,9.1708,9.2384,9.3015,9.3387,9.3671,9.4336,9.4531,9.4375,9.3711,9.3398,9.2617,8.9961,8.7578,8.5039,8.1992,8.164,8.1445,7.9726,8.0351,0.0,0.0,0.0,0.0,0.0,0.0,0.0,0.0,0.0,0.0,0.0,0.0,0.0,0.0,0.0,0.0,0.0,0.0,0.0,9.5078,9.2656,9.3867,10.0117,9.9883,9.9961,10.0586,9.9765,9.9883,10.1015,10.1406,10.2109,10.289,10.289,10.289,10.289,10.2695,10.2187,10.1601,10.1406,10.0898,10.0312,10.0117,10.0117,10.0195,9.9062,9.8242,9.7773,5.6601,5.8437,6.043,6.1367,6.3398,6.5234,6.6211,6.8984,0.0,7.5469,7.9883,0.0,8.5664,8.8359,9.0195,9.0703,9.0273,0.0,8.7304,0.0,0.0,8.788,8.5429,8.5176,8.7635,8.0094,0.0,7.0781,6.3906,5.914,5.6406,5.5156,5.4842,5.5384,5.7493,6.2493,6.9796,7.6469,8.3577,9.0572,9.2105,9.2124,0.0,9.1819,9.1311,9.0492,9.1467,9.1585,9.1311,9.1311,9.1624,9.2131,9.26,9.3015,9.3507,9.4375,9.4648,9.4726,9.5117,9.5195,9.4844,9.3359,9.2226,9.0547,8.7187,8.6679,8.6679,8.5703,8.4883,8.4492,0.0,0.0,0.0,0.0,0.0,0.0,0.0,0.0,0.0,0.0,0.0,0.0,0.0,0.0,0.0,0.0,0.0,0.0,0.0,0.0,9.2109,9.9492,9.8554,9.832,9.914,9.8672,9.9062,10.0312,10.1211,10.1914,10.2304,10.2695,10.289,10.289,10.289,10.2617,10.2187,10.2187,10.1914,10.1406,10.1406,10.1015,10.0312,10.0195,9.957,9.8906,5.8672,6.1133,6.3398,6.3476,6.7578,7.1094,0.0,7.3828,0.0,7.6758,0.0,8.4687,8.3281,8.7226,9.0,9.0,9.0,8.8436,8.4686,8.7943,8.8383,8.4785,8.893,9.135,9.1467,8.7205,8.1959,0.0,6.9179,6.3046,5.7538,5.6015,5.5228,5.5235,5.7777,6.1568,6.6761,7.8706,8.5065,8.7354,9.0406,9.1616,9.1624,9.1507,9.1897,9.2482,9.2482,9.2053,9.1467,9.1467,9.1467,9.1467,9.1585,9.2131,9.2925,9.3783,9.414,9.4374,9.5156,9.5429,9.5547,9.5547,9.6094,9.5664,9.1875,9.1601,9.2148,9.2148,8.8554,8.7344,9.3554,0.0,0.0,0.0,0.0,0.0,0.0,0.0,0.0,0.0,0.0,0.0,0.0,0.0,0.0,0.0,0.0,0.0,0.0,0.0,9.0781,9.8281,9.7187,9.6797,9.7383,9.7578,9.8398,9.9804,10.1015,10.1601,10.1601,10.25,10.289,10.289,10.289,10.289,10.289,10.289,10.2812,10.2695,10.2695,10.1797,10.0586,10.1406,10.1289,10.0586,6.1992,6.375,6.5351,6.6094,6.9297,7.3203,7.7461,7.8515,7.9648,8.1953,8.5039,8.7187,8.7539,8.9023,9.0,9.0,8.9986,0.0,0.0,0.0,0.0,8.9945,9.0804,9.1624,9.2287,8.8064,8.256,0.0,7.0319,6.3572,5.5762,5.5446,5.4931,5.4337,5.6883,6.4306,7.5282,8.1808,8.7621,9.2514,9.3107,9.3341,9.3263,9.2561,9.2365,9.2482,9.2482,9.2404,9.2287,9.2287,9.2287,9.2404,9.3146,9.3458,9.3778,9.4649,9.5391,9.5988,9.6132,9.6719,9.7265,9.7265,9.7383,9.7304,9.6523,9.6484,9.6562,9.6562,9.5859,9.457,9.2383,8.5117,0.0,0.0,0.0,0.0,0.0,0.0,0.0,0.0,0.0,0.0,0.0,0.0,0.0,0.0,0.0,0.0,0.0,0.0,8.5078,0.0,9.6289,9.6211,9.5625,9.6992,9.7539,9.7187,10.0195,10.1601,10.1601,10.25,10.289,10.289,10.289,10.289,10.289,10.289,10.25,10.1797,10.1797,10.1601,10.1484,10.2383,10.2617,10.2304,6.6758,0.0,0.0,0.0,0.0,0.0,8.1081,8.3226,8.4365,8.4296,8.5351,8.6289,8.6679,8.8705,8.9986,8.9986,9.0003,8.9984,8.9984,8.9984,9.0179,9.0609,9.1077,9.1467,9.1858,9.0726,8.5605,7.645,7.3119,6.6375,5.6571,5.5708,5.5083,5.4927,6.0592,6.7351,7.4965,8.2807,8.7837,9.068,9.2912,9.3537,9.3068,9.2678,9.2482,9.2482,9.2482,9.2482,9.2482,9.2482,9.2482,9.2561,9.299,9.3146,9.3302,9.4161,9.4708,9.5261,9.6149,9.6715,9.7148,9.7578,9.7695,9.7695,9.7695,9.7695,9.7695,9.7695,9.7695,9.6094,9.0898,8.5039,0.0,0.0,0.0,0.0,0.0,0.0,0.0,0.0,0.0,0.0,0.0,0.0,0.0,0.0,0.0,0.0,0.0,0.0,8.3554,0.0,0.0,9.4922,9.5859,9.6679,9.6875,9.6523,9.9961,10.1406,10.1015,10.2304,10.289,10.289,10.289,10.289,10.289,10.2383,10.1719,10.1015,10.1406,10.1601,10.1719,10.2617,10.2617,10.2187,0.0,7.1914,0.0,0.0,7.8476,8.1084,8.4206,8.7283,8.8519,8.6518,8.6247,8.6247,8.6247,8.8841,9.0492,9.0296,9.0413,9.0531,9.0531,9.0531,9.0531,9.0531,9.1194,9.1546,9.1546,9.3029,8.8845,7.8753,7.6326,6.9855,5.9655,5.743,5.7157,5.8875,6.5629,7.1134,7.578,8.3536,8.7596,8.9047,9.2248,9.3107,9.2522,9.2717,9.2795,9.2795,9.299,9.2912,9.2795,9.2795,9.2639,9.2482,9.2482,9.2482,9.2639,9.3302,9.3654,9.4083,9.5488,9.6114,9.6562,9.7265,9.7578,9.7695,9.7695,9.7695,9.7695,9.7695,9.7695,9.5976,9.0312,8.6523,0.0,0.0,0.0,0.0,0.0,0.0,0.0,0.0,0.0,0.0,0.0,0.0,0.0,0.0,0.0,0.0,8.3711,0.0,0.0,0.0,9.3008,9.2422,9.4297,9.5937,9.6562,9.6289,9.9883,10.1094,10.039,10.2109,10.289,10.289,10.289,10.2812,10.2617,10.1719,10.0898,10.039,10.1094,10.1406,10.1719,10.2383,10.2187,10.1719,0.0,0.0,0.0,8.2304,8.4206,8.6008,8.7915,8.9828,9.096,9.0732,9.0693,9.0693,9.0693,9.1708,9.2053,9.1233,9.1858,9.2287,9.2287,9.2287,9.2287,9.2287,9.2326,9.2404,9.2404,9.3302,9.0602,8.4068,7.9254,7.3134,6.5868,6.1807,6.3252,6.9303,7.0084,7.6242,8.591,8.5293,8.8181,9.3185,9.2795,9.2561,9.26,9.338,9.3693,9.3771,9.4552,9.4356,9.3693,9.3693,9.3146,9.2482,9.2482,9.2482,9.2522,9.26,9.3185,9.3849,9.4005,9.5202,9.6437,9.6484,9.7109,9.7695,9.7695,9.7695,9.7695,9.7695,9.7695,9.6328,9.1875,9.3242,9.2226,0.0,0.0,0.0,0.0,0.0,0.0,0.0,0.0,0.0,0.0,0.0,0.0,0.0,0.0,0.0,0.0,0.0,0.0,8.9297,8.8515,8.7734,8.7187,9.4101,9.6836,9.5351,9.9609,10.1094,10.039,10.2109,10.289,10.289,10.289,10.25,10.1719,10.0781,10.039,10.0312,10.039,10.0898,10.1601,10.1719,10.1719,10.1484,8.3281,8.3274,8.3804,8.6889,8.7576,8.8572,9.135,9.2795,9.3576,9.3576,9.2678,9.2014,9.2014,9.2795,9.3185,9.2834,9.3576,9.4044,9.4044,9.4044,9.381,9.3302,9.3771,9.3576,9.2522,9.3849,9.1389,8.4817,8.014,7.4597,6.8323,6.6605,6.8913,7.4686,7.8311,8.2443,8.6815,8.975,9.2365,9.4512,9.3615,9.3576,9.4044,9.3849,9.4122,9.463,9.4981,9.4864,9.4591,9.4591,9.3654,9.2482,9.2482,9.2482,9.2482,9.2482,9.2756,9.3146,9.3654,9.4682,9.5753,9.6288,9.707,9.7695,9.7695,9.7695,9.7695,9.7695,9.7695,9.7187,9.5469,9.375,9.2383,9.164,0.0,0.0,0.0,0.0,0.0,0.0,0.0,0.0,0.0,0.0,0.0,0.0,0.0,0.0,0.0,0.0,0.0,8.4687,9.0078,9.1719,8.9297,9.4375,9.664,9.6015,9.875,10.0117,10.0312,10.1601,10.2109,10.2109,10.2109,10.1289,10.0117,10.0195,10.0,9.957,10.0117,10.0781,10.1601,10.1601,10.1289,10.0703,8.851,8.8173,8.8447,9.1382,9.1382,9.1773,9.42,9.4864,9.5098,9.5098,9.4044,9.3263,9.3263,9.381,9.4161,9.4161,9.4747,9.5098,9.5098,9.5098,9.4825,9.42,9.4786,9.4395,9.2912,9.4083,9.2326,8.744,8.2631,7.8221,7.4285,7.3002,7.5462,8.1089,8.5097,8.7713,8.9398,9.338,9.5098,9.5059,9.4434,9.4552,9.5066,9.4708,9.4942,9.5527,9.5762,9.5684,9.5488,9.5488,9.4473,9.3263,9.3263,9.3107,9.2873,9.2873,9.2717,9.2639,9.3263,9.4239,9.5307,9.616,9.7264,9.8164,9.8398,9.8476,9.8398,9.8125,9.789,9.7695,9.7695,9.4726,9.2969,9.5078,9.3633,0.0,0.0,9.5312,0.0,0.0,0.0,0.0,8.9336,0.0,0.0,0.0,0.0,0.0,0.0,0.0,0.0,0.0,0.0,0.0,9.0547,9.4258,9.6367,9.6875,9.832,9.9336,9.9961,10.1094,10.1719,10.1992,10.1719,10.0781,9.9414,9.9765,9.9726,9.9453,10.0117,10.1015,10.1914,10.1406,10.0781,10.0117,9.2046,9.3139,9.4232,9.5996,9.6308,9.6308,9.6347,9.5645,9.5098,9.5098,9.5098,9.5059,9.5066,9.5066,9.5059,9.5098,9.5098,9.5098,9.5098,9.5098,9.5098,9.5098,9.5098,9.4708,9.3802,9.381,9.3771,9.3693,8.7674,8.5137,8.58,8.157,8.3256,8.9828,8.9008,9.1507,9.6237,9.5449,9.5098,9.5098,9.5098,9.5098,9.5183,9.6035,9.6386,9.6503,9.7362,9.7128,9.6386,9.6386,9.5801,9.5059,9.5059,9.4473,9.3771,9.3771,9.3185,9.2482,9.2522,9.3771,9.5293,9.6191,9.768,9.9219,10.0117,10.0312,10.0,9.914,9.8281,9.7695,9.7695,9.7656,9.5976,9.0898,9.4336,9.4961,0.0,9.0,0.0,8.6797,7.8008,7.6328,8.6523,7.4297,0.0,0.0,0.0,0.0,0.0,0.0,0.0,8.8398,8.7148,0.0,8.8711,9.3047,9.6054,9.7695,9.8594,9.9023,9.9062,10.0781,10.2109,10.2812,10.1992,10.1094,10.0195,9.9375,9.9531,10.0312,10.0312,10.1406,10.2695,10.1015,10.0312,10.0117,9.6386,9.705,9.733,9.7284,9.7284,9.7284,9.7284,9.705,9.6855,9.6855,9.6855,9.6855,9.6855,9.6347,9.5996,9.5996,9.6542,9.6855,9.6855,9.6855,9.6621,9.5996,9.6542,9.6191,9.4708,9.5254,9.53,9.4676,8.9821,8.7908,8.8728,8.7362,8.9477,9.4317,9.3458,9.4317,9.6386,9.6113,9.6347,9.6816,9.623,9.6347,9.6855,9.6503,9.6777,9.7323,9.7597,9.7518,9.7284,9.7284,9.7089,9.6855,9.6855,9.5879,9.4552,9.3966,9.3615,9.3263,9.2678,9.3771,9.5293,9.6191,9.7689,9.9238,10.0116,10.0312,10.0117,9.9179,9.8789,9.8398,9.7812,9.7695,9.6992,9.4804,9.6758,9.7109,9.2929,0.0,9.582,9.2695,9.0195,9.0234,9.4062,8.4922,0.0,0.0,0.0,0.0,0.0,0.0,0.0,0.0,9.1523,0.0,9.0508,9.4219,9.664,9.7695,9.7969,9.8437,9.9023,10.0195,10.0508,10.0195,9.9961,9.9336,9.8594,9.9492,10.0,10.0312,10.0312,10.1015,10.1797,10.0117,9.9414,9.9258,9.7602,9.8026,9.8111,9.7362,9.7479,9.7714,9.7714,9.7714,9.7714,9.7714,9.7714,9.7714,9.7714,9.7206,9.6894,9.6894,9.7401,9.7714,9.7714,9.7714,9.744,9.6894,9.7401,9.705,9.5606,9.6113,9.5957,9.5098,9.2436,9.1382,9.1929,9.1936,9.3537,9.6386,9.584,9.6074,9.6894,9.6894,9.7206,9.7636,9.7128,9.7206,9.7636,9.7089,9.7245,9.7714,9.7714,9.7714,9.7714,9.7714,9.7714,9.7714,9.7714,9.6933,9.5918,9.502,9.4552,9.4161,9.3615,9.4512,9.5801,9.666,9.7948,9.9296,10.0507,10.0781,10.0586,10.0117,9.9453,9.8828,9.8281,9.7929,9.7539,9.7031,9.8086,9.8203,9.6015,9.789,9.7695,9.289,0.0,9.414,0.0,8.9453,8.6836,0.0,0.0,0.0,0.0,0.0,8.6289,8.8398,9.4375,9.6172,9.3281,9.539,9.6914,9.7695,9.7695,9.8164,9.9023,9.957,9.9687,9.9453,9.914,9.8867,9.875,9.9492,10.0195,10.0781,10.039,10.0781,10.1406,9.9648,9.8984,9.8867,9.6395,9.6792,9.7167,9.6582,9.7128,9.7675,9.7714,9.7714,9.7714,9.7714,9.7714,9.7714,9.7792,9.7792,9.7792,9.787,9.7753,9.7714,9.7714,9.7714,9.7714,9.7714,9.7714,9.7323,9.6503,9.6503,9.6074,9.5293,9.5293,9.5293,9.5293,9.5293,9.5723,9.6503,9.6503,9.6933,9.7714,9.7714,9.7714,9.7714,9.7714,9.7714,9.7714,9.7714,9.7714,9.7714,9.7714,9.7714,9.7714,9.7714,9.7714,9.7714,9.7714,9.7753,9.7597,9.666,9.584,9.5176,9.5137,9.5723,9.6621,9.7479,9.8455,9.9608,10.1288,10.1719,10.1719,10.1601,10.0312,9.914,9.9101,9.8398,9.7773,9.7773,9.8437,9.8359,9.6719,9.8554,9.707,8.9062,8.9492,9.0156,8.9414,8.9375,9.1562,0.0,0.0,0.0,0.0,0.0,8.5547,9.6406,9.5937,9.582,9.6562,9.6562,9.6953,9.7695,9.7773,9.8164,9.8906,9.8984,9.9414,10.0117,9.9336,9.9453,10.0195,9.9414,10.0,10.1406,10.0586,10.0703,10.1211,9.9531,9.8906,9.8789,9.7619,9.7788,9.787,9.7206,9.7245,9.744,9.7675,9.7714,9.7714,9.7714,9.7714,9.7948,9.8612,9.869,9.8963,9.9627,9.8455,9.7714,9.7714,9.7714,9.7714,9.7714,9.7714,9.7597,9.7401,9.7401,9.7284,9.7089,9.7089,9.7089,9.7089,9.7089,9.7206,9.7401,9.7401,9.7518,9.7714,9.7714,9.7714,9.7714,9.7714,9.7714,9.7714,9.7714,9.7714,9.7714,9.7714,9.7714,9.7714,9.7714,9.7714,9.7714,9.7714,9.8143,9.8377,9.6855,9.6269,9.5957,9.5293,9.5723,9.6621,9.7479,9.9353,10.1287,10.2303,10.2617,10.2383,10.1719,10.1289,10.0781,10.0117,9.9297,9.8672,9.8672,9.832,9.7656,9.664,9.7031,9.664,9.4609,9.4726,9.5117,9.5547,9.6172,9.5234,0.0,0.0,9.3672,9.25,9.0586,9.2578,9.9179,9.8554,9.789,9.7422,9.7422,9.75,9.7695,9.8359,9.8437,9.8047,9.8711,9.875,9.8359,9.8789,9.9101,9.9336,9.9804,10.0195,10.0508,9.9648,9.9414,9.9492,9.8398,9.8008,9.7969,9.7441,9.7412,9.7458,9.7225,9.7149,9.7206,9.7362,9.744,9.7518,9.7518,9.7636,9.8026,9.8885,9.9002,9.9353,10.0212,9.908,9.8299,9.8299,9.7909,9.7714,9.7714,9.7714,9.7714,9.7714,9.7714,9.7714,9.7714,9.7714,9.7714,9.7714,9.7714,9.7714,9.7714,9.7714,9.7714,9.7714,9.7714,9.7714,9.7714,9.7714,9.7714,9.7714,9.7714,9.7714,9.7714,9.7714,9.7714,9.7714,9.7714,9.7714,9.7714,9.7714,9.8026,9.8299,9.7753,9.7597,9.7479,9.7011,9.6933,9.7206,9.8065,9.9978,10.171,10.2181,10.2616,10.2812,10.2304,10.1914,10.1484,10.1015,10.0195,9.9453,9.9062,9.8281,9.7422,9.6601,9.6484,9.6484,9.6484,9.6836,9.7383,9.8203,9.8711,9.7969,9.5508,9.5898,9.5976,9.5351,9.5078,9.6211,9.9023,9.8633,9.8164,9.7695,9.7695,9.7695,9.7695,9.8164,9.8164,9.7734,9.8203,9.8164,9.7734,9.8633,9.8984,9.9062,9.9922,10.0312,10.0195,9.9336,9.8984,9.8906,9.8008,9.7695,9.7695,9.6634,9.6557,9.6673,9.7094,9.7037,9.6992,9.7148,9.7226,9.726,9.7238,9.744,9.7987,9.8963,9.908,9.9463,10.0485,9.9783,9.9236,9.9197,9.8494,9.8026,9.7909,9.7909,9.7831,9.7714,9.7714,9.7714,9.7714,9.7714,9.7714,9.7714,9.7714,9.7714,9.7714,9.7714,9.7714,9.7714,9.7714,9.7714,9.7714,9.7714,9.7714,9.7714,9.7714,9.7714,9.7714,9.7714,9.7714,9.7714,9.7714,9.7714,9.7714,9.7831,9.7909,9.8065,9.8924,9.9197,9.9158,9.9041,9.8455,9.8143,9.9119,10.0485,10.1586,10.1811,10.2418,10.289,10.289,10.2304,10.1797,10.1797,10.1094,9.9961,9.8281,9.7851,9.7187,9.5703,9.6172,9.6719,9.6875,9.7617,9.8398,9.9101,9.9336,10.0,10.1484,10.0195,9.9922,10.1094,9.9101,9.7773,9.7539,9.7656,9.7695,9.7695,9.7695,9.7695,9.7695,9.7695,9.7695,9.7695,9.7695,9.7773,9.7929,9.8828,9.9219,9.9258,10.0,10.0195,10.0,9.914,9.8789,9.8711,9.7969,9.7695,9.7695,9.6365,9.6365,9.6634,9.7595,9.7157,9.6983,9.7903,9.7479,9.7057,9.7046,9.7089,9.7714,9.9236,9.9431,10.0095,10.1696,10.0993,10.0407,10.0095,9.9978,9.9548,9.8846,9.8807,9.8455,9.7714,9.7714,9.7714,9.7714,9.7714,9.7714,9.7714,9.7714,9.7714,9.7714,9.7714,9.7714,9.7714,9.7714,9.7714,9.7714,9.7714,9.7714,9.7714,9.7714,9.7714,9.7714,9.7714,9.7714,9.7714,9.7714,9.7714,9.7831,9.8572,9.8807,9.8963,9.9822,10.0095,9.9939,9.9197,9.8885,9.9158,10.0681,10.1383,10.1813,10.2484,10.28,10.289,10.289,10.2812,10.2695,10.2695,10.1992,9.9687,9.4453,9.5898,9.6133,9.164,9.4765,9.7773,9.8515,9.9375,9.9961,10.0117,10.0781,10.1289,10.1601,10.1289,10.0703,9.9453,9.9023,9.8164,9.6719,9.7344,9.7695,9.7695,9.7695,9.7695,9.7695,9.7695,9.7695,9.7695,9.7695,9.8086,9.8867,9.9726,10.0117,10.0117,10.0195,9.9883,9.9101,9.8242,9.789,9.789,9.7734,9.7695,9.7695,9.7633,9.7633,9.7787,9.8324,9.7673,9.725,9.7749,9.7248,9.6767,9.6771,9.7309,9.8124,9.9351,9.9925,10.0701,10.1982,10.1711,10.14,10.1284,10.0501,9.9978,9.9705,9.9236,9.8572,9.7714,9.7714,9.7714,9.7714,9.7714,9.7714,9.7714,9.7714,9.7714,9.7714,9.7714,9.7714,9.7714,9.7714,9.7714,9.7714,9.7714,9.7714,9.7714,9.7714,9.7714,9.7714,9.7714,9.7714,9.7753,9.8221,9.8104,9.7948,9.9275,9.9392,9.9158,10.0017,10.0603,10.0798,9.9939,10.0407,10.111,10.1383,10.1891,10.2281,10.2711,10.2894,10.2917,10.289,10.289,10.289,10.289,10.2617,10.0898,9.6719,9.7773,9.7773,9.4023,9.6328,9.8554,9.8945,9.9765,10.0508,10.1015,10.1406,10.1797,10.2304,10.1914,10.1015,9.9765,9.9258,9.8437,9.7187,9.75,9.7695,9.7695,9.7695,9.7695,9.7695,9.7695,9.7695,9.7695,9.7695,9.7929,9.8359,9.9219,9.9336,9.8945,9.9414,9.9101,9.8242,9.7851,9.7695,9.7695,9.7695,9.7695,9.7695,9.848,9.8518,9.8557,9.8749,9.8096,9.752,9.748,9.6942,9.6519,9.6519,9.7402,9.8364,9.9211,10.0096,10.1019,10.1789,10.1904,10.1904,10.1712,10.0609,10.0099,10.0399,9.9431,9.8494,9.7636,9.7675,9.7714,9.7714,9.7714,9.7714,9.7714,9.7714,9.7714,9.7714,9.7714,9.7714,9.7714,9.7714,9.7714,9.7714,9.7714,9.7714,9.7714,9.7948,9.7987,9.7987,9.7987,9.8143,9.8377,9.8846,9.869,9.8572,10.0095,9.9978,9.9509,10.0603,10.1305,10.1696,10.0993,10.1696,10.2398,10.1891,10.2281,10.2789,10.2789,10.2789,10.2888,10.2886,10.289,10.289,10.289,10.289,10.1797,9.8359,9.9219,9.9258,9.6328,9.7851,9.9453,9.9844,10.0508,10.1211,10.1797,10.1719,10.1914,10.25,10.1601,10.0703,10.0,9.9179,9.8398,9.7734,9.7695,9.7695,9.7695,9.7695,9.7695,9.7695,9.7695,9.7695,9.7695,9.7695,9.7812,9.8047,9.8711,9.8633,9.8047,9.8711,9.8476,9.7695,9.7695,9.7695,9.7695,9.7695,9.7695,9.7695,9.7443,9.7596,9.7827,9.8673,9.8057,9.752,9.748,9.6826,9.6326,9.6326,9.7056,9.7865,9.875,9.9634,10.048,10.1289,10.1404,10.1096,10.0596,10.0403,10.0518,10.0781,9.9392,9.8221,9.7362,9.7558,9.7714,9.7714,9.7714,9.7714,9.7714,9.7714,9.7714,9.7714,9.7714,9.7714,9.7714,9.7714,9.7714,9.7714,9.7714,9.7714,9.7792,9.8612,9.8885,9.8885,9.8885,9.9431,9.9978,9.9236,9.9509,10.029,10.111,10.0915,10.0485,10.2086,10.2711,10.2711,10.2593,10.2086,10.1813,10.2515,10.2789,10.2789,10.2789,10.2789,10.2803,10.291,10.2888,10.289,10.289,10.289,10.1015,9.5234,9.7656,9.8867,9.4687,9.7617,10.0781,10.2383,10.2695,10.2695,10.2812,10.2109,10.1601,10.1719,10.0117,9.914,9.9101,9.8281,9.7773,9.7695,9.7695,9.7695,9.7695,9.7695,9.7695,9.7695,9.7695,9.7695,9.7695,9.7695,9.8125,9.8906,9.8984,9.8945,9.8906,9.8984,9.8476,9.7695,9.7695,9.7695,9.7695,9.7695,9.7695,9.7695,9.8365,9.875,9.9057,9.8827,9.8519,9.8096,9.7595,9.6826,9.6288,9.6288,9.7479,9.8441,9.875,10.0019,10.1019,10.1289,10.1289,10.1212,10.1019,10.0519,9.9926,9.9278,9.8712,9.8004,9.712,9.7323,9.744,9.744,9.7636,9.7714,9.7714,9.7714,9.7714,9.7714,9.7714,9.7714,9.7753,9.8299,9.8494,9.8526,9.8887,9.9143,9.9345,9.9512,9.9651,9.9822,9.9822,10.0017,10.029,10.0485,10.0407,10.0485,10.1891,10.1696,10.1305,10.2515,10.2398,10.2086,10.2711,10.2593,10.2398,10.2711,10.2789,10.2789,10.2789,10.2789,10.2796,10.2888,10.2882,10.289,10.289,10.289,10.1797,9.8437,10.0117,10.1015,9.8242,10.0195,10.2187,10.2812,10.289,10.2695,10.2109,10.1797,10.1406,10.0781,9.9687,9.8984,9.8984,9.8164,9.7695,9.7695,9.7695,9.7695,9.7695,9.7695,9.7695,9.7695,9.7695,9.7695,9.7695,9.7695,9.789,9.8203,9.8203,9.8203,9.8203,9.8203,9.8008,9.7695,9.7695,9.7695,9.7695,9.7695,9.7695,9.7695,9.8902,9.9288,9.9404,9.8558,9.8404,9.8095,9.7248,9.6634,9.6288,9.6288,9.7749,9.8788,9.8788,10.0288,10.1289,10.1289,10.1289,10.1096,10.048,9.9519,9.8634,9.8096,9.8134,9.7767,9.6871,9.7082,9.7213,9.7206,9.744,9.7558,9.7597,9.7675,9.7714,9.7714,9.7987,9.8104,9.8182,9.9041,9.9376,9.9338,9.9708,9.9942,10.0099,10.02,10.0398,10.0597,10.0712,10.0915,10.111,10.1383,10.1305,10.1305,10.2398,10.2398,10.2008,10.2593,10.2398,10.2008,10.2593,10.2789,10.2789,10.2789,10.2789,10.2789,10.2789,10.2789,10.2789,10.2906,10.291,10.2889,10.289,10.289,10.25,10.1289,10.2109,10.25,10.1289,10.2109,10.289,10.289,10.289,10.2617,10.1719,10.1406,10.0781,9.9961,9.9062,9.8594,9.8594,9.8008,9.7695,9.7695,9.7695,9.7695,9.7695,9.7695,9.7695,9.7695,9.7695,9.7695,9.7695,9.7695,9.7695,9.7695,9.7695,9.7695,9.7695,9.7695,9.7695,9.7695,9.7695,9.7695,9.7695,9.7695,9.7695,9.7695,9.8786,9.8786,9.8518,9.7635,9.7481,9.7248,9.6403,9.6288,9.6288,9.6326,9.7749,9.8788,9.8788,10.0288,10.1289,10.1289,10.1289,10.0596,9.8904,9.7212,9.6634,9.7479,9.7749,9.7479,9.6596,9.6865,9.7003,9.7003,9.7199,9.7284,9.7284,9.7558,9.7714,9.7753,9.8612,9.9002,9.908,9.9939,10.0186,9.9897,9.9897,9.9755,9.9669,10.0821,10.1198,10.1213,10.1388,10.2086,10.2711,10.1813,10.2086,10.2789,10.2789,10.2789,10.2789,10.2789,10.2789,10.2789,10.2789,10.2789,10.2789,10.2789,10.2789,10.2789,10.2789,10.2789,10.2789,10.2906,10.2894,10.2882,10.289,10.289,10.289,10.289,10.289,10.289,10.289,10.289,10.289,10.289,10.289,10.25,10.1719,10.0781,9.9922,9.9062,9.8203,9.7695,9.7695,9.7695,9.7695,9.7695,9.7695,9.7695,9.7695,9.7695,9.7695,9.7695,9.7695,9.7695,9.7695,9.7695,9.7695,9.7695,9.7695,9.7695,9.7695,9.7695,9.7695,9.7695,9.7695,9.7695,9.7695,9.7695,9.7695,9.7695,9.8904,9.8826,9.8518,9.7673,9.748,9.7248,9.6403,9.6288,9.648,9.7094,9.8095,9.9018,9.9673,10.0673,10.1096,10.048,10.048,9.9711,9.8019,9.7403,9.698,9.6673,9.6711,9.6634,9.6403,9.6596,9.6695,9.6715,9.6947,9.7108,9.7089,9.7167,9.7518,9.8065,9.8533,9.8963,9.9424,10.0497,10.0806,10.0589,10.0987,10.122,10.1293,10.1505,10.1812,10.2094,10.2192,10.2499,10.2789,10.2515,10.2593,10.2789,10.2789,10.2789,10.2789,10.2789,10.2789,10.2789,10.2789,10.2789,10.2711,10.2008,10.1891,10.1696,10.1188,10.15,10.1891,10.2008,10.2504,10.2882,10.289,10.289,10.289,10.289,10.289,10.289,10.289,10.289,10.289,10.289,10.2383,10.1601,10.0781,9.9883,9.9023,9.8164,9.7851,9.7695,9.7695,9.7695,9.7695,9.7695,9.7695,9.7695,9.7695,9.7695,9.7695,9.7695,9.7695,9.7695,9.7695,9.7695,9.7695,9.7695,9.7695,9.7695,9.7695,9.7695,9.7695,9.7695,9.7695,9.7695,9.7695,9.7695,9.7695,9.7695,9.9904,9.9558,9.9057,9.8172,9.8018,9.771,9.6903,9.6749,9.6942,9.7441,9.8287,9.9135,10.0019,10.0788,10.1019,10.0211,9.9442,9.8634,9.7595,9.721,9.6788,9.6326,9.6288,9.6288,9.6288,9.6403,9.648,9.648,9.6711,9.6846,9.6838,9.6954,9.7421,9.8199,9.8724,9.9363,10.0097,10.109,10.1388,10.122,10.1632,10.1688,10.1787,10.1688,10.1891,10.2222,10.2304,10.2499,10.2694,10.2694,10.2714,10.2789,10.2789,10.2789,10.2789,10.2789,10.2789,10.2789,10.2789,10.2789,10.2593,10.1696,10.15,10.1305,10.0485,10.0915,10.1383,10.111,10.1795,10.2285,10.1914,10.1914,10.1992,10.2304,10.2383,10.25,10.289,10.2617,10.2383,10.2383,10.1601,10.0703,9.9883,9.9297,9.8633,9.7773,9.7695,9.7695,9.7695,9.7695,9.7695,9.7695,9.7695,9.7695,9.7695,9.7695,9.7695,9.7695,9.7695,9.7695,9.7695,9.7695,9.7695,9.7695,9.7695,9.7695,9.7695,9.7695,9.7695,9.7695,9.7695,9.7695,9.7695,9.7695,9.7695,9.7695,10.152,10.0788,9.9981,9.9134,9.8902,9.8518,9.7749,9.7633,9.7633,9.771,9.8404,9.925,10.0096,10.0788,10.0904,10.0096,9.8404,9.7402,9.7402,9.6711,9.6288,9.6288,9.6288,9.6288,9.6288,9.6288,9.6288,9.6288,9.648,9.6557,9.6557,9.6903,9.7479,9.8287,9.9173,10.011,10.0909,10.168,10.1912,10.1703,10.1703,10.1504,10.1289,10.1611,10.1703,10.1688,10.1996,10.2285,10.2484,10.2499,10.2593,10.2789,10.2789,10.2789,10.2789,10.2789,10.2789,10.2789,10.2789,10.2789,10.2593,10.1696,10.1383,10.1188,10.0407,10.0798,10.1188,10.0485,10.0993,10.1404,10.0584,10.039,10.0586,10.1406,10.1484,10.1914,10.2695,10.2109,10.1601,10.1601,10.0781,9.9883,9.9062,9.8945,9.8554,9.7773,9.7695,9.7695,9.7695,9.7695,9.7695,9.7695,9.7695,9.7695,9.7695,9.7695,9.7695,9.7695,9.7695,9.7695,9.7695,9.7695,9.7695,9.7695,9.7695,9.7695,9.7695,9.7695,9.7695,9.7695,9.7695,9.7695,9.7695,9.7695,9.7695,9.7695,10.329,10.2097,10.1019,10.0789,9.9634,9.875,9.8558,9.8519,9.8748,9.9441,9.9673,10.0096,10.1019,10.0596,10.0019,9.9173,9.752,9.6557,9.6557,9.6403,9.6288,9.6288,9.6288,9.6288,9.6288,9.6288,9.6288,9.6288,9.6326,9.6365,9.6365,9.7094,9.7825,9.8709,9.975,10.0596,10.1203,10.1593,10.1595,10.1404,10.1404,10.1404,10.1289,10.1366,10.1504,10.1688,10.1996,10.2285,10.2499,10.2694,10.2811,10.2789,10.2789,10.2789,10.2789,10.2789,10.2789,10.2789,10.2789,10.2789,10.2593,10.1696,10.0993,10.029,9.947,9.9939,10.0485,10.029,10.0993,10.1508,10.1404,10.0811,10.039,10.0586,10.1211,10.1719,10.1914,10.1719,10.1601,10.1601,10.0195,9.9219,9.9023,9.8398,9.789,9.7695,9.7695,9.7695,9.7695,9.7695,9.7695,9.7695,9.7695,9.7695,9.7695,9.7695,9.7695,9.7695,9.7695,9.7695,9.7695,9.7695,9.7695,9.7695,9.7695,9.7695,9.7695,9.7695,9.7695,9.7695,9.7695,9.7695,9.7695,9.7695,9.7695,9.7695,10.4405,10.3095,10.1903,10.1904,10.0904,9.9865,9.948,9.9442,9.9596,10.0019,10.0096,10.0404,10.1212,10.0596,9.9596,9.8289,9.7365,9.6865,9.6865,9.7287,9.7479,9.7479,9.7094,9.7094,9.7479,9.7094,9.6865,9.6865,9.6865,9.7094,9.7518,9.7902,9.8595,9.9442,9.9981,10.0596,10.1289,10.1404,10.1404,10.1289,10.1289,10.1289,10.1289,10.1289,10.1404,10.15,10.1807,10.2201,10.2499,10.2608,10.2714,10.2789,10.2789,10.2789,10.2789,10.2789,10.2789,10.2789,10.2789,10.2789,10.2711,10.2203,10.1188,10.0095,9.9197,9.9353,9.9548,9.9158,9.9744,10.0212,9.9822,9.9356,9.9216,9.9609,10.039,10.1094,10.1484,10.1601,10.1406,10.1015,9.9804,9.8828,9.8437,9.7969,9.7695,9.7695,9.7695,9.7695,9.7695,9.7695,9.7695,9.7695,9.7695,9.7695,9.7695,9.7695,9.7695,9.7695,9.7695,9.7695,9.7695,9.7695,9.7695,9.7695,9.7695,9.7695,9.7695,9.7695,9.7695,9.7695,9.7695,9.7695,9.7695,9.7695,9.7695,9.7695,10.4903,10.3824,10.2594,10.2597,10.1904,10.1096,10.0404,10.0288,10.0404,10.048,10.048,10.0788,10.1712,10.0904,9.9596,9.7864,9.771,9.771,9.7711,9.8403,9.8788,9.8788,9.8133,9.8056,9.8786,9.8095,9.7749,9.771,9.7749,9.8095,9.8788,9.8942,9.9404,10.0096,10.0211,10.0673,10.1289,10.1289,10.1289,10.1289,10.1289,10.1289,10.1289,10.1289,10.1289,10.1289,10.1606,10.2007,10.2484,10.2484,10.2581,10.2789,10.2789,10.2789,10.2789,10.2789,10.2789,10.2789,10.2789,10.2711,10.2593,10.2593,10.1383,10.0095,9.9197,9.9002,9.8846,9.826,9.8612,9.8768,9.8065,9.7818,9.7996,9.8867,9.9609,10.039,10.1484,10.1484,10.1094,10.039,9.9414,9.8476,9.7773,9.7695,9.7695,9.7695,9.7695,9.7695,9.7695,9.7695,9.7695,9.7695,9.7695,9.7695,9.7695,9.7695,9.7695,9.7695,9.7695,9.7695,9.7695,9.7695,9.7695,9.7695,9.7695,9.7695,9.7695,9.7695,9.7695,9.7695,9.7695,9.7695,9.7695,9.7695,9.7695,9.7695,10.4903,10.3824,10.2594,10.2597,10.1904,10.1289,10.1212,10.1096,10.1404,10.2213,10.2328,10.2597,10.3522,10.2097,10.0518,9.8786,9.8632,9.8634,9.8596,9.8711,9.8788,9.8788,9.8673,9.8673,9.8786,9.8711,9.8596,9.8632,9.8596,9.8673,9.8788,9.9558,9.9981,10.0096,10.0788,10.1212,10.1289,10.1289,10.1289,10.1289,10.1289,10.1289,10.1289,10.1289,10.1289,10.1289,10.1606,10.2007,10.2484,10.2484,10.2581,10.2789,10.2789,10.2789,10.2789,10.2789,10.2789,10.2789,10.2789,10.2203,10.1696,10.1696,10.0993,10.0095,9.9197,9.9002,9.9197,9.9822,9.9431,9.8963,9.8846,9.8228,9.7974,9.8866,9.9098,9.9759,10.1406,10.1015,10.039,10.0312,9.8867,9.7812,9.7695,9.7695,9.7695,9.7695,9.7695,9.7695,9.7695,9.7695,9.7695,9.7695,9.7695,9.7695,9.7695,9.7695,9.7695,9.7695,9.7695,9.7695,9.7695,9.7695,9.7695,9.7695,9.7695,9.7695,9.7695,9.7695,9.7695,9.7695,9.7695,9.7695,9.7695,9.7695,9.7695,9.7695,10.4405,10.3405,10.2595,10.2597,10.1904,10.1289,10.1289,10.1289,10.1597,10.252,10.2172,10.2171,10.3095,10.1673,10.0096,9.8904,9.925,9.9558,9.9558,9.9942,10.0211,10.0211,9.9788,9.975,10.0211,9.975,9.975,10.0211,9.975,9.9788,10.0211,10.0596,10.0788,10.0788,10.1096,10.1289,10.1289,10.1289,10.1289,10.1289,10.1289,10.1289,10.1289,10.1289,10.1289,10.1289,10.14,10.1807,10.2285,10.2285,10.2413,10.271,10.2811,10.2789,10.2789,10.2789,10.2789,10.2711,10.2203,10.2086,10.2086,10.1618,10.1188,10.0915,10.0485,9.9666,9.8963,9.8885,9.8533,9.826,9.826,9.7948,9.7845,9.8219,9.8696,9.9438,10.0683,10.1012,10.0781,10.039,9.875,9.7695,9.7695,9.7695,9.7695,9.7695,9.7695,9.7695,9.7695,9.7695,9.7695,9.7695,9.7695,9.7695,9.7695,9.7695,9.7695,9.7695,9.7695,9.7695,9.7695,9.7695,9.7695,9.7695,9.7695,9.7695,9.7695,9.7695,9.7695,9.7695,9.7695,9.7695,9.7695,9.7695,9.7695,9.7695]},{"header":{"parameterUnit":"m.s-1","parameterCategory":1,"la1":30.6,"la2":28.766,"lo1":-90.7593,"lo2":-88.6598,"dx":0.0162,"dy":0.0183,"nx":116,"ny":114,"refTime":"2022-11-13T06:00:00:Z","depth":0,"parameterNumber":3,"parameterNumberName":"V-component_of_WINDS"},"data":[0.0,0.0,0.0,0.0,0.0,0.0,0.0,0.0,0.0,0.0,0.0,0.0,0.0,0.0,0.0,0.0,0.0,0.0,0.0,0.0,0.0,0.0,0.0,0.0,0.0,0.0,0.0,0.0,0.0,0.0,0.0,0.0,0.0,0.0,0.0,0.0,0.0,0.0,0.0,0.0,0.0,0.0,0.0,0.0,0.0,0.0,0.0,0.0,0.0,0.0,0.0,0.0,0.0,0.0,0.0,0.0,0.0,0.0,0.0,0.0,0.0,0.0,0.0,0.0,0.0,0.0,0.0,0.0,0.0,0.0,0.0,0.0,0.0,0.0,0.0,0.0,0.0,0.0,0.0,0.0,0.0,0.0,0.0,0.0,0.0,0.0,0.0,0.0,0.0,0.0,0.0,0.0,0.0,0.0,0.0,0.0,0.0,0.0,0.0,0.0,0.0,0.0,0.0,0.0,0.0,0.0,0.0,0.0,0.0,0.0,0.0,0.0,0.0,0.0,0.0,0.0,0.0,0.0,0.0,0.0,0.0,0.0,0.0,0.0,0.0,0.0,0.0,0.0,0.0,0.0,0.0,0.0,0.0,0.0,0.0,0.0,0.0,0.0,0.0,0.0,0.0,0.0,0.0,0.0,0.0,0.0,0.0,0.0,0.0,0.0,0.0,0.0,0.0,0.0,0.0,0.0,0.0,0.0,0.0,0.0,0.0,0.0,0.0,0.0,0.0,0.0,0.0,0.0,0.0,0.0,0.0,0.0,0.0,0.0,0.0,0.0,0.0,0.0,0.0,0.0,0.0,0.0,0.0,0.0,0.0,0.0,0.0,0.0,0.0,0.0,0.0,0.0,0.0,0.0,0.0,0.0,0.0,0.0,0.0,0.0,0.0,0.0,0.0,0.0,0.0,0.0,0.0,0.0,0.0,0.0,0.0,0.0,0.0,0.0,0.0,0.0,0.0,0.0,0.0,0.0,0.0,0.0,0.0,0.0,0.0,0.0,0.0,0.0,0.0,0.0,0.0,0.0,0.0,0.0,0.0,0.0,0.0,0.0,0.0,0.0,0.0,0.0,0.0,0.0,0.0,0.0,0.0,0.0,0.0,0.0,0.0,0.0,0.0,0.0,0.0,0.0,0.0,0.0,0.0,0.0,0.0,0.0,0.0,0.0,0.0,0.0,0.0,0.0,0.0,0.0,0.0,0.0,0.0,0.0,0.0,0.0,0.0,0.0,0.0,0.0,0.0,0.0,0.0,0.0,0.0,0.0,0.0,0.0,0.0,0.0,0.0,0.0,0.0,0.0,0.0,0.0,0.0,0.0,0.0,0.0,0.0,0.0,0.0,0.0,0.0,0.0,0.0,0.0,0.0,0.0,0.0,0.0,0.0,0.0,0.0,0.0,0.0,0.0,0.0,0.0,0.0,0.0,0.0,0.0,0.0,0.0,0.0,0.0,0.0,0.0,0.0,0.0,0.0,0.0,0.0,0.0,0.0,0.0,0.0,0.0,0.0,0.0,0.0,0.0,0.0,0.0,0.0,0.0,0.0,0.0,0.0,0.0,0.0,0.0,0.0,0.0,0.0,0.0,0.0,0.0,0.0,0.0,0.0,0.0,0.0,0.0,0.0,0.0,0.0,0.0,0.0,0.0,0.0,0.0,0.0,0.0,0.0,0.0,0.0,0.0,0.0,0.0,0.0,0.0,0.0,0.0,0.0,0.0,0.0,0.0,0.0,0.0,0.0,0.0,0.0,0.0,0.0,0.0,0.0,0.0,0.0,0.0,0.0,0.0,0.0,0.0,0.0,0.0,0.0,0.0,0.0,0.0,0.0,0.0,0.0,0.0,0.0,0.0,0.0,0.0,0.0,0.0,0.0,0.0,0.0,0.0,0.0,0.0,0.0,0.0,0.0,0.0,0.0,0.0,0.0,0.0,0.0,0.0,0.0,0.0,0.0,0.0,0.0,0.0,0.0,0.0,0.0,0.0,0.0,0.0,0.0,0.0,0.0,0.0,0.0,0.0,0.0,0.0,0.0,0.0,0.0,0.0,0.0,0.0,0.0,0.0,0.0,0.0,0.0,0.0,0.0,0.0,0.0,0.0,0.0,0.0,0.0,0.0,0.0,0.0,0.0,0.0,0.0,0.0,0.0,0.0,0.0,0.0,0.0,0.0,0.0,0.0,0.0,0.0,0.0,0.0,0.0,0.0,0.0,0.0,0.0,0.0,0.0,0.0,0.0,0.0,0.0,0.0,0.0,0.0,0.0,0.0,0.0,0.0,0.0,0.0,0.0,0.0,0.0,0.0,0.0,0.0,0.0,0.0,0.0,0.0,0.0,0.0,0.0,0.0,0.0,0.0,0.0,0.0,0.0,0.0,0.0,0.0,0.0,0.0,0.0,0.0,0.0,0.0,0.0,0.0,0.0,0.0,0.0,0.0,0.0,0.0,0.0,0.0,0.0,0.0,0.0,0.0,0.0,0.0,0.0,0.0,0.0,0.0,0.0,0.0,0.0,0.0,0.0,0.0,0.0,0.0,0.0,0.0,0.0,0.0,0.0,0.0,0.0,0.0,0.0,0.0,0.0,0.0,0.0,0.0,0.0,0.0,0.0,0.0,0.0,0.0,0.0,0.0,0.0,0.0,0.0,0.0,0.0,0.0,0.0,0.0,0.0,0.0,0.0,0.0,0.0,0.0,0.0,0.0,0.0,0.0,0.0,0.0,0.0,0.0,0.0,0.0,0.0,0.0,0.0,0.0,0.0,0.0,0.0,0.0,0.0,0.0,0.0,0.0,0.0,0.0,0.0,0.0,0.0,0.0,0.0,0.0,0.0,0.0,0.0,0.0,0.0,0.0,0.0,0.0,0.0,0.0,0.0,0.0,0.0,0.0,0.0,0.0,0.0,0.0,0.0,0.0,0.0,0.0,0.0,0.0,0.0,0.0,0.0,0.0,0.0,0.0,0.0,0.0,0.0,0.0,0.0,0.0,0.0,0.0,0.0,0.0,0.0,0.0,0.0,0.0,0.0,0.0,0.0,0.0,0.0,0.0,0.0,0.0,0.0,0.0,0.0,0.0,0.0,0.0,0.0,0.0,0.0,0.0,0.0,0.0,0.0,0.0,0.0,0.0,0.0,0.0,0.0,0.0,0.0,0.0,0.0,0.0,0.0,0.0,0.0,0.0,0.0,0.0,0.0,0.0,0.0,0.0,0.0,0.0,0.0,0.0,0.0,0.0,0.0,0.0,0.0,0.0,0.0,0.0,0.0,0.0,0.0,0.0,0.0,0.0,0.0,0.0,0.0,0.0,0.0,0.0,0.0,0.0,0.0,0.0,0.0,0.0,0.0,0.0,0.0,0.0,0.0,0.0,0.0,0.0,0.0,0.0,0.0,0.0,0.0,0.0,0.0,0.0,0.0,0.0,0.0,0.0,0.0,0.0,0.0,0.0,0.0,0.0,0.0,0.0,0.0,0.0,0.0,0.0,0.0,0.0,0.0,0.0,0.0,0.0,0.0,0.0,0.0,0.0,0.0,0.0,0.0,0.0,0.0,0.0,0.0,0.0,0.0,0.0,0.0,0.0,0.0,0.0,0.0,0.0,0.0,0.0,0.0,0.0,0.0,0.0,0.0,0.0,0.0,0.0,0.0,0.0,0.0,0.0,0.0,0.0,0.0,0.0,0.0,0.0,0.0,0.0,0.0,0.0,0.0,0.0,0.0,0.0,0.0,0.0,0.0,0.0,0.0,0.0,0.0,0.0,0.0,0.0,0.0,0.0,0.0,0.0,0.0,0.0,0.0,0.0,0.0,0.0,0.0,0.0,0.0,0.0,0.0,0.0,0.0,0.0,0.0,0.0,0.0,0.0,0.0,0.0,0.0,0.0,0.0,0.0,0.0,0.0,0.0,0.0,0.0,0.0,0.0,0.0,0.0,0.0,0.0,0.0,0.0,0.0,0.0,0.0,0.0,0.0,0.0,0.0,0.0,0.0,0.0,0.0,0.0,0.0,0.0,0.0,0.0,0.0,0.0,0.0,0.0,0.0,0.0,0.0,0.0,0.0,0.0,0.0,0.0,0.0,0.0,0.0,0.0,0.0,0.0,0.0,0.0,0.0,0.0,0.0,0.0,0.0,0.0,0.0,0.0,0.0,0.0,0.0,0.0,0.0,0.0,0.0,0.0,0.0,0.0,0.0,0.0,0.0,0.0,0.0,0.0,0.0,0.0,0.0,0.0,0.0,0.0,0.0,0.0,0.0,0.0,0.0,0.0,0.0,0.0,0.0,0.0,0.0,0.0,0.0,0.0,0.0,0.0,0.0,0.0,0.0,0.0,0.0,0.0,0.0,0.0,0.0,0.0,0.0,0.0,0.0,0.0,0.0,0.0,0.0,0.0,0.0,0.0,0.0,0.0,0.0,0.0,0.0,0.0,0.0,0.0,0.0,0.0,0.0,0.0,0.0,0.0,0.0,0.0,0.0,0.0,0.0,0.0,0.0,0.0,0.0,0.0,0.0,0.0,0.0,0.0,0.0,0.0,0.0,0.0,0.0,0.0,0.0,0.0,0.0,0.0,0.0,0.0,0.0,0.0,0.0,0.0,0.0,0.0,0.0,0.0,0.0,0.0,0.0,0.0,0.0,0.0,0.0,0.0,0.0,0.0,0.0,0.0,0.0,0.0,0.0,0.0,0.0,0.0,0.0,0.0,0.0,0.0,0.0,0.0,0.0,0.0,0.0,0.0,0.0,0.0,0.0,0.0,0.0,0.0,0.0,0.0,0.0,0.0,0.0,0.0,0.0,0.0,0.0,0.0,0.0,0.0,0.0,0.0,0.0,0.0,0.0,0.0,0.0,0.0,0.0,0.0,0.0,0.0,0.0,0.0,0.0,0.0,0.0,0.0,0.0,0.0,0.0,0.0,0.0,0.0,0.0,0.0,0.0,0.0,0.0,0.0,0.0,0.0,0.0,0.0,0.0,0.0,0.0,0.0,0.0,0.0,0.0,0.0,0.0,0.0,0.0,0.0,0.0,0.0,0.0,0.0,0.0,0.0,0.0,0.0,0.0,0.0,0.0,0.0,0.0,0.0,0.0,0.0,0.0,0.0,0.0,0.0,0.0,0.0,0.0,0.0,0.0,0.0,0.0,0.0,0.0,0.0,0.0,0.0,0.0,0.0,0.0,0.0,0.0,0.0,0.0,0.0,0.0,0.0,0.0,0.0,0.0,0.0,0.0,0.0,0.0,0.0,0.0,0.0,0.0,0.0,0.0,0.0,0.0,0.0,0.0,0.0,0.0,0.0,0.0,0.0,0.0,0.0,0.0,0.0,0.0,0.0,0.0,0.0,0.0,0.0,0.0,0.0,0.0,0.0,0.0,0.0,0.0,0.0,0.0,0.0,0.0,0.0,0.0,0.0,0.0,0.0,0.0,0.0,0.0,0.0,0.0,0.0,0.0,0.0,0.0,0.0,0.0,0.0,0.0,0.0,0.0,0.0,0.0,0.0,0.0,0.0,0.0,0.0,0.0,0.0,0.0,0.0,0.0,0.0,0.0,0.0,0.0,0.0,0.0,0.0,0.0,0.0,0.0,0.0,0.0,0.0,0.0,0.0,0.0,0.0,0.0,0.0,0.0,0.0,0.0,0.0,0.0,0.0,0.0,0.0,0.0,0.0,0.0,0.0,0.0,0.0,0.0,0.0,0.0,0.0,0.0,0.0,0.0,0.0,0.0,0.0,0.0,0.0,0.0,0.0,0.0,0.0,0.0,0.0,0.0,0.0,0.0,0.0,0.0,0.0,0.0,0.0,0.0,0.0,0.0,0.0,0.0,0.0,0.0,0.0,0.0,0.0,0.0,0.0,0.0,0.0,0.0,0.0,0.0,0.0,0.0,0.0,0.0,0.0,0.0,0.0,0.0,0.0,0.0,0.0,0.0,0.0,0.0,0.0,0.0,0.0,0.0,0.0,0.0,0.0,0.0,0.0,0.0,0.0,0.0,0.0,0.0,0.0,0.0,0.0,0.0,0.0,0.0,0.0,0.0,0.0,0.0,0.0,0.0,0.0,0.0,0.0,0.0,0.0,0.0,0.0,0.0,0.0,0.0,0.0,0.0,0.0,0.0,-0.8313,-0.7575,0.0,0.0,0.0,0.0,0.0,0.0,0.0,0.0,0.0,0.0,0.0,0.0,0.0,0.0,0.0,0.0,0.0,0.0,0.0,0.0,0.0,0.0,0.0,-0.3598,-0.3576,-0.3576,-0.3623,0.0,0.0,0.0,0.0,0.0,0.0,0.0,-0.3931,-0.3745,-0.3595,-0.3604,-0.3815,-0.3341,-0.2189,-0.201,-0.1909,-0.1803,0.0,0.0,0.0,0.0,0.0,0.0,0.0,0.0,0.0,0.0,0.0,0.0,0.0,0.0,0.0,0.0,0.0,0.0,0.0,0.0,0.0,0.0,0.0,0.0,0.0,0.0,0.0,0.0,0.0,0.0,0.0,0.0,0.0,0.0,0.0,0.0,0.0,0.0,0.0,0.0,0.0,0.0,0.0,0.0,0.0,0.0,0.0,0.0,0.0,0.0,0.0,0.0,0.0,0.0,0.0,0.0,0.0,0.0,0.0,0.0,0.0,0.0,0.0,0.0,0.0,0.0,0.0,0.0,0.0,0.0,-0.8548,-0.8233,0.0,0.0,0.0,0.0,0.0,0.0,0.0,0.0,0.0,0.0,0.0,0.0,0.0,0.0,0.0,0.0,0.0,0.0,0.0,0.0,0.0,-0.3656,-0.3719,-0.3753,-0.3705,-0.3702,-0.3751,-0.3867,-0.4256,-0.4296,0.0,0.0,0.0,0.0,-0.4282,-0.3934,-0.3742,-0.3832,-0.368,-0.2328,0.0,0.0,0.0,0.0,0.0,0.0,0.0,0.0,0.0,0.0,0.0,0.0,0.0,0.0,0.0,0.0,0.0,0.0,0.0,0.0,0.0,0.0,0.0,0.0,0.0,0.0,0.0,0.0,0.0,0.0,0.0,0.0,0.0,0.0,0.0,0.0,0.0,0.0,0.0,0.0,0.0,0.0,0.0,0.0,0.0,0.0,0.0,0.0,0.0,0.0,0.0,0.0,0.0,0.0,0.0,0.0,0.0,0.0,0.0,0.0,0.0,0.0,0.0,0.0,0.0,0.0,0.0,0.0,-0.8889,-0.8965,-0.8965,-0.8981,-0.916,-0.9416,-0.8899,-0.9024,-0.9503,-0.8149,0.0,0.0,0.0,0.0,0.0,0.0,0.0,0.0,0.0,0.0,0.0,0.0,0.0,0.0,0.0,0.0,0.0,0.0,0.0,-0.3751,-0.4191,-0.4175,-0.424,-0.4244,-0.418,-0.4268,-0.4268,-0.4314,0.0,0.0,0.0,-0.4208,-0.4301,-0.4219,-0.4407,-0.4849,-0.1912,-0.0342,0.0,0.0,0.0,0.0,0.0,0.0,0.0,0.0,0.0,0.0,0.0,0.0,0.0,0.0,0.0,0.0,0.0,0.0,0.0,0.0,0.0,0.0,0.0,0.0,0.0,0.0,0.0,0.0,0.0,0.0,0.0,0.0,0.0,0.0,0.0,0.0,0.0,0.0,0.0,0.0,0.0,0.0,0.0,0.0,0.0,0.0,0.0,0.0,-0.9419,-0.8744,0.0,0.0,0.0,0.0,0.0,0.0,0.0,0.0,0.0,0.0,0.0,0.0,0.0,-0.8617,-0.9014,-0.934,-0.9661,-0.997,-1.0297,-1.0454,-1.046,-1.0563,-1.0639,-1.0672,-1.0487,0.0,-0.9351,-0.934,0.0,0.0,0.0,0.0,0.0,0.0,0.0,0.0,0.0,0.0,0.0,0.0,0.0,0.0,0.0,0.0,0.0,0.0,0.0,0.0,0.0,-0.4769,-0.5047,-0.5083,-0.5299,-0.5277,-0.4767,-0.4409,0.0,0.0,-0.4314,-0.4309,-0.4323,-0.2695,-0.1994,-0.2202,-0.0721,0.0,0.0,0.0,0.0,0.0,0.0,0.0,0.0,0.0,0.0,0.0,0.0,0.0,0.0,0.0,0.0,0.0,0.0,0.0,0.0,0.0,0.0,0.0,0.0,0.0,0.0,0.0,0.0,0.0,0.0,0.0,0.0,0.0,0.0,0.0,0.0,0.0,0.0,0.0,0.0,0.0,0.0,0.0,0.0,0.0,0.0,0.0,0.0,-0.961,-0.9741,-0.8771,-0.8418,-0.8067,0.0,0.0,0.0,0.0,0.0,0.0,0.0,0.0,0.0,-0.9302,-0.9432,-0.9704,-1.0134,-1.0362,-1.0552,-1.071,-1.0933,-1.1003,-1.0949,-1.1134,-1.1183,-1.1118,-1.1134,-1.09,-1.0476,-0.9976,-0.9563,-0.9188,0.0,0.0,0.0,0.0,-0.8688,-0.8915,0.0,0.0,0.0,0.0,0.0,0.0,0.0,0.0,0.0,0.0,0.0,0.0,-0.4594,-0.5523,-0.5624,-0.4334,-0.457,-0.4474,-0.3757,-0.3401,-0.3197,-0.3176,-0.3179,-0.3235,-0.3189,-0.1099,0.0,0.0,0.0,0.0,0.0,0.0,0.0,0.0,0.0,0.0,0.0,0.0,0.0,0.0,0.0,0.0,0.0,0.0,0.0,0.0,0.0,0.0,0.0,0.0,0.0,0.0,0.0,0.0,0.0,0.0,0.0,0.0,0.0,0.0,0.0,0.0,0.0,0.0,0.0,0.0,0.0,0.0,0.0,0.0,0.0,0.0,0.0,0.0,0.0,0.0,0.0,-0.9961,-0.9626,-0.8857,-0.8711,-0.8329,0.0,0.0,0.0,0.0,0.0,0.0,-0.9534,-0.9446,-0.9617,-1.0275,-1.0389,-1.0639,-1.0886,-1.0982,-1.1063,-1.1122,-1.1384,-1.1384,-1.1308,-1.1482,-1.1509,-1.1433,-1.1525,-1.1558,-1.1487,-1.0617,-1.0221,-1.0101,-0.9536,-0.9188,-0.9014,-0.9133,-0.9182,-0.9258,0.0,0.0,0.0,0.0,0.0,0.0,0.0,0.0,0.0,0.0,0.0,-0.4637,-0.5536,-0.6497,-0.532,-0.0645,-0.0315,-0.0309,-0.0205,-0.0185,-0.0256,-0.025,-0.0234,-0.0233,-0.025,-0.0105,0.0,0.0,0.0,0.0,0.0,0.0,0.0,0.0,0.0,0.0,0.0,0.0,0.0,0.0,0.0,0.0,0.0,0.0,0.0,0.0,0.0,0.0,0.0,0.0,0.0,0.0,0.0,0.0,0.0,0.0,0.0,0.0,0.0,0.0,0.0,0.0,0.0,0.0,0.0,0.0,0.0,0.0,0.0,0.0,0.0,0.0,0.0,0.0,0.0,0.0,0.0,0.0,0.0,-0.9341,-0.9184,0.0,0.0,0.0,0.0,-0.9297,-0.9264,-0.9525,-1.0112,-1.0253,-1.0541,-1.1031,-1.1069,-1.1025,-1.1266,-1.1115,-1.1241,-1.1462,-1.1468,-1.1651,-1.1835,-1.1662,-1.1662,-1.1846,-1.1851,-1.1846,-1.1803,-1.1498,-1.1041,-1.0514,-1.0373,-1.003,-0.9639,-0.9753,-1.0008,-1.034,0.0,0.0,0.0,0.0,0.0,-0.3621,-0.3619,-0.3887,-0.4105,-0.4288,-0.4826,-0.5659,-0.6982,-0.4378,-0.1903,-0.0118,0.0,0.0,0.0,0.0,0.0,0.0,0.0,0.0,0.0,0.0,0.0,0.0,0.0,0.0,0.0,0.0,0.0,0.0,0.0,0.0,0.0,0.0,0.0,0.0,0.0,0.0,0.0,0.0,0.0,0.0,0.0,0.0,0.0,0.0,0.0,0.0,0.0,0.0,0.0,0.0,0.0,0.0,0.0,0.0,0.0,0.0,0.0,0.0,0.0,0.0,0.0,0.0,0.0,0.0,0.0,0.0,0.0,0.0,0.0,0.0,0.0,0.0,0.0,-0.9771,-0.968,0.0,-0.9677,-0.9562,-0.9671,-0.9899,-1.0193,-1.0623,-1.0987,-1.0886,-1.1063,-1.1389,-1.1416,-1.0178,-0.7674,-0.7678,-0.7735,-0.7842,-0.7701,-0.7726,-0.7921,-0.8021,-0.8039,-0.7802,-0.8042,-0.8226,-0.836,-1.0959,-1.1743,-1.1232,-1.1031,-1.0851,-1.0699,-1.0666,-1.0737,-1.0862,0.0,0.0,0.0,0.0,-0.3583,-0.3581,-0.3613,-0.4023,-0.4338,-0.4482,-0.5251,-0.5575,-0.5252,-0.2137,0.0,0.0,0.0,0.0,0.0,0.0,0.0,0.0,0.0,0.0,0.0,0.0,0.0,0.0,0.0,0.0,0.0,0.0,0.0,0.0,0.0,0.0,0.0,0.0,0.0,0.0,0.0,0.0,0.0,0.0,0.0,0.0,0.0,0.0,0.0,0.0,0.0,0.0,0.0,0.0,0.0,0.0,0.0,0.0,0.0,0.0,0.0,0.0,0.0,0.0,0.0,0.0,0.0,0.0,0.0,0.0,0.0,0.0,0.0,0.0,0.0,0.0,0.0,-0.9826,-1.0345,-1.0203,-1.0144,-1.0064,-1.0042,-1.0258,-1.0498,-1.0617,-1.1047,-1.1384,-1.1574,-1.1421,-1.0785,-0.9658,-1.0806,-1.0282,-0.7698,-0.5066,-0.3771,-0.3808,-0.3832,-0.3837,-0.3829,-0.3876,-0.3878,-0.3844,-0.387,-0.4834,-0.6339,-1.0568,-1.1141,-0.9903,-1.1009,-1.1422,-1.1164,-1.1259,-1.1259,-1.1297,0.0,0.0,0.0,-0.3588,-0.3588,-0.3607,-0.3595,-0.4019,-0.4467,-0.4939,-0.5322,-0.407,-0.0455,0.0,0.0,0.0,0.0,0.0,0.0,0.0,0.0,0.0,0.0,0.0,0.0,0.0,0.0,0.0,0.0,0.0,0.0,0.0,0.0,0.0,0.0,0.0,0.0,0.0,0.0,0.0,0.0,0.0,0.0,0.0,0.0,0.0,0.0,0.0,0.0,0.0,0.0,0.0,0.0,0.0,0.0,0.0,0.0,0.0,0.0,0.0,0.0,0.0,0.0,0.0,0.0,0.0,0.0,0.0,0.0,0.0,0.0,0.0,0.0,0.0,0.0,0.0,-0.8793,-0.9518,-1.0144,-1.0613,-1.0644,-1.0661,-1.0443,-1.0784,-1.117,-1.1277,-1.1432,-1.156,-1.1478,-1.1694,-1.006,-0.6006,-0.9236,-1.1057,-1.1061,-0.3676,0.0,0.0,0.0,0.0,0.0,0.0,0.0,0.0,0.0,-0.2289,-0.6288,-1.0225,-0.9607,-0.6374,-1.0231,-1.1357,-1.0973,-1.132,-1.1384,-1.1502,0.0,0.0,-0.361,-0.3577,-0.3587,-0.3607,-0.3585,-0.4001,-0.4572,-0.5389,-0.317,-0.1169,-0.0116,0.0,0.0,0.0,0.0,0.0,0.0,0.0,0.0,0.0,0.0,0.0,0.0,0.0,0.0,0.0,0.0,0.0,0.0,0.0,0.0,0.0,0.0,0.0,0.0,0.0,0.0,0.0,0.0,0.0,0.0,0.0,0.0,0.0,0.0,0.0,0.0,0.0,0.0,0.0,0.0,0.0,0.0,0.0,0.0,0.0,0.0,0.0,0.0,0.0,0.0,0.0,0.0,0.0,0.0,0.0,0.0,0.0,0.0,0.0,0.0,0.0,-0.9665,-1.0429,-1.0211,-1.0343,-1.0571,-1.0751,-1.0786,-1.0886,-1.1172,-1.1164,-1.0078,-0.7495,-1.0009,-1.0487,-0.7544,-1.0099,-1.1171,-1.0496,-0.5629,-0.3101,-0.3096,-0.0967,0.0,0.0,0.0,0.0,0.0,0.0,0.0,0.0,0.0,-0.0582,-0.1733,-0.2882,-0.4399,-0.6263,-0.7077,-0.7367,-0.733,-0.8422,-1.0091,-1.1781,0.0,-0.3583,-0.3621,-0.3614,-0.3751,-0.3898,-0.3887,-0.4112,-0.467,-0.5614,-0.2367,0.0,0.0,0.0,0.0,0.0,0.0,0.0,0.0,0.0,0.0,0.0,0.0,0.0,0.0,0.0,0.0,0.0,0.0,0.0,0.0,0.0,0.0,0.0,0.0,0.0,0.0,0.0,0.0,0.0,0.0,0.0,0.0,0.0,0.0,0.0,0.0,0.0,0.0,0.0,0.0,0.0,0.0,0.0,0.0,0.0,0.0,0.0,0.0,0.0,0.0,0.0,0.0,0.0,0.0,0.0,0.0,0.0,0.0,0.0,0.0,0.0,0.0,0.0,-1.0358,-1.0713,-1.0753,-1.0633,-1.0699,-1.0944,-1.0977,-1.046,-0.9003,-0.7425,-0.6224,-0.5787,-0.6403,-0.723,-0.8292,-0.7375,-0.6836,-0.7074,-0.2552,0.0,0.0,0.0,0.0,0.0,0.0,0.0,0.0,0.0,0.0,0.0,0.0,0.0,0.0,0.0,-0.1343,-0.3624,0.0,0.0,0.0,0.0,-1.0674,-1.1976,-0.3588,-0.3593,-0.3581,-0.3576,-0.3966,-0.4303,-0.4301,-0.4328,-0.4673,-0.5541,-0.2339,0.0,0.0,0.0,0.0,0.0,0.0,0.0,0.0,0.0,0.0,0.0,0.0,0.0,0.0,0.0,0.0,0.0,0.0,0.0,0.0,0.0,0.0,0.0,0.0,0.0,0.0,0.0,0.0,0.0,0.0,0.0,0.0,0.0,0.0,0.0,0.0,0.0,0.0,0.0,0.0,0.0,0.0,0.0,0.0,0.0,0.0,0.0,0.0,0.0,0.0,0.0,0.0,0.0,0.0,0.0,0.0,0.0,0.0,0.0,0.0,0.0,0.0,0.0,-1.0833,-1.0715,-1.0783,-1.0725,-1.0913,-1.1478,-1.0722,-0.8848,-0.511,-0.1843,-0.1495,-0.4761,-0.1914,-0.3092,-1.0442,-0.3933,0.0,0.0,0.0,0.0,0.0,0.0,0.0,0.0,0.0,0.0,0.0,0.0,0.0,0.0,0.0,0.0,0.0,0.0,0.0,0.0,0.0,0.0,-0.0956,-0.8233,-1.1111,-1.1662,-0.3604,-0.3597,-0.3582,-0.3575,-0.3979,-0.429,-0.4312,-0.4302,-0.4676,-0.5551,-0.2339,0.0,0.0,0.0,0.0,0.0,0.0,0.0,0.0,0.0,0.0,0.0,0.0,0.0,0.0,0.0,0.0,0.0,0.0,0.0,0.0,0.0,0.0,0.0,0.0,0.0,0.0,0.0,0.0,0.0,0.0,0.0,0.0,0.0,0.0,0.0,0.0,0.0,0.0,0.0,0.0,0.0,0.0,0.0,0.0,0.0,0.0,0.0,0.0,0.0,0.0,0.0,0.0,0.0,0.0,0.0,0.0,0.0,0.0,0.0,0.0,0.0,0.0,-1.1025,-1.1294,-1.1423,-1.1395,-1.1309,-1.1346,-1.1476,-0.5993,-0.1849,-0.1131,-0.0379,-0.0382,-0.0974,-0.0393,-0.0594,-0.2184,-0.0794,0.0,0.0,0.0,0.0,0.0,0.0,0.0,0.0,0.0,0.0,0.0,0.0,0.0,0.0,0.0,0.0,0.0,0.0,0.0,0.0,0.0,0.0,-0.0193,-0.1749,-0.4479,-0.7793,-0.389,-0.3746,-0.3701,-0.3877,-0.4141,-0.4288,-0.4284,-0.4287,-0.4598,-0.5577,-0.2353,0.0,0.0,0.0,0.0,0.0,0.0,0.0,0.0,0.0,0.0,0.0,0.0,0.0,0.0,0.0,0.0,0.0,0.0,0.0,0.0,0.0,0.0,0.0,0.0,0.0,0.0,0.0,0.0,0.0,0.0,0.0,0.0,0.0,0.0,0.0,0.0,0.0,0.0,0.0,0.0,0.0,0.0,0.0,0.0,0.0,0.0,0.0,0.0,0.0,0.0,0.0,0.0,0.0,0.0,0.0,0.0,0.0,0.0,-0.9131,-0.9905,0.0,-1.0606,-1.1415,-1.1569,-1.1421,-1.1496,-0.8124,-0.5763,-0.5734,-0.2424,0.0,0.0,0.0,0.0,0.0,0.0,0.0,0.0,0.0,0.0,0.0,0.0,0.0,0.0,0.0,0.0,0.0,0.0,0.0,0.0,0.0,0.0,0.0,0.0,0.0,0.0,0.0,0.0,0.0,0.0,0.0,0.0,0.0,-0.1372,-0.3328,-0.4221,-0.399,-0.3841,-0.4238,-0.4271,-0.4327,-0.4317,-0.4324,-0.458,-0.5411,-0.2351,0.0,0.0,0.0,0.0,0.0,0.0,0.0,0.0,0.0,0.0,0.0,0.0,0.0,0.0,0.0,0.0,0.0,0.0,0.0,0.0,0.0,0.0,0.0,0.0,0.0,0.0,0.0,0.0171,0.0508,0.0502,0.0333,0.0,0.0,0.0,0.0,0.0,0.0,0.0,0.0,0.0,0.0,0.0,0.0,0.0,0.0,0.0,0.0,0.0,0.0,0.0,0.0,0.0,0.0,0.0,-0.5583,-1.0875,-1.0907,-1.0932,-1.1029,-1.1409,-1.1517,-1.1491,-1.1614,-1.0354,-0.9305,-0.9326,-0.3975,0.0,0.0,0.0,0.0,0.0,0.0,0.0,0.0,0.0,0.0,0.0,0.0,0.0,0.0,0.0,0.0,0.0,0.0,0.0,0.0,0.0,0.0,0.0,0.0,0.0,0.0,0.0,0.0,0.0,0.0,0.0,0.0,0.0,0.0,0.0,0.0,0.0,0.0,-0.429,-0.4251,-0.423,-0.4266,-0.4273,-0.4317,-0.4293,-0.4302,-0.4496,-0.5053,-0.2136,0.0,0.0,0.0,0.0,0.0,0.0,0.0,0.0,0.0,0.0,0.0,0.0,0.0,0.0,0.0,0.0,0.0,0.0,0.0,0.0,0.0,0.0,0.0,0.0,0.0,0.0,0.0,0.1041,0.2597,0.2569,0.1525,0.0,0.0,0.0,0.0,0.0,0.0,0.0,0.0,0.0,0.0,0.0,0.0,0.0,0.0,0.0,0.0,0.0,0.0,0.0,0.0,0.0,0.0,0.0,-0.5862,-1.1354,-1.1426,-1.1423,-1.1428,-1.1467,-1.1542,-1.1571,-1.1975,-0.5989,-0.1328,-0.1328,-0.058,0.0,0.0,0.0,0.0,0.0,0.0,0.0,0.0,0.0,0.0,0.0,0.0,0.0,0.0,0.0,0.0,0.0,0.0,0.0,0.0,0.0,0.0,0.0,0.0,0.0,0.0,0.0,0.0,0.0,0.0,0.0,0.0,0.0,0.0,0.0,0.0,0.0,0.0,-0.429,-0.4334,-0.4284,-0.4301,-0.4268,-0.4271,-0.4309,-0.4544,-0.4746,-0.4949,-0.2083,0.0,0.0,0.0,0.0,0.0,0.0,0.0,0.0,0.0,0.0,0.0,0.0,0.0,0.0,0.0,0.0,0.0,0.0,0.0,0.0,0.0,0.0,0.0,0.0,0.0,0.0,0.1231,0.2099,0.2955,0.2921,0.1706,0.0,0.0,0.0,0.0,0.0,0.0,0.0,0.0,0.0,0.0,0.0,0.0,0.0,0.0,0.0,0.0,0.0,0.0,0.0,0.0,0.0,0.0,0.0,-0.5885,-1.1559,-1.1438,-1.1448,-1.1518,-1.1892,-0.7973,-0.4879,-0.5078,-0.2295,0.0,0.0,0.0,0.0,0.0,0.0,0.0,0.0,0.0,0.0,0.0,0.0,0.0,0.0,0.0,0.0,0.0,0.0,0.0,0.0,0.0,0.0,0.0,0.0,0.0,0.0,0.0,0.0,0.0,0.0,0.0,0.0,0.0,0.0,0.0,0.0,0.0,0.0,0.0,0.0,0.0,-0.43,-0.43,-0.43,-0.43,-0.43,-0.4282,-0.4286,-0.4665,-0.5012,-0.4988,-0.2879,-0.1012,-0.0088,0.0,0.0,0.0,0.0,0.0,0.0,0.0,0.0,0.0,0.0,0.0,0.0,0.0,0.0,0.0,0.0,0.0,0.0,0.0,0.0,0.0,0.0,0.0356,0.0883,0.2291,0.2803,0.2781,0.2921,0.1711,0.0,0.0,0.0,0.0,0.0,0.0,0.0,0.0,0.0,0.0,0.0,0.0,0.0,0.0,0.0,0.0,0.0,0.0,0.0,0.0,0.0,0.0,0.0,-0.4395,-0.8397,-0.8274,-0.8358,-0.8393,-0.8772,-0.3972,0.0,0.0,0.0,0.0,0.0,0.0,0.0,0.0,0.0,0.0,0.0,0.0,0.0,0.0,0.0,0.0,0.0,0.0,0.0,0.0,0.0,0.0,0.0,0.0,0.0,0.0,0.0,0.0,0.0,0.0,0.0,0.0,0.0,0.0,0.0,0.0,0.0,0.0,0.0,0.0,0.0,0.0,0.0,0.0,-0.43,-0.43,-0.43,-0.43,-0.43,-0.4308,-0.4319,-0.472,-0.5012,-0.4988,-0.4885,-0.3613,-0.0336,0.0,0.0,0.0,0.0,0.0,0.0,0.0,0.0,0.0,0.0,0.0,0.0,0.0,0.0,0.0,0.0,0.0,0.0,0.0,0.0,0.0,0.0,0.106,0.2826,0.2797,0.2784,0.278,0.275,0.1539,0.0,0.0,0.0,0.0,0.0,0.0,0.0,0.0,0.0,0.0,0.0,0.0,0.0,0.0,0.0,0.0,0.0,0.0,0.0,0.0,0.0,0.0,0.0,-0.0184,-0.0369,-0.0369,-0.0374,-0.038,-0.038,-0.0193,0.0,0.0,0.0,0.0,0.0,0.0,0.0,0.0,0.0,0.0,0.0,0.0,0.0,0.0,0.0,0.0,0.0,0.0,0.0,0.0,0.0,0.0,0.0,0.0,0.0,0.0,0.0,0.0,0.0,0.0,0.0,0.0,0.0,0.0,0.0,0.0,0.0,0.0,0.0,0.0,0.0,0.0,0.0,0.0,-0.43,-0.43,-0.43,-0.43,-0.43,-0.4314,-0.4324,-0.4726,-0.4978,-0.4961,-0.3087,0.0,0.0,0.0,0.0,0.0,0.0,0.0,0.0,0.0,0.0,0.0,0.0,0.0,0.0,0.0,0.0,0.0,0.0,0.0,0.0,0.0,0.0706,0.1935,0.1941,0.228,0.2767,0.2758,0.2729,0.2694,0.2703,0.2338,0.1639,0.0498,0.0,0.0,0.0,0.0,0.0,0.0,0.0,0.0,0.0,0.0,0.0,0.0,0.0,0.0,0.0,0.0,0.0,0.0,0.0,0.0,0.0,0.0,0.0,0.0,0.0,0.0,0.0,0.0,0.0,0.0,0.0,0.0,0.0,0.0,0.0,0.0,0.0,0.0,0.0,0.0,0.0,0.0,0.0,0.0,0.0,0.0,0.0,0.0,0.0,0.0,0.0,0.0,0.0,0.0,0.0,0.0,0.0,0.0,0.0,0.0,0.0,0.0,0.0,0.0,0.0,0.0,0.0,0.0,0.0,0.0,0.0,0.0,-0.43,-0.4333,-0.4282,-0.4306,-0.4333,0.0,0.0,0.0,0.0,0.0,0.0,0.0,0.0,0.0,0.0,0.0,0.0,0.0,0.0,0.0,0.0,0.0,0.0,0.0,0.0,0.0,0.0,0.0,0.0,0.0,0.0,0.0,0.1047,0.2958,0.2792,0.2769,0.2721,0.271,0.2683,0.2645,0.2622,0.2585,0.2542,0.0632,0.0,0.0,0.0,0.0,0.0,0.0,0.0,0.0,0.0,0.0,0.0,0.0,0.0,0.0,0.0,0.0,0.0,0.0,0.0,0.0,0.0,0.0,0.0,0.0,0.0,0.0,0.0,0.0,0.0,0.0,0.0,0.0,0.0,0.0,0.0,0.0,0.0,0.0,0.0,0.0,0.0,0.0,0.0,0.0,0.0,0.0,0.0,0.0,0.0,0.0,0.0,0.0,0.0,0.0,0.0,0.0,0.0,0.0,0.0,0.0,0.0,0.0,0.0,0.0,0.0,0.0,0.0,0.0,0.0,0.0,0.0,0.0,-0.4306,-0.4324,-0.4293,0.0,0.0,0.0,0.0,0.0,0.0,0.0,0.0,0.0,0.0,0.0,0.0,0.0,0.0,0.0,0.0,0.0,0.0,0.0,0.0,0.0,0.0,0.0,0.0,0.0,0.0,0.0,0.0,0.0168,0.1196,0.2932,0.2732,0.2703,0.2675,0.2643,0.263,0.2619,0.2506,0.2473,0.2324,0.0585,0.0,0.0,0.0,0.0,0.0,0.0,0.0,0.0,0.0,0.0,0.0,0.0,0.0,0.0,0.0,0.0,0.0,0.0,0.0,0.0,0.0,0.0,0.0,0.0,0.0,0.0,0.0,0.0,0.0,0.0,0.0,0.0,0.0,0.0,0.0,0.0,0.0,0.0,0.0,0.0,0.0,0.0,0.0,0.0,0.0,0.0,0.0,0.0,0.0,0.0,0.0,0.0,0.0,0.0,0.0,0.0,0.0,0.0,0.0,0.0,0.0,0.0,0.0,0.0,0.0,0.0,0.0,0.0,0.0,0.0,0.0,0.0,0.0,0.0,0.0,0.0,0.0,0.0,0.0,0.0,0.0,0.0,0.0,0.0,0.0,0.0,0.0,0.0,0.0,0.0,0.0,0.0,0.0,0.0,0.0,0.0,0.0,0.0,0.0,0.0,0.0,0.0,0.0,0.138,0.2311,0.2757,0.2773,0.2774,0.2764,0.258,0.2552,0.2379,0.1174,0.0714,0.0692,0.0139,0.0,0.0,0.0,0.0,0.0,0.0,0.0,0.0,0.0,0.0,0.0,0.0,0.0,0.0,0.0,0.0,0.0,0.0,0.0,0.0,0.0,0.0,0.0,0.0,0.0,0.0,0.0,0.0,0.0,0.0,0.0,0.0,0.0,0.0,0.0,0.0,0.0,0.0,0.0,0.0,0.0,0.0,0.0,0.0,0.0,0.0,0.0,0.0,0.0,0.0,0.0,0.0,0.0,0.0,0.0,0.0,0.0,0.0,0.0,0.0,0.0,0.0,0.0,0.0,0.0,0.0,0.0,0.0,0.0,0.0,0.0,0.0,0.0,0.0,0.0,0.0,0.0,0.0,0.0,0.0,0.0,0.0,0.0,0.0,0.0,0.0,0.0,0.0,0.0,0.0,0.0,0.0,0.0,0.0,0.0,0.0,0.0,0.0,0.0,0.0,0.0,0.0,0.0,0.0994,0.1563,0.1551,0.1563,0.1567,0.1566,0.1405,0.1397,0.0,0.0,0.0,0.0,0.0,0.0,0.0,0.0,0.0,0.0,0.0,0.0,0.0,0.0,0.0,0.0,0.0,0.0,0.0,0.0,0.0,0.0,0.0,0.0,0.0,0.0,0.0,0.0,0.0,0.0,0.0,0.0,0.0,0.0,0.0,0.0,0.0,0.0,0.0,0.0,0.0,0.0,0.0,0.0,0.0,0.0,0.0,0.0,0.0,0.0,0.0,0.0,0.0,0.0,0.0,0.0,0.0,0.0,0.0,0.0,0.0,0.0,0.0,0.0,0.0,0.0,0.0,0.0,0.0,0.0,0.0,0.0,0.0,0.0,0.0,0.0,0.0,0.0,0.0,0.0,0.0,0.0,0.0,0.0,0.0,0.0,-0.5058,-0.5031,-0.3757,0.0,0.0,0.0,0.0,0.0,0.0,0.0,0.0,0.0,0.0,0.0,0.0,0.0,0.0,0.0,0.0,0.0,0.0,0.0,0.0,0.0,0.0,0.0,0.0,0.0,0.0,0.0,0.0,0.0,0.0,0.0,0.0,0.0,0.0,0.0,0.0,0.0,0.0,0.0,0.0,0.0,0.0,0.0,0.0,0.0,0.0,0.0,0.0,0.0,0.0,0.0,0.0,0.0,0.0,0.0,0.0,0.0,0.0,0.0,0.0,0.0,0.0,0.0,0.0,0.0,0.0,0.0,0.0,0.0,0.0,0.0,0.0,0.0,0.0,0.0,0.0,0.0,0.0,0.0,0.0,0.0,0.0,0.0,0.0,0.0,0.0,0.0,0.0,0.0,0.0,0.0,0.0,0.0,0.0,0.0,0.0,0.0,0.0,0.0,0.0,0.0,0.0,0.0,0.0,0.0,0.0,0.0,0.0,0.0,0.0,0.0,0.0,0.0,0.0,-0.5256,-0.3695,0.0,0.0,0.0,0.0,0.0,0.0,0.0,0.0,0.0,0.0,0.0,0.0,0.0,0.0,0.0,0.0,0.0,0.0,0.0,0.0,0.0,0.0,0.0,0.0,0.0,0.0,0.0,0.0,0.0,0.0,0.0,0.0,0.0,0.0,0.0,0.0,0.0,0.0,0.0,0.0,0.0,0.0,0.0,0.0,0.0,0.0,0.0,0.0,0.0,0.0,0.0,0.0,0.0,0.0,0.0,0.0,0.0,0.0,0.0,0.0,0.0,0.0,0.0,0.0,0.0,0.0,0.0,0.0,0.0,0.0,0.0,0.0,0.0,0.0,0.0,0.0,0.0,0.0,0.0,0.0,0.0,0.0,0.0,0.0,0.0,0.0,0.0,0.0,0.0,0.0,0.0,0.0,0.0,0.0,0.0,0.0,0.0,0.0,0.0,0.0,0.0,0.0,0.0,0.0,0.0,0.0,0.0,0.0,0.0,0.0,0.0,-0.5215,-0.5501,-0.6031,-0.6283,-0.5576,-0.3194,-0.1162,0.0,0.0,0.0,0.0,0.0,0.0,0.0,0.0,0.0,0.0,0.0,0.0,0.0,0.0,0.0,0.0,0.0,0.0,0.0,0.0,0.0,0.0,0.0,0.0,0.0,0.0,0.0,0.0,0.0,0.0,0.0,0.0,0.0,0.0,0.0,0.0,0.0,0.0,0.0,0.0,0.0,0.0,0.0,0.0,0.0,0.0,0.0,0.0,0.0,0.0,0.0,0.0,0.0,0.0,0.0,0.0,0.0,0.0,0.0,0.0,0.0,0.0,0.0,0.0,0.0,0.0,0.0,0.0,0.0,0.0,0.0,0.0,0.0,0.0,0.0,0.0,0.0,0.0,0.0,0.0,0.0,0.0,0.0,0.0,0.0,0.0,0.0,0.0,0.0,0.0,0.0,0.0,0.0,0.0,0.0,0.0,0.0,0.0,0.0,0.0,0.0,0.0,0.0,0.0,0.0,0.0,0.0,0.0,-0.5155,-0.5858,-0.641,-0.6719,-0.7269,-0.7357,-0.6295,-0.319,-0.0909,0.0,0.0,0.0,0.0,0.0,0.0,0.0,0.0,0.0,0.0,0.0,0.0,0.0,0.0,0.0,0.0,0.0,0.0,0.0,0.0,0.0,0.0,0.0,0.0,0.0,0.0,0.0,0.0,0.0,0.0,0.0,0.0,0.0,0.0,0.0,0.0,0.0,0.0,0.0,0.0,0.0,0.0,0.0,0.0,0.0,0.0,0.0,0.0,0.0,0.0,0.0,0.0,0.0,0.0,0.0,0.0,0.0,0.0,0.0,0.0,0.0,0.0,0.0,0.0,0.0,0.0,0.0,0.0,0.0,0.0,0.0,0.0,0.0,0.0,0.0,0.0,0.0,0.0,0.0,0.0,0.0,0.0,0.0,0.0,0.0,0.0,0.0,0.0,0.0,0.0,0.0,0.0,0.0,0.0,0.0,0.0,0.0,0.0,0.0,0.0,0.0,0.0,0.0,0.0,0.0,0.0,0.0,-0.5536,-0.7177,-0.82,-0.7768,-0.7522,-0.7357,-0.7626,-0.6142,-0.381,0.0,0.0,0.0,0.0,0.0,0.0,0.0,0.0,0.0,0.0,0.0,0.0,0.0,0.0,0.0,0.0,0.0,0.0,0.0,0.0,0.0,0.0,0.0,0.0,0.0,0.0,0.0,0.0,0.0,0.0,0.0,0.0,0.0,0.0,0.0,0.0,0.0,0.0,0.0,0.0,0.0,0.0,0.0,0.0,0.0,0.0,0.0,0.0,0.0,0.0,0.0,0.0,0.0,0.0,0.0,0.0,0.0,0.0,0.0,0.0,0.0,0.0,0.0,0.0,0.0,0.0,0.0,0.0,0.0,0.0,0.0,0.0,0.0,0.0,0.0,0.0,0.0,0.0,0.0,0.0,0.0,0.0,0.0,0.0,0.0,0.0,0.0,0.0,0.0,0.0,0.0,0.0,0.0,0.0,0.0,0.0,0.0,0.0,0.0,0.0,0.0,0.0,0.0,0.0,0.0,0.0,0.0,-0.5639,-0.7113,-0.8183,-0.8292,-0.7875,-0.7743,-0.7932,-0.6558,-0.4171,-0.0361,0.0,0.0,0.0,0.0,0.0,0.0,0.0,0.0,0.0,0.0,0.0,0.0,0.0,0.0,0.0,0.0,0.0,0.0,0.0,0.0,0.0,0.0,0.0,0.0,0.0,0.0,0.0,0.0,0.0,0.0,0.0,0.0,0.0,0.0,0.0,0.0,0.0,0.0,0.0,0.0,0.0,0.0,0.0,0.0,0.0,0.0,0.0,0.0,0.0,0.0,0.0,0.0,0.0,0.0,0.0,0.0,0.0,0.0,0.0,0.0,0.0,0.0,0.0,0.0,0.0,0.0,0.0,0.0,0.0,0.0,0.0,0.0,0.0,0.0,0.0,0.0,0.0,0.0,0.0,0.0,0.0,0.0,0.0,0.0,0.0,0.0,0.0,0.0,0.0,0.0,0.0,0.0,0.0,0.0,0.0,0.0,0.0,0.0,0.0,0.0,0.0,0.0,0.0,0.0,0.0,-0.5199,-0.5631,-0.6679,-0.7571,-0.7914,-0.7916,-0.7955,-0.7919,-0.6973,-0.5061,-0.1946,-0.0657,0.0,0.0,0.0,0.0,0.0,0.0,0.0,0.0,0.0,0.0,0.0,0.0,0.0,0.0,0.0,0.0,0.0,0.0,0.0,0.0,0.0,0.0,0.0,0.0,0.0,0.0,0.0,0.0,0.0,0.0,0.0,0.0,0.0,0.0,0.0,0.0,0.0,0.0,0.0,0.0,0.0,0.0,0.0,0.0,0.0,0.0,0.0,0.0,0.0,0.0,0.0,0.0,0.0,0.0,0.0,0.0,0.0,0.0,0.0,0.0,0.0,0.0,0.0,0.0,0.0,0.0,0.0,0.0,0.0,0.0,0.0,0.0,0.0,0.0,0.0,0.0,0.0,0.0,0.0,0.0,0.0,0.0,0.0,0.0,0.0,0.0,0.0,0.0,0.0,0.0,0.0,0.0,0.0,0.0,0.0,0.0,0.0,0.0,0.0,0.0,0.0,0.0,0.0,0.0,0.0,-0.5634,-0.6085,-0.6427,-0.6433,-0.7263,-0.7939,-0.7901,-0.793,-0.7316,-0.5801,-0.2212,0.0,0.0,0.0,0.0,0.0,0.0,0.0,0.0,0.0,0.0,0.0,0.0,0.0,0.0,0.0,0.0,0.0,0.0,0.0,0.0,0.0,0.0,0.0,0.0,0.0,0.0,0.0,0.0,0.0,0.0,0.0,0.0,0.0,0.0,0.0,0.0,0.0,0.0,0.0,0.0,0.0,0.0,0.0,0.0,0.0,0.0,0.0,0.0,0.0,0.0,0.0,0.0,0.0,0.0,0.0,0.0,0.0,0.0,0.0,0.0,0.0,0.0,0.0,0.0,0.0,0.0,0.0,0.0,0.0,0.0,0.0,0.0,0.0,0.0,0.0,0.0,0.0,0.0,0.0,0.0,0.0,0.0,0.0,0.0,0.0,0.0,0.0,0.0,0.0,0.0,0.0,0.0,0.0,0.0,0.0,0.0,0.0,0.0,0.0,0.0,0.0,0.0,0.0,0.0,0.0,-0.567,-0.6143,-0.6388,-0.6412,-0.6711,-0.6877,-0.6856,-0.7521,-0.7309,-0.5801,-0.221,0.0,0.0,0.0,0.0,0.0,0.0,0.0,0.0,0.0,0.0,0.0,0.0,0.0,0.0,0.0,0.0,0.0,0.0,0.0,0.0,0.0,0.0,0.0,0.0,0.0,0.0,0.0,0.0,0.0,0.0,0.0,0.0,0.0,0.0,0.0,0.0,0.0,0.0,0.0,0.0,0.0,0.0,0.0,0.0,0.0,0.0,0.0,0.0,0.0,0.0,0.0,0.0,0.0,0.0,0.0,0.0,0.0,0.0,0.0,0.0,0.0,0.0,0.0,0.0,0.0,0.0,0.0,0.0,0.0,0.0,0.0,0.0,0.0,0.0,0.0,0.0,0.0,0.0,0.0,0.0,0.0,0.0,0.0,0.0,0.0,0.0,0.0,0.0,0.0,0.0,0.0,0.0,0.0,0.0,0.0,0.0,0.0,0.0,0.0,0.0,0.0,0.0,0.0,0.0,0.0,-0.5427,-0.5802,-0.6166,-0.6361,-0.6719,-0.6917,-0.6637,-0.6889,-0.6661,-0.5791,-0.2194,0.0,0.0,0.0,0.0,0.0,0.0,0.0,0.0,0.0,0.0,0.0,0.0,0.0,0.0,0.0,0.0,0.0,0.0,0.0,0.0,0.0,0.0,0.0,0.0,0.0,0.0,0.0,0.0,0.0,0.0,0.0,0.0,0.0,0.0,0.0,0.0,0.0,0.0,0.0,0.0,0.0,0.0,0.0,0.0,0.0,0.0,0.0,0.0,0.0,0.0,0.0,0.0,0.0,0.0,0.0,0.0,0.0,0.0,0.0,0.0,0.0,0.0,0.0,0.0,0.0,0.0,0.0,0.0,0.0,0.0,0.0,0.0,0.0,0.0,0.0,0.0,0.0,0.0,0.0,0.0,0.0,0.0,0.0,0.0,0.0,0.0,0.0,0.0,0.0,0.0,0.0,0.0,0.0,0.0,0.0,0.0,0.0,0.0,0.0,0.0,0.0,0.0,0.0,0.0,0.0,0.0,-0.5365,-0.588,-0.6397,-0.7302,-0.7712,-0.718,-0.6289,-0.5707,-0.5741,-0.2165,0.0,0.0,0.0,0.0,0.0,0.0,0.0,0.0,0.0,0.0,0.0,0.0,0.0,0.0,0.0,0.0,0.0,0.0,0.0,0.0,0.0,0.0,0.0,0.0,0.0,0.0,0.0,0.0,0.0,0.0,0.0,0.0,0.0,0.0,0.0,0.0,0.0,0.0,0.0,0.0,0.0,0.0,0.0,0.0,0.0,0.0,0.0,0.0,0.0,0.0,0.0,0.0,0.0,0.0,0.0,0.0,0.0,0.0,0.0,0.0,0.0,0.0,0.0,0.0,0.0,0.0,0.0,0.0,0.0,0.0,0.0,0.0,0.0,0.0,0.0,0.0,0.0,0.0,0.0,0.0,0.0,0.0,0.0,0.0,0.0,0.0,0.0,0.0,0.0,0.0,0.0,0.0,0.0,0.0,0.0,0.0,0.0,0.0,0.0,0.0,0.0,0.0,0.0,0.0,0.0,0.0,0.0,0.0,0.0,-0.7177,-0.7277,-0.7156,-0.623,-0.5695,0.0,0.0,0.0,0.0,0.0,0.0,0.0,0.0,0.0,0.0,0.0,0.0,0.0,0.0,0.0,0.0,0.0,0.0,0.0,0.0,0.0,0.0,0.0,0.0,0.0,0.0,0.0,0.0,0.0,0.0,0.0,0.0,0.0,0.0,0.0,0.0,0.0,0.0,0.0,0.0,0.0,0.0,0.0,0.0,0.0,0.0,0.0,0.0,0.0,0.0,0.0,0.0,0.0,0.0,0.0,0.0,0.0,0.0,0.0,0.0,0.0,0.0,0.0,0.0,0.0,0.0,0.0,0.0,0.0,0.0,0.0,0.0,0.0,0.0,0.0,0.0,0.0,0.0,0.0,0.0,0.0,0.0,0.0,0.0,0.0,0.0,0.0,0.0,0.0,0.0,0.0,0.0,0.0,0.0,0.0,0.0,0.0,0.0,0.0,0.0,0.0,0.0,0.0,0.0,0.0,0.0,0.0,0.0,0.0,0.0,0.0,-0.7094,-0.7091,-0.7098,-0.6662,-0.6174,0.0,0.0,0.0,0.0,0.0,0.0,0.0,0.0,0.0,0.0,0.0,0.0,0.0,0.0,0.0,0.0,0.0,0.0,0.0,0.0,0.0,0.0,0.0,0.0,0.0,0.0,0.0,0.0,0.0,0.0,0.0,0.0,0.0,0.0,0.0,0.0,0.0,0.0,0.0,0.0,0.0,0.0,0.0,0.0,0.0,0.0,0.0,0.0,0.0,0.0,0.0,0.0,0.0,0.0,0.0,0.0,0.0,0.0,0.0,0.0,0.0,0.0,0.0,0.0,0.0,0.0,0.0,0.0,0.0,0.0,0.0,0.0,0.0,0.0,0.0,0.0,0.0,0.0,0.0,0.0,0.0,0.0,0.0,0.0,0.0,0.0,0.0,0.0,0.0,0.0,0.0,0.0,0.0,0.0,0.0,0.0,0.0,0.0,0.0,0.0,0.0,0.0,0.0,0.0,0.0,0.0,0.0,0.0,0.0,0.0,0.0,0.0,0.0,0.0,0.0,0.0,0.0,0.0,0.0,0.0,0.0,0.0,0.0,0.0,0.0,0.0,0.0,0.0,0.0,0.0,0.0,0.0,0.0,0.0,0.0,0.0,0.0,0.0,0.0,0.0,0.0,0.0,0.0,0.0,0.0,0.0,0.0,0.0,0.0,0.0,0.0,0.0,0.0,0.0,0.0,0.0,0.0,0.0,0.0,0.0,0.0,0.0,0.0,0.0,0.0,0.0,0.0,0.0,0.0,0.0,0.0,0.0,0.0,0.0,0.0,0.0,0.0,0.0,0.0,0.0,0.0,0.0,0.0,0.0,0.0,0.0,0.0,0.0,0.0,0.0,0.0,0.0,0.0,0.0,0.0,0.0,0.0,0.0,0.0,0.0,0.0,0.0,0.0,0.0,0.0,0.0,0.0,0.0,0.0,0.0,0.0,0.0,0.0,0.0,0.0,0.0,0.0,0.0,0.0,0.0,0.0,0.0,0.0,0.0,0.0,0.0,0.0,0.0,0.0,0.0,0.0,0.0,0.0,0.0,0.0,0.0,0.0,0.0,0.0,0.0,0.0,0.0,0.0,0.0,0.0,0.0,0.0,0.0,0.0,0.0,0.0,0.0,0.0,0.0,0.0,0.0,0.0,0.0,0.0,0.0,0.0,0.0,0.0,0.0,0.0,0.0,0.0,0.0,0.0,0.0,0.0,0.0,0.0,0.0,0.0,0.0,0.0,0.0,0.0,0.0,0.0,0.0,0.0,0.0,0.0,0.0,0.0,0.0,0.0,0.0,0.0,0.0,0.0,0.0,0.0,0.0,0.0,0.0,0.0,0.0,0.0,0.0,0.0,0.0,0.0,0.0,0.0,0.0,0.0,0.0,0.0,0.0,0.0,0.0,0.0,0.0,0.0,0.0,0.0,0.0,0.0,0.0,0.0,0.0,0.0,0.0,0.0,0.0,0.0,0.0,0.0,0.0,0.0,0.0,0.0,0.0,0.0,0.0,0.0,0.0,0.0,0.0,0.0,0.0,0.0,0.0,0.0,0.0,0.0,0.0,0.0,0.0,0.0,0.0,0.0,0.0,0.0,0.0,0.0,0.0,0.0,0.0,0.0,0.0,0.0,0.0,0.0,0.0,0.0,0.0,0.0,0.0,0.0,0.0,0.0,0.0,0.0,0.0,0.0,0.0,0.0,0.0,0.0,0.0,0.0,0.0,0.0,0.0,0.0,0.0,0.0,0.0,0.0,0.0,0.0,0.0,0.0,0.0,0.0,0.0,0.0,0.0,0.0,0.0,0.0,0.0,0.0,0.0,0.0,0.0,0.0,0.0,0.0,0.0,0.0,0.0,0.0,0.0,0.0,0.0,0.0,0.0,0.0,0.0,0.0,0.0,0.0,0.0,0.0,0.0,0.0,0.0,0.0,0.0,0.0,0.0,0.0,0.0,0.0,0.0,0.0,0.0,0.0,0.0,0.0,0.0,0.0,0.0,0.0,0.0,0.0,0.0,0.0,0.0,0.0,0.0,0.0,0.0,0.0,0.0,0.0,0.0,0.0,0.0,0.0,0.0,0.0,0.0,0.0,0.0,0.0,0.0,0.0,0.0,0.0,0.0,0.0,0.0,0.0,0.0,0.0,0.0,0.0,0.0,0.0,0.0,0.0,0.0,0.0,0.0,0.0,0.0,0.0,0.0,0.0,0.0,0.0,0.0,0.0,0.0,0.0,0.0,0.0,0.0,0.0,0.0,0.0,0.0,0.0,0.0,0.0,0.0,0.0,0.0,0.0,0.0,0.0,0.0,0.0,0.0,0.0,0.0,0.0,0.0,0.0,0.0,0.0,0.0,0.0,0.0,0.0,0.0,0.0,0.0,0.0,0.0,0.0,0.0,0.0,0.0,0.0,0.0,0.0,0.0,0.0,0.0,0.0,0.0,0.0,0.0,0.0,0.0,0.0,0.0,0.0,0.0,0.0,0.0,0.0,0.0,0.0,0.0,0.0,0.0,0.0,0.0,0.0,0.0,0.0,0.0,0.0,0.0,0.0,0.0,0.0,0.0,0.0,0.0,0.0,0.0,0.0,0.0,0.0,0.0,0.0,0.0,0.0,0.0,0.0,0.0,0.0,0.0,0.0,0.0,0.0,0.0,0.0,0.0,0.0,0.0,0.0,0.0,0.0,0.0,0.0,0.0,0.0,0.0,0.0,0.0,0.0,0.0,0.0,0.0,0.0,0.0,0.0,0.0,0.0,0.0,0.0,0.0,0.0,0.0,0.0,0.0,0.0,0.0,0.0,0.0,0.0,0.0,0.0,0.0,0.0,0.0,0.0,0.0,0.0,0.0,0.0,0.0,0.0,0.0,0.0,0.0,0.0,0.0,0.0,0.0,0.0,0.0,0.0,0.0,0.0,0.0,0.0,0.0,0.0,0.0,0.0,0.0,0.0,0.0,0.0,0.0,0.0,0.0,0.0,0.0,0.0,0.0,0.0,0.0,0.0,0.0,0.0,0.0,0.0,0.0,0.0,0.0,0.0,0.0,0.0,0.0,0.0,0.0,0.0,0.0,0.0,0.0,0.0,0.0,0.0,0.0,0.0,0.0,0.0,0.0,0.0,0.0,0.0,0.0,0.0,0.0,0.0,0.0,0.0,0.0,0.0,0.0,0.0,0.0,0.0,0.0,0.0,0.0,0.0,0.0,0.0,0.0,0.0,0.0,0.0,0.0,0.0,0.0,0.0,0.0,0.0,0.0,0.0,0.0,0.0,0.0,0.0,0.0,0.0,0.0,0.0,0.0,0.0,0.0,0.0,0.0,0.0,0.0,0.0,0.0,0.0,0.0,0.0,0.0,0.0,0.0,0.0,0.0,0.0,0.0,0.0,0.0,0.0,0.0,0.0,0.0,0.0,0.0,0.0,0.0,0.0,0.0,0.0,0.0,0.0,0.0,0.0,0.0,0.0,0.0,0.0,0.0,0.0,0.0,0.0,0.0,0.0,0.0,0.0,0.0,0.0,0.0,0.0,0.0,0.0,0.0,0.0,0.0,0.0,0.0,0.0,0.0,0.0,0.0,0.0,0.0,0.0,0.0,0.0,0.0,0.0,0.0,0.0,0.0,0.0,-0.0,0.0,0.0,0.0,0.0,0.0,0.0,0.0,0.0,0.0,0.0,0.0,0.0,0.0,0.0,0.0,0.0,0.0,0.0,0.0,0.0,0.0,0.0,0.0,0.0,0.0,0.0,0.0,0.0,0.0,0.0,0.0,0.0,0.0,0.0,0.0,0.0,0.0,0.0,0.0,0.0,0.0,0.0,0.0,0.0,0.0,0.0,0.0,0.0,0.0,0.0,0.0,0.0,0.0,0.0,0.0,0.0,0.0,0.0,0.0,0.0,0.0,0.0,0.0,0.0,0.0,0.0,0.0,0.0,0.0,0.0,0.0,0.0,0.0,0.0,0.0,0.0,0.0,0.0,0.0,0.0,0.0,0.0,0.0,0.0,0.0,0.0,0.0,0.0,0.0,0.0,0.0,0.0,0.0,0.0,0.0,0.0,0.0,0.0,0.0,0.0,0.0,0.0,0.0,0.0,0.0,0.0,0.0,0.0,0.0,0.0,0.0,0.0,0.0,0.0,0.0,-0.009,0.0,0.0,0.0,0.0,0.0,0.0,0.0,0.0,0.0,0.0,0.0,0.0,0.0,0.0,0.0,0.0,0.0,0.0,0.0,0.0,0.0,0.0,0.0,0.0,0.0,0.0,0.0,0.0,0.0,0.0,0.0,0.0,0.0,0.0,0.0,0.0,0.0,0.0,0.0,0.0,0.0,0.0,0.0,0.0,0.0,0.0,0.0,0.0,0.0,0.0,0.0,0.0,0.0,0.0,0.0,0.0,0.0,0.0,0.0,0.0,0.0,0.0,0.0,0.0,0.0,0.0,0.0,0.0,0.0,0.0,0.0,0.0,0.0,0.0,0.0,0.0,0.0,0.0,0.0,0.0,0.0,0.0,0.0,0.0,0.0,0.0,0.0,0.0,0.0,0.0,0.0,0.0,0.0,0.0,0.0,0.0,0.0,0.0,0.0,0.0,0.0,0.0,0.0,0.0,0.0,0.0,0.0,0.0,0.0,0.0,0.0,0.0,0.0,0.0,0.0,-0.009,0.0,0.0,0.0,0.0,0.0,0.0,0.0,0.0,0.0,0.0,0.0,0.0,0.0,0.0,0.0,0.0,0.0,0.0,0.0,0.0,0.0,0.0,0.0,0.0,0.0,0.0,0.0,0.0,0.0,0.0,0.0,0.0,0.0,0.0,0.0,0.0,0.0,0.0,0.0,0.0,0.0,0.0,0.0,0.0,0.0,0.0,0.0,0.0,0.0,0.0,0.0,0.0,0.0,0.0,0.0,0.0,0.0,0.0,0.0,0.0,0.0,0.0,0.0,0.0,0.0,0.0,0.0,0.0,0.0,0.0,0.0,0.0,0.0,0.0,0.0,0.0,0.0,0.0,0.0,0.0,0.0,0.0,0.0,0.0,0.0,0.0,0.0,0.0,0.0,0.0,0.0,0.0,0.0,0.0,0.0,0.0,0.0,0.0,0.0,0.0,0.0,0.0,0.0,0.0,0.0,0.0,0.0,-0.7143,-0.7061,0.0,0.0,0.0,0.0,0.0,0.0,-0.0628,-0.0181,0.0,0.0,0.0,0.0,0.0,0.0,0.0,0.0,0.0,0.0,0.0,0.0,0.0,0.0,0.0,0.0,0.0,0.0,0.0,0.0,0.0,0.0,0.0,0.0,0.0,0.0,0.0,0.0,0.0,0.0,0.0,0.0,0.0,0.0,0.0,0.0,0.0,0.0,0.0,0.0,0.0,0.0,0.0,0.0,0.0,0.0,0.0,0.0,0.0,0.0,0.0,0.0,0.0,0.0,0.0,0.0,0.0,0.0,0.0,0.0,0.0,0.0,0.0,0.0,0.0,0.0,0.0,0.0,0.0,0.0,0.0,0.0,0.0,0.0,0.0,0.0,0.0,0.0,0.0,0.0,0.0,0.0,0.0,0.0,0.0,0.0,0.0,0.0,0.0,0.0,0.0,0.0,0.0,0.0,0.0,0.0,0.0,0.0,0.0,0.0,0.0,0.0,0.0,0.0,0.0,-0.7143,-0.7143,-0.7061,0.0,0.0,0.0,-0.7128,-0.3585,-0.1431,-0.1436,-0.0549,0.0,0.0,0.0,0.0,0.0,0.0,0.0,0.0,0.0,0.0,0.0,0.0,0.0,0.0,0.0,0.0,0.0,0.0,0.0,0.0,0.0,0.0,0.0,0.0,0.0,0.0,0.0,0.0,0.0,0.0,0.0,0.0,0.0,0.0,0.0,0.0,0.0,0.0,0.0,0.0,0.0,0.0,0.0,0.0,0.0,0.0,0.0,0.0,0.0,0.0,0.0,0.0,0.0,0.0,0.0,0.0,0.0,0.0,0.0,0.0,0.0,0.0,0.0,0.0,0.0,0.0,0.0,0.0,0.0,0.0,0.0,0.0,0.0,0.0,0.0,0.0,0.0,0.0,0.0,0.0,0.0,0.0,0.0,0.0,0.0,0.0,0.0,0.0,0.0,0.0,0.0,0.0,0.0,0.0,0.0,0.0,0.0,0.0,0.0,0.0,0.0,0.0,0.0,0.0,-0.7143,-0.7143,-0.7143,-0.7143,-0.7061,-0.7061,0.0,-0.7094,-0.3571,-0.1427,-0.1431,-0.0548,0.0,0.0,0.0,0.0,0.0,0.0,0.0,0.0,0.0,0.0,0.0,0.0,0.0,0.0,0.0,0.0,0.0,0.0,0.0,0.0,0.0,0.0,0.0,0.0,0.0,0.0,0.0,0.0,0.0,0.0,0.0,0.0,0.0,0.0,0.0,0.0,0.0,0.0,0.0,0.0,0.0,0.0,0.0,0.0,0.0,0.0,0.0,0.0,0.0,0.0,0.0,0.0,0.0,0.0,0.0,0.0,0.0,0.0,0.0,0.0,0.0,0.0,0.0,0.0,0.0,0.0,0.0,0.0,0.0,0.0,0.0,0.0,0.0,0.0,0.0,0.0,0.0,0.0,0.0,0.0,0.0,0.0,0.0,0.0,0.0,0.0,0.0,0.0,0.0,0.0,0.0,0.0,0.0,0.0,0.0,0.0,0.0,0.0,0.0,0.0,0.0,0.0,0.0,0.0,-0.7143,-0.7143,-0.7143,-0.7143,-0.7143,-0.7143,0.0,0.0,-0.527,-0.3123,-0.0893,-0.0274,0.0,0.0,0.0,0.0,0.0,0.0,0.0,0.0,0.0,0.0,0.0,0.0,0.0,0.0,0.0,0.0,0.0,0.0,0.0,0.0,0.0,0.0,0.0,0.0,0.0,0.0,0.0,0.0,0.0,0.0,0.0,0.0,0.0,0.0,0.0,0.0,0.0,0.0,0.0,0.0,0.0,0.0,0.0,0.0,0.0,0.0,0.0,0.0,0.0,0.0,0.0,0.0,0.0,0.0,0.0,0.0,0.0,0.0,0.0,0.0,0.0,0.0,0.0,0.0,0.0,0.0,0.0,0.0,0.0,0.0,0.0,0.0,0.0,0.0,0.0,0.0,0.0,0.0,0.0,0.0,0.0,0.0,0.0,0.0,0.0,0.0,0.0,0.0,0.0,0.0,0.0,0.0,0.0,0.0,0.0,0.0,0.0,0.0,0.0,0.0,0.0,0.0,0.0,0.0,0.0,-0.7143,-0.7143,-0.7143,-0.7143,-0.7143,-0.7061,0.0,0.0,0.0,-0.1249,-0.0364,0.0,0.0,0.0,0.0,0.0,0.0,0.0,0.0,0.0,0.0,0.0,0.0,0.0,0.0,0.0,0.0,0.0,0.0,0.0,0.0,0.0,0.0,0.0,0.0,0.0,0.0,0.0,0.0,0.0,0.0,0.0,0.0,0.0,0.0,0.0,0.0,0.0,0.0,0.0,0.0,0.0,0.0,0.0,0.0,0.0,0.0,0.0,0.0,0.0,0.0,0.0,0.0,0.0,0.0,0.0,0.0,0.0,0.0,0.0,0.0,0.0,0.0,0.0,0.0,0.0,0.0,0.0,0.0,0.0,0.0,0.0,0.0,0.0,0.0,0.0,0.0,0.0,0.0,0.0,0.0,0.0,0.0,0.0,0.0,0.0,0.0,0.0,0.0,0.0,0.0,0.0,0.0,0.0,0.0,0.0,0.0,0.0,0.0,0.0,0.0,0.0,0.0,0.0,0.0,0.0,0.0,-0.7143,-0.7143,-0.7143,-0.7061,-0.7068,-0.7068,-0.7088,-0.6459,-0.5013,0.0,0.0,0.0,0.0,0.0,0.0,0.0,0.0,0.0,0.0,0.0,0.0,0.0,0.0,0.0,0.0,0.0,0.0,0.0,0.0,0.0,0.0,0.0,0.0,0.0,0.0,0.0,0.0,0.0,0.0,0.0,0.0,0.0,0.0,0.0,0.0,0.0,0.0,0.0,0.0,0.0,0.0,0.0,0.0,0.0,0.0,0.0,0.0,0.0,0.0,0.0,0.0,0.0,0.0,0.0,0.0,0.0,0.0,0.0,0.0,0.0,0.0,0.0,0.0,0.0,0.0,0.0,0.0,0.0,0.0,0.0,0.0,0.0,0.0,0.0,0.0,0.0,0.0,0.0,0.0,0.0,0.0,0.0,0.0,0.0,0.0,0.0,0.0,0.0,0.0,0.0,0.0,0.0,0.0,0.0,0.0,0.0,0.0,0.0,0.0,0.0,0.0,0.0,0.0,0.0,0.0,0.0,0.0,-0.7061,-0.7061,-0.7068,-0.6884,-0.634,-0.6346,-0.618,-0.5746,-0.2096,0.0,0.0,0.0,0.0,0.0,0.0,0.0,0.0,0.0,0.0,0.0,0.0,0.0,0.0,0.0,0.0,0.0,0.0,0.0,0.0,0.0,0.0,0.0,0.0,0.0,0.0,0.0,0.0,0.0,0.0,0.0,0.0,0.0,0.0,0.0,0.0,0.0,0.0,0.0,0.0,0.0,0.0,0.0,0.0,0.0,0.0,0.0,0.0,0.0,0.0,0.0,0.0,0.0,0.0,0.0,0.0,0.0,0.0,0.0,0.0,0.0,0.0,0.0,0.0,0.0,0.0,0.0,0.0,0.0,0.0,0.0,0.0,0.0,0.0,0.0,0.0,0.0,0.0,0.0,0.0,0.0,0.0,0.0,0.0,0.0,0.0,0.0,0.0,0.0,0.0,0.0,0.0,0.0,0.0,0.0,0.0,0.0,0.0,0.0,0.0,0.0,0.0,0.0,0.0,0.0,0.0,0.0,-0.6707,-0.6707,0.0,0.0,0.0,-0.6074,-0.5997,-0.5752,-0.2087,0.0,0.0,0.0,0.0,0.0,0.0,0.0,0.0,0.0,0.0,0.0,0.0,0.0,0.0,0.0,0.0,0.0,0.0,0.0,0.0,0.0,0.0,0.0,0.0,0.0,0.0,0.0,0.0,0.0,0.0,0.0,0.0,0.0,0.0,0.0,0.0,0.0,0.0,0.0,0.0,0.0,0.0,0.0,0.0,0.0,0.0,0.0,0.0,0.0,0.0,0.0,0.0,0.0,0.0,0.0,0.0,0.0,0.0,0.0,0.0,0.0,0.0,0.0,0.0,0.0,0.0,0.0,0.0,0.0,0.0,0.0,0.0,0.0,0.0,0.0,0.0,0.0,0.0,0.0,0.0,0.0,0.0,0.0,0.0,0.0,0.0,0.0,0.0,0.0,0.0,0.0,0.0,0.0,0.0,0.0,0.0,0.0,0.0,0.0,0.0,0.0,0.0,0.0,0.0,0.0,0.0,0.0,-0.5797,-0.5797,-0.5802,-0.608,-0.6992,-0.6992,-0.6631,-0.5735,-0.2147,0.0,0.0,0.0,0.0,0.0,0.0,0.0,0.0,0.0,0.0,0.0,0.0,0.0,0.0,0.0,0.0,0.0,0.0,0.0,0.0,0.0,0.0,0.0,0.0,0.0,0.0,0.0,0.0,0.0,0.0,0.0,0.0,0.0,0.0,0.0,0.0,0.0,0.0,0.0,0.0,0.0,0.0,0.0,0.0,0.0,0.0,0.0,0.0,0.0,0.0,0.0,0.0,0.0,0.0,0.0,0.0,0.0,0.0,0.0,0.0,0.0,0.0,0.0,0.0,0.0,0.0,0.0,0.0,0.0,0.0,0.0,0.0,0.0,0.0,0.0,0.0,0.0,0.0,0.0,0.0,0.0,0.0,0.0,0.0,0.0,0.0,0.0,0.0,0.0,0.0,0.0,0.0,0.0,0.0,0.0,0.0,0.0,0.0,0.0,0.0,0.0,0.0,0.0,0.0,0.0,0.0,0.0,0.0,0.0,-0.5663,-0.5817,-0.6192,-0.6732,-0.6739,-0.5752,-0.4401,-0.2521,-0.0091,0.0,0.0,0.0,0.0,0.0,0.0,0.0,0.0,0.0,0.0,0.0,0.0,0.0,0.0,0.0,0.0,0.0,0.0,0.0,0.0,0.0,0.0,0.0,0.0,0.0,0.0,0.0,0.0,0.0,0.0,0.0,0.0,0.0,0.0,0.0,0.0,0.0,0.0,0.0,0.0,0.0,0.0,0.0,0.0,0.0,0.0,0.0,0.0,0.0,0.0,0.0,0.0,0.0,0.0,0.0,0.0,0.0,0.0,0.0,0.0,0.0,0.0,0.0,0.0,0.0,0.0,0.0,0.0,0.0,0.0,0.0,0.0,0.0,0.0,0.0,0.0,0.0,0.0,0.0,0.0,0.0,0.0,0.0,0.0,0.0,0.0,0.0,0.0,0.0,0.0,0.0,0.0,0.0,0.0,0.0,0.0,0.0,0.0,0.0,0.0,0.0,0.0,-0.0908,-0.3411,0.0,0.0,0.0,0.0,-0.5747,-0.5721,-0.6262,-0.579,-0.3946,-0.3771,-0.2695,-0.009,0.0,0.0,0.0,0.0,0.0,0.0,0.0,0.0,0.0,0.0,0.0,0.0,0.0,0.0,0.0,0.0,0.0,0.0,0.0,0.0,0.0,0.0,0.0,0.0,0.0,0.0,0.0,0.0,0.0,0.0,0.0,0.0,0.0,0.0,0.0,0.0,0.0,0.0,0.0,0.0,0.0,0.0,0.0,0.0,0.0,0.0,0.0,0.0,0.0,0.0,0.0,0.0,0.0,0.0,0.0,0.0,0.0,0.0,0.0,0.0,0.0,0.0,0.0,0.0,0.0,0.0,0.0,0.0,0.0,0.0,0.0,0.0,0.0,0.0,0.0,0.0,0.0,0.0,0.0,0.0,0.0,0.0,0.0,0.0,0.0,0.0,0.0,0.0,0.0,0.0,0.0,0.0,0.0,0.0,0.0,0.0,0.0,0.0,0.0,0.0,0.0,0.0,0.0,0.0,0.0,0.0,0.0,0.0,0.0,-0.5573,-0.5563,-0.3941,-0.0268,0.0,0.0,0.0,0.0,0.0,0.0,0.0,0.0,0.0,0.0,0.0,0.0,0.0,0.0,0.0,0.0,0.0,0.0,0.0,0.0,0.0,0.0,0.0,0.0,0.0,0.0,0.0,0.0,0.0,0.0,0.0,0.0,0.0,0.0,0.0,0.0,0.0,0.0,0.0,0.0,0.0,0.0,0.0,0.0,0.0,0.0,0.0,0.0,0.0,0.0,0.0,0.0,0.0,0.0,0.0,0.0,0.0,0.0,0.0,0.0,0.0,0.0,0.0,0.0,0.0,0.0,0.0,0.0,0.0,0.0,0.0,0.0,0.0,0.0,0.0,0.0,0.0,0.0,0.0,0.0,0.0,0.0,0.0,0.0,0.0,0.0,0.0,0.0,0.0,0.0,0.0,0.0,0.0,0.0,0.0,0.0,0.0,0.0,0.0,0.0,0.0,0.0,0.0,0.0,0.0,0.0,0.0,0.0,0.0,0.0,-0.0971,-0.155,-0.154,-0.1616,-0.1122,-0.0092,0.0,0.0,0.0,0.0,0.0,0.0,0.0,0.0,0.0,0.0,0.0,0.0,0.0,0.0,0.0,0.0,0.0,0.0,0.0,0.0,0.0,0.0,0.0,0.0,0.0,0.0,0.0,0.0,0.0,0.0,0.0,0.0,0.0,0.0,0.0,0.0,0.0,0.0,0.0,0.0,0.0,0.0,0.0,0.0,0.0,0.0,0.0,0.0,0.0,0.0,0.0,0.0,0.0,0.0,0.0,0.0,0.0,0.0,0.0,0.0,0.0,0.0,0.0,0.0,0.0,0.0,0.0,0.0,0.0,0.0,0.0,0.0,0.0,0.0,0.0,0.0,0.0,0.0,0.0,0.0,0.0,0.0,0.0,0.0,0.0,0.0,0.0,0.0,0.0,0.0,0.0,0.0,0.0,0.0,0.0,0.0,0.0,0.0,0.0,0.0,0.0,0.0,0.0,0.0,0.0,0.0,0.0,0.0,0.0,0.0,0.0,0.0,0.0,0.0,0.0,0.0,0.0,0.0,0.0,0.0,0.0,0.0,0.0,0.0,0.0,0.0,0.0,0.0,0.0,0.0,0.0,0.0,0.0,0.0,0.0,0.0,0.0,0.0,0.0,0.0,0.0,0.0,0.0,0.0,0.0,0.0,0.0,0.0,0.0,0.0,0.0,0.0,0.0,0.0,0.0,0.0,0.0,0.0,0.0,0.0,0.0,0.0,0.0,0.0,0.0,0.0,0.0,0.0,0.0,0.0,0.0,0.0,0.0,0.0,0.0,0.0,0.0,0.0,0.0,0.0,0.0,0.0,0.0,0.0,0.0,0.0,0.0,0.0,0.0,0.0,0.0,0.0,0.0,0.0,0.0,0.0,0.0,0.0,0.0,0.0,0.0,0.0,0.0,0.0,0.0,0.0,0.0,0.0,0.0,0.0,0.0,0.0,0.0,0.0,0.0,0.0,0.0,0.0,0.0,0.0,0.0,0.0,0.0,0.0,0.0,0.0,0.0,0.0,0.0,0.0,0.0,0.0,0.0,0.0,0.0,0.0,0.0,0.0,0.0,0.0,0.0,0.0,0.0,0.0,0.0,0.0,0.0,0.0,0.0,0.0,0.0,0.0,0.0,0.0,0.0,0.0,0.0,0.0,0.0,0.0,0.0,0.0,0.0,0.0,0.0,0.0,0.0,0.0,0.0,0.0,0.0,0.0,0.0,0.0,0.0,0.0,0.0,0.0,0.0,0.0,0.0,0.0,0.0,0.0,0.0,0.0,0.0,0.0,0.0,0.0,0.0,0.0,0.0,0.0,0.0,0.0,0.0,0.0,0.0,0.0,0.0,0.0,0.0,0.0,0.0,0.0,0.0,0.0,0.0,0.0,0.0,0.0,0.0,0.0,0.0,0.0,0.0,0.0,0.0,0.0,0.0,0.0,0.0,0.0,0.0,0.0,0.0,0.0,0.0,0.0,0.0,0.0,0.0,0.0,0.0,0.0,0.0,0.0,0.0,0.0,0.0,0.0,0.0,0.0,0.0,0.0,0.0,0.0,0.0,0.0,0.0,0.0,0.0,0.0,0.0,0.0,0.0,0.0,0.0,0.0,0.0,0.0,0.0,0.0,0.0,0.0,0.0,0.0,0.0,0.0,0.0,0.0,0.0,0.0,0.0,0.0,0.0,0.0,0.0,0.0,0.0,0.0,0.0,0.0,0.0,0.0,0.0,0.0,0.0,0.0,0.0,0.0,0.0,0.0,0.0,0.0,0.0,0.0,0.0,0.0,0.0,0.0,0.0,0.0,0.0,0.0,0.0,0.0,0.0,0.0,0.0,0.0,0.0,0.0,0.0,0.0,0.0,0.0,0.0,0.0,0.0,0.0,0.0,0.0,0.0,0.0,0.0,0.0,0.0,0.0,0.0,0.0,0.0,0.0,0.0,0.0,0.0,0.0,0.0,0.0,0.0,0.0,0.0,0.0,0.0,0.0,0.0,0.0,0.0,0.0,0.0,0.0,0.0,0.0,0.0,0.0,0.0,0.0,0.0,0.0,0.0,0.0,0.0,0.0,0.0,0.0,0.0,0.0,0.0,0.0,0.0,0.0,0.0,0.0,0.0,0.0,0.0,0.0,0.0,0.0,0.0,0.0,0.0,0.0,0.0,0.0,0.0,0.0,0.0,0.0,0.0,0.0,0.0,0.0,0.0,0.0,0.0,0.0,0.0,0.0,0.0,0.0,0.0,0.0,0.0,0.0,0.0,0.0,0.0,0.0,0.0,0.0,0.0,0.0,0.0,0.0,0.0,0.0,0.0,0.0,0.0,0.0,0.0,0.0,0.0,0.0,0.0,0.0,0.0,0.0,0.0,0.0,0.0,0.0,0.0,0.0,0.0,0.0,0.0,0.0,0.0,0.0,0.0,0.0,0.0,0.0,0.0,0.0,0.0,0.0,0.0,0.0,0.0,0.0,0.0,0.0,0.0,0.0,0.0,0.0,0.0,0.0,0.0,0.0,0.0,0.0,0.0,0.0,0.0,0.0,0.0,0.0,0.0,0.0,0.0,0.0,0.0,0.0,0.0,0.0,0.0,0.0,0.0,0.0,0.0,0.0,0.0,0.0,0.0,0.0,0.0,0.0,0.0,0.0,0.0,0.0,0.0,0.0,0.0,0.0,0.0417,0.0,0.0498,0.0698,0.0569,0.0587,0.0592,0.0203,0.0,0.0,0.0,0.0,0.0,0.0,0.0,0.0,0.0,0.0,0.0,0.0,0.0,0.0,0.0,0.0,0.0,0.0,0.0,0.0,0.0,0.0,0.0,0.0,0.0,0.0,0.0,0.0,0.0,0.0,0.0,0.0,0.0,0.0,0.0,0.0,0.0,0.0,0.0,0.0,0.0,0.0,0.0,0.0,0.0,0.0,0.0,0.0,0.0,0.0,0.0,0.0,0.0,0.0,0.0,0.0,0.0,0.0,0.0,0.0,0.0,0.0,0.0,0.0,0.0,0.0,0.0,0.0,0.0,0.0,0.0,0.0,0.0,0.0,0.0,0.0,0.0,0.0,0.0,0.0,0.0,0.0,0.0,0.0,0.0,0.0,0.0,0.0,0.0,0.0,0.0,0.0,0.0,0.0,0.0,0.0,0.0,0.0,0.0,0.0,0.0,0.0,0.0,0.0,0.0,0.0,0.0,0.0706,0.0,0.1961,0.2278,0.0,0.2748,0.2842,0.2639,0.0602,0.0,0.0,0.0,0.0,0.0,0.0,0.0,0.0,0.0,0.0,0.0,0.0,0.0,0.0,0.0,0.0,0.0,0.0,0.0,0.0,0.0,0.0,0.0,0.0,0.0,0.0,0.0,0.0,0.0,0.0,0.0,0.0,0.0,0.0,0.0,0.0,0.0,0.0,0.0,0.0,0.0,0.0,0.0,0.0,0.0,0.0,0.0,0.0,0.0,0.0,0.0,0.0,0.0,0.0,0.0,0.0,0.0,0.0,0.0,0.0,0.0,0.0,0.0,0.0,0.0,0.0,0.0,0.0,0.0,0.0,0.0,0.0,0.0,0.0,0.0,0.0,0.0,0.0,0.0,0.0,0.0,0.0,0.0,0.0,0.0,0.0,0.0,0.0,0.0,0.0,0.0,0.0,0.0,0.0,0.0,0.0,0.0,0.0,0.0,0.0,0.0,0.0,0.0,0.0,0.0,0.0,0.0,0.1759,0.0,0.0,0.0,0.0,0.3124,0.3282,0.3084,0.2206,0.1016,0.0,0.0,0.058,0.0,0.0,0.0,0.0,0.0,0.0,0.0,0.0,0.0,0.0,0.0,0.0,0.0,0.0,0.0,0.0,0.0,0.0,0.0,0.0,0.0,0.0,0.0,0.0,0.0,0.0,0.0,0.0,0.0,0.0,0.0,0.0,0.0,0.0,0.0,0.0,0.0,0.0,0.0,0.0,0.0,0.0,0.0,0.0,0.0,0.0,0.0,0.0,0.0,0.0,0.0,0.0,0.0,0.0,0.0,0.0,0.0,0.0,0.0,0.0,0.0,0.0,0.0,0.0,0.0,0.0,0.0,0.0,0.0,0.0,0.0,0.0,0.0,0.0,0.0,0.0,0.0,0.0,0.0,0.0,0.0,0.0,0.0,0.0,0.0,0.0,0.0,0.0,0.0,0.0,0.0,0.0,0.0,0.0,0.0,0.0,0.0,0.0,0.0,0.0,0.0276,0.0912,0.0,0.248,0.2084,0.2908,0.3254,0.3153,0.2601,0.2725,0.315,0.3212,0.2215,0.1002,0.1799,0.1547,0.0747,0.0194,0.0,0.0,0.0,0.0,0.0,0.0,0.0,0.0,0.0,0.0,0.0,0.0,0.0,0.0,0.0,0.0,0.0,0.0,0.0,0.0,0.0,0.0,0.0,0.0,0.0,0.0,0.0,0.0,0.0,0.0,0.0,0.0,0.0,0.0,0.0,0.0,0.0,0.0,0.0,0.0,0.0,0.0,0.0,0.0,0.0,0.0,0.0,0.0,0.0,0.0,0.0,0.0,0.0,0.0,0.0,0.0,0.0,0.0,0.0,0.0,0.0,0.0,0.0,0.0,0.0,0.0,0.0,0.0,0.0,0.0,0.0,0.0,0.0,0.0,0.0,0.0,0.0,0.0,0.0,0.0,0.0,0.0,0.0,0.0,0.0,0.0,0.0,0.0,0.0,0.0,0.0,0.0,0.0,0.0,0.0,0.0,0.0,0.0,0.1097,0.3084,0.3116,0.291,0.2267,0.2936,0.3176,0.2914,0.0,0.133,0.315,0.3212,0.0,0.3141,0.3112,0.3097,0.2689,0.0741,0.0,0.0,0.0,0.0,0.0,0.0,0.0,0.0,0.0,0.0,0.0,0.0,0.0,0.0,0.0,0.0,0.0,0.0,0.0,0.0,0.0,0.0,0.0,0.0,0.0,0.0,0.0,0.0,0.0,0.0,0.0,0.0,0.0,0.0,0.0,0.0,0.0,0.0,0.0,0.0,0.0,0.0,0.0,0.0,0.0,0.0,0.0,0.0,0.0,0.0,0.0,0.0,0.0,0.0,0.0,0.0,0.0,0.0,0.0,0.0,0.0,0.0,0.0,0.0,0.0,0.0,0.0,0.0,0.0,0.0,0.0,0.0,0.0,0.0,0.0,0.0,0.0,0.0,0.0,0.0,0.0,0.0,0.0,0.0,0.0,0.0,0.0,0.0,0.0,0.0,0.0,0.0,0.0,0.0,0.0,0.0,0.0,0.0,0.1149,0.0,0.0,0.0,0.0,0.0,0.3171,0.3086,0.2344,0.2541,0.312,0.2386,0.2592,0.3171,0.3161,0.2348,0.1162,0.1951,0.1142,0.0,0.0,0.0,0.0,0.0,0.0,0.0,0.0,0.0,0.0,0.0,0.0,0.0,0.0,0.0,0.0,0.0,0.0,0.0,0.0,0.0,0.0,0.0,0.0,0.0,0.0,0.0,0.0,0.0,0.0,0.0,0.0,0.0,0.0,0.0,0.0,0.0,0.0,0.0,0.0,0.0,0.0,0.0,0.0,0.0,0.0,0.0,0.0,0.0,0.0,0.0,0.0,0.0,0.0,0.0,0.0,0.0,0.0,0.0,0.0,0.0,0.0,0.0,0.0,0.0,0.0,0.0,0.0,0.0,0.0,0.0,0.0,0.0,0.0,0.0,0.0,0.0,0.0,0.0,0.0,0.0,0.0,0.0,0.0,0.0,0.0,0.0,0.0,0.0,0.0,0.0,0.0,0.0,0.0,0.0,0.0,0.0,0.1154,0.3225,0.3195,0.3194,0.0,0.0,0.323,0.311,0.3186,0.3153,0.3077,0.2377,0.2585,0.3159,0.318,0.1976,0.0785,0.1799,0.137,0.057,0.0194,0.0,0.0,0.0,0.0,0.0,0.0,0.0,0.0,0.0,0.0,0.0,0.0,0.0,0.0,0.0,0.0,0.0,0.0,0.0,0.0,0.0,0.0,0.0,0.0,0.0,0.0,0.0,0.0,0.0,0.0,0.0,0.0,0.0,0.0,0.0,0.0,0.0,0.0,0.0,0.0,0.0,0.0,0.0,0.0,0.0,0.0,0.0,0.0,0.0,0.0,0.0,0.0,0.0,0.0,0.0,0.0,0.0,0.0,0.0,0.0,0.0,0.0,0.0,0.0,0.0,0.0,0.0,0.0,0.0,0.0,0.0,0.0,0.0,0.0,0.0,0.0,0.0,0.0,0.0,0.0,0.0,0.0,0.0171,0.0168,0.018,0.0,0.0,0.0,0.0,0.0,0.0,0.0,0.0,0.0,0.0,0.1116,0.3001,0.3173,0.3076,0.3149,0.3346,0.3363,0.3189,0.319,0.3116,0.322,0.3176,0.3174,0.3111,0.3168,0.2591,0.1595,0.0399,0.0803,0.1416,0.0202,0.0,0.0,0.0,0.0,0.0,0.0,0.0,0.0,0.0,0.0,0.0,0.0,0.0,0.0,0.0,0.0,0.0,0.0,0.0,0.0,0.0,0.0,0.0,0.0,0.0,0.0,0.0,0.0,0.0,0.0,0.0,0.0,0.0,0.0,0.0,0.0,0.0,0.0,0.0,0.0,0.0,0.0,0.0,0.0,0.0,0.0,0.0,0.0,0.0,0.0,0.0,0.0,0.0,0.0,0.0,0.0,0.0,0.0,0.0,0.0,0.0,0.0,0.0,0.0,0.0,0.0,0.0,0.0,0.0,0.0,0.0,0.0,0.0,0.0,0.0,0.0,0.0,0.0,0.0,0.0,0.0,0.0,0.1606,0.2431,0.2387,0.241,0.0,0.0,0.0,0.0,0.0,0.0,0.0,0.0,0.0,0.0278,0.0957,0.2472,0.2351,0.1012,0.2633,0.322,0.3191,0.3212,0.3159,0.3278,0.317,0.3185,0.3167,0.3183,0.3002,0.2621,0.2436,0.1426,0.0409,0.0,0.0,0.0,0.0,0.0,0.0,0.0,0.0,0.0,0.0,0.0,0.0,0.0,0.0,0.0,0.0,0.0,0.0,0.0,0.0,0.0,0.0,0.0,0.0,0.0,0.0,0.0,0.0,0.0,0.0,0.0,0.0,0.0,0.0,0.0,0.0,0.0,0.0,0.0,0.0,0.0,0.0,0.0,0.0,0.0,0.0,0.0,0.0,0.0,0.0,0.0,0.0,0.0,0.0,0.0,0.0,0.0,0.0,0.0,0.0,0.0,0.0,0.0,0.0,0.0,0.0,0.0,0.0,0.0,0.0,0.0,0.0,0.0,0.0,0.0,0.0,0.0,0.0,0.0,0.0,0.0,0.0,0.1342,0.261,0.316,0.3252,0.3147,0.0,0.0,0.0,0.0,0.0,0.0,0.0359,0.0846,0.0878,0.0954,0.1066,0.1502,0.1641,0.1581,0.2814,0.3418,0.0,0.3206,0.3189,0.316,0.3194,0.3198,0.3189,0.3189,0.32,0.3217,0.3234,0.2436,0.1224,0.0206,0.0,0.0,0.0,0.0,0.0,0.0,0.0,0.0,0.0,0.0,0.0,0.0,0.0,0.0,0.0,0.0,0.0,0.0,0.0,0.0,0.0,0.0,0.0,0.0,0.0,0.0,0.0,0.0,0.0,0.0,0.0,0.0,0.0,0.0,0.0,0.0,0.0,0.0,0.0,0.0,0.0,0.0,0.0,0.0,0.0,0.0,0.0,0.0,0.0,0.0,0.0,0.0,0.0,0.0,0.0,0.0,0.0,0.0,0.0,0.0,0.0,0.0,0.0,0.0,0.0,0.0,0.0,0.0,0.0,0.0,0.0,0.0,0.0,0.0,0.0,0.0,0.0196,0.0386,0.037,0.2111,0.3086,0.3146,0.3106,0.319,0.3194,0.3236,0.2325,0.0,0.0302,0.0275,0.0251,0.0244,0.0843,0.205,0.2018,0.2016,0.2186,0.0859,0.1485,0.3432,0.3355,0.3399,0.32,0.3195,0.3209,0.323,0.323,0.3215,0.3194,0.3194,0.3194,0.3194,0.3198,0.3217,0.2839,0.1023,0.0411,0.0412,0.0,0.0,0.0,0.0,0.0,0.0,0.0,0.0,0.0,0.0,0.0,0.0,0.0,0.0,0.0,0.0,0.0,0.0,0.0,0.0,0.0,0.0,0.0,0.0,0.0,0.0,0.0,0.0,0.0,0.0,0.0,0.0,0.0,0.0,0.0,0.0,0.0,0.0,0.0,0.0,0.0,0.0,0.0,0.0,0.0,0.0,0.0,0.0,0.0,0.0,0.0,0.0,0.0,0.0,0.0,0.0,0.0,0.0,0.0,0.0,0.0,0.0,0.0,0.0,0.0,0.0,0.0,0.0,0.0,0.0,0.0,0.0,0.0,0.0,0.1571,0.0,0.0,0.0,0.0,0.3141,0.3171,0.32,0.3223,0.3268,0.3063,0.0,0.2148,0.1665,0.146,0.1573,0.1798,0.2016,0.1862,0.1965,0.2136,0.2142,0.2486,0.3433,0.3251,0.326,0.3257,0.3232,0.3225,0.323,0.323,0.3227,0.3223,0.3223,0.3223,0.3227,0.3253,0.3264,0.307,0.2685,0.2706,0.2304,0.0419,0.0,0.0,0.0,0.0,0.0,0.0,0.0,0.0,0.0,0.0,0.0,0.0,0.0,0.0,0.0,0.0,0.0,0.0,0.0,0.0,0.0,0.0,0.0,0.0,0.0,0.0,0.0,0.0,0.0,0.0,0.0,0.0,0.0,0.0,0.0,0.0,0.0,0.0,0.0,0.0,0.0,0.0,0.0,0.0,0.0,0.0,0.0,0.0,0.0,0.0,0.0,0.0,0.0,0.0,0.0,0.0,0.0,0.0,0.0,0.0,0.0,0.0,0.0,0.1415,0.1634,0.1288,0.0184,0.0,0.0,0.0,0.0968,0.1571,0.1571,0.2553,0.3142,0.3142,0.3142,0.3149,0.3164,0.318,0.3194,0.3208,0.3168,0.3176,0.3338,0.2553,0.2028,0.1852,0.1945,0.1924,0.1918,0.1984,0.2058,0.229,0.2711,0.3067,0.3365,0.3245,0.3266,0.325,0.3236,0.323,0.323,0.323,0.323,0.323,0.323,0.323,0.3232,0.3247,0.3253,0.3258,0.3288,0.3307,0.3119,0.2098,0.0844,0.0,0.0,0.0,0.0,0.0,0.0,0.0,0.0,0.0,0.0,0.0,0.0,0.0,0.0,0.0,0.0,0.0,0.0,0.0,0.0,0.0,0.0,0.0,0.0,0.0,0.0,0.0,0.0,0.0,0.0,0.0,0.0,0.0,0.0,0.0,0.0,0.0,0.0,0.0,0.0,0.0,0.0,0.0,0.0,0.0,0.0,0.0,0.0,0.0,0.0,0.0,0.0,0.0,0.0,0.0,0.0,0.0,0.0,0.0,0.0,0.0342,0.1238,0.2941,0.3239,0.2511,0.0944,0.0753,0.0753,0.0753,0.2132,0.316,0.3153,0.3157,0.3161,0.3161,0.3161,0.3161,0.3161,0.3185,0.3197,0.3197,0.3249,0.3297,0.3438,0.2499,0.1982,0.1953,0.188,0.1871,0.1927,0.2148,0.2329,0.2481,0.31,0.325,0.311,0.3221,0.3251,0.3231,0.3238,0.324,0.324,0.3247,0.3245,0.324,0.324,0.3235,0.323,0.323,0.323,0.3235,0.3258,0.327,0.3285,0.3335,0.1887,0.0211,0.0,0.0,0.0,0.0,0.0,0.0,0.0,0.0,0.0,0.0,0.0,0.0,0.0,0.0,0.0,0.0,0.0,0.0,0.0,0.0,0.0,0.0,0.0,0.0,0.0,0.0,0.0,0.0,0.0,0.0,0.0,0.0,0.0,0.0,0.0,0.0,0.0,0.0,0.0,0.0,0.0,0.0,0.0,0.0,0.0,0.0,0.0,0.0,0.0,0.0,0.0,0.0,0.0,0.0,0.0,0.0,0.0,0.0,0.0,0.147,0.2816,0.307,0.3137,0.3176,0.297,0.2969,0.2969,0.2969,0.3002,0.3215,0.3186,0.3208,0.3223,0.3223,0.3223,0.3223,0.3223,0.3224,0.3227,0.3227,0.3258,0.3362,0.3487,0.2595,0.2075,0.2012,0.1888,0.1933,0.2117,0.2141,0.2662,0.3375,0.3165,0.3272,0.3254,0.324,0.3232,0.3234,0.3261,0.3272,0.3275,0.3302,0.3295,0.3272,0.3272,0.3253,0.323,0.323,0.323,0.3231,0.3234,0.3254,0.3277,0.3283,0.2493,0.1262,0.021,0.0,0.0,0.0,0.0,0.0,0.0,0.0,0.0,0.0,0.0,0.0,0.0,0.0,0.0,0.0,0.0,0.0,0.0,0.0,0.0,0.0,0.0,0.0,0.0,0.0,0.0,0.0,0.0,0.0,0.0,0.0,0.0,0.0,0.0,0.0,0.0,0.0,0.0,0.0,0.0,0.0,0.0,0.0,0.0,0.0,0.0,0.0,0.0,0.0,0.0,0.0,0.0,0.0,0.0,0.0,0.109,0.2012,0.2086,0.2676,0.3286,0.319,0.324,0.3268,0.3268,0.3236,0.3213,0.3213,0.324,0.3254,0.3242,0.3268,0.3284,0.3284,0.3284,0.3276,0.3258,0.3275,0.3268,0.3231,0.3277,0.3191,0.3332,0.2974,0.2768,0.2237,0.218,0.2105,0.2445,0.2735,0.3059,0.3221,0.3134,0.3225,0.33,0.3269,0.3268,0.3284,0.3277,0.3287,0.3305,0.3317,0.3313,0.3303,0.3303,0.327,0.323,0.323,0.323,0.323,0.323,0.3239,0.3253,0.327,0.2893,0.2298,0.042,0.0,0.0,0.0,0.0,0.0,0.0,0.0,0.0,0.0,0.0,0.0,0.0,0.0,0.0,0.0,0.0,0.0,0.0,0.0,0.0,0.0,0.0,0.0,0.0,0.0,0.0,0.0,0.0,0.0,0.0,0.0,0.0,0.0,0.0,0.0,0.0,0.0,0.0,0.0,0.0,0.0,0.0,0.0,0.0,0.0,0.0,0.0,0.0,0.0,0.0,0.0,0.0,0.0,0.0,0.0966,0.2309,0.3475,0.3391,0.3391,0.3405,0.329,0.3313,0.3321,0.3321,0.3284,0.3257,0.3257,0.3276,0.3288,0.3288,0.3309,0.3321,0.3321,0.3321,0.3311,0.329,0.331,0.3296,0.3245,0.3285,0.3224,0.3244,0.3247,0.3073,0.2756,0.2549,0.2635,0.2655,0.3158,0.3255,0.3122,0.3261,0.3321,0.332,0.3298,0.3302,0.3112,0.3307,0.3315,0.3336,0.3344,0.3341,0.3335,0.3335,0.3299,0.3257,0.3257,0.3251,0.3243,0.3243,0.3238,0.3235,0.3257,0.3291,0.2912,0.1469,0.0424,0.0,0.0,0.0,0.0,0.0,0.0,0.0,0.0,0.0,0.0,0.0,0.0,0.0,0.0,0.0,0.0,0.0,0.0,0.0,0.0,0.0,0.0,0.0,0.0,0.0,0.0,0.0,0.0,0.0,0.0,0.0,0.0,0.0,0.0,0.0,0.0,0.0,0.0,0.0,0.0,0.0,0.0,0.0,0.0,0.0,0.0,0.0,0.0,0.0,0.0,0.0,0.0,0.0,0.3415,0.3456,0.3496,0.3352,0.3363,0.3363,0.3365,0.334,0.3321,0.3321,0.3321,0.332,0.3112,0.3112,0.332,0.3321,0.3321,0.3321,0.3321,0.3321,0.3321,0.3321,0.3321,0.3307,0.3481,0.3276,0.3275,0.3272,0.3253,0.3159,0.3184,0.3383,0.3271,0.3137,0.3108,0.3195,0.315,0.3333,0.3321,0.3321,0.3321,0.3321,0.3116,0.3354,0.3366,0.337,0.34,0.3392,0.3366,0.3366,0.3345,0.332,0.332,0.3299,0.3275,0.3275,0.3254,0.323,0.3231,0.3275,0.3328,0.3359,0.1705,0.0,0.0,0.0,0.0,0.0,0.0,0.0,0.0,0.0,0.0,0.0,0.0,0.0,0.0,0.0,0.0,0.0,0.0,0.0,0.0,0.0,0.0,0.0,0.0,0.0,0.0,0.0,0.0,0.0,0.0,0.0,0.0,0.0,0.0,0.0,0.0,0.0,0.0,0.0,0.0,0.0,0.0,0.0,0.0,0.0,0.0,0.0,0.0,0.0,0.0,0.0,0.0,0.0,0.3366,0.3389,0.3186,0.3397,0.3397,0.3397,0.3397,0.3389,0.3382,0.3382,0.3382,0.3382,0.3382,0.3365,0.3352,0.3352,0.3371,0.3382,0.3382,0.3382,0.3374,0.3352,0.3371,0.3359,0.3307,0.3326,0.312,0.3099,0.3333,0.3262,0.3292,0.3242,0.3125,0.3294,0.3264,0.3294,0.3366,0.3356,0.3365,0.3381,0.336,0.3365,0.3382,0.337,0.338,0.3399,0.3408,0.3405,0.3397,0.3397,0.339,0.3382,0.3382,0.3348,0.3302,0.3281,0.3269,0.3257,0.3236,0.3275,0.3328,0.3359,0.2985,0.1949,0.0437,0.0,0.0,0.0,0.0,0.0,0.0,0.0,0.0,0.0,0.0,0.0,0.0,0.0,0.0,0.0,0.0,0.0,0.0,0.0,0.0,0.0,0.0,0.0,0.0,0.0,0.0,0.0,0.0,0.0,0.0,0.0,0.0,0.0,0.0,0.0,0.0,0.0,0.0,0.0,0.0,0.0,0.0,0.0,0.0,0.0,0.0,0.0,0.0,0.0,0.0,0.0,0.4261,0.3423,0.3212,0.34,0.3404,0.3412,0.3412,0.3412,0.3412,0.3412,0.3412,0.3412,0.3412,0.3395,0.3384,0.3384,0.3401,0.3412,0.3412,0.3412,0.3403,0.3384,0.3401,0.3389,0.3339,0.3356,0.3351,0.3321,0.343,0.3391,0.3411,0.321,0.3266,0.3366,0.3347,0.3355,0.3384,0.3384,0.3395,0.341,0.3392,0.3395,0.341,0.339,0.3396,0.3412,0.3412,0.3412,0.3412,0.3412,0.3412,0.3412,0.3412,0.3385,0.335,0.3318,0.3302,0.3288,0.3269,0.33,0.3345,0.3375,0.342,0.2817,0.0439,0.0,0.0,0.0,0.0,0.0,0.0,0.0,0.0,0.0,0.0,0.0,0.0,0.0,0.0,0.0,0.0,0.0,0.0,0.0,0.0,0.0,0.0,0.0,0.0,0.0,0.0,0.0,0.0,0.0,0.0,0.0,0.0,0.0,0.0,0.0,0.0,0.0,0.0,0.0,0.0,0.0,0.0,0.0,0.0,0.0,0.0,0.0,0.0,0.0,0.0,0.0,0.6318,0.4014,0.3393,0.3373,0.3392,0.3411,0.3412,0.3412,0.3412,0.3412,0.3412,0.3412,0.3415,0.3415,0.3415,0.3418,0.3414,0.3412,0.3412,0.3412,0.3412,0.3412,0.3412,0.3399,0.337,0.337,0.3355,0.3328,0.3328,0.3328,0.3328,0.3328,0.3343,0.337,0.337,0.3385,0.3412,0.3412,0.3412,0.3412,0.3412,0.3412,0.3412,0.3412,0.3412,0.3412,0.3412,0.3412,0.3412,0.3412,0.3412,0.3412,0.3412,0.3414,0.3408,0.3375,0.3347,0.3324,0.3322,0.3343,0.3374,0.3404,0.3438,0.2826,0.0442,0.0,0.0,0.0,0.0,0.0,0.0,0.0,0.0,0.0,0.0,0.0,0.0,0.0,0.0,0.0,0.0,0.0,0.0,0.0,0.0,0.0,0.0,0.0,0.0,0.0,0.0,0.0,0.0,0.0,0.0,0.0,0.0,0.0,0.0,0.0,0.0,0.0,0.0,0.0,0.0,0.0,0.0,0.0,0.0,0.0,0.0,0.0,0.0,0.0,0.0,0.0,1.4372,0.8126,0.3418,0.3395,0.3396,0.3403,0.3411,0.3412,0.3412,0.3412,0.3412,0.342,0.3444,0.3446,0.3456,0.3479,0.3438,0.3412,0.3412,0.3412,0.3412,0.3412,0.3412,0.3408,0.3401,0.3401,0.3397,0.339,0.339,0.339,0.339,0.339,0.3395,0.3401,0.3401,0.3405,0.3412,0.3412,0.3412,0.3412,0.3412,0.3412,0.3412,0.3412,0.3412,0.3412,0.3412,0.3412,0.3412,0.3412,0.3412,0.3412,0.3412,0.3427,0.3435,0.3382,0.3362,0.3351,0.3328,0.3343,0.3374,0.3404,0.3469,0.2873,0.0446,0.0,0.0,0.0,0.0,0.0,0.0,0.0,0.0,0.0,0.0,0.0,0.0,0.0,0.0,0.0,0.0,0.0,0.0,0.0,0.0,0.0,0.0,0.0,0.0,0.0,0.0,0.0,0.0,0.0,0.0,0.0,0.0,0.0,0.0,0.0,0.0,0.0,0.0,0.0,0.0,0.0,0.0,0.0,0.0,0.0,0.0,0.0,0.0,0.0,0.0,0.0,1.6962,1.3041,0.9599,0.9576,0.6155,0.3395,0.34,0.3403,0.3405,0.3405,0.341,0.3423,0.3453,0.3457,0.3469,0.3499,0.346,0.3433,0.3433,0.3419,0.3412,0.3412,0.3412,0.3412,0.3412,0.3412,0.3412,0.3412,0.3412,0.3412,0.3412,0.3412,0.3412,0.3412,0.3412,0.3412,0.3412,0.3412,0.3412,0.3412,0.3412,0.3412,0.3412,0.3412,0.3412,0.3412,0.3412,0.3412,0.3412,0.3412,0.3412,0.3412,0.3412,0.3423,0.3433,0.3414,0.3408,0.3404,0.3388,0.3385,0.3395,0.3425,0.3491,0.3108,0.1115,0.0448,0.0,0.0,0.0,0.0,0.0,0.0,0.0,0.0,0.0,0.0,0.0,0.0,0.0,0.0,0.0,0.0,0.0,0.0,0.0,0.0,0.0,0.0,0.0,0.0,0.0,0.0,0.0,0.0,0.0,0.0,0.0,0.0,0.0,0.0,0.0,0.0,0.0,0.0,0.0,0.0,0.0,0.0,0.0,0.0,0.0,0.0,0.0,0.0,0.0,0.0,1.7039,1.7026,1.7046,1.6902,1.0627,0.5508,0.5516,0.5521,0.4884,0.3608,0.3403,0.3422,0.3456,0.346,0.3691,0.3509,0.3484,0.3465,0.3464,0.344,0.3423,0.3419,0.3419,0.3416,0.3412,0.3412,0.3412,0.3412,0.3412,0.3412,0.3412,0.3412,0.3412,0.3412,0.3412,0.3412,0.3412,0.3412,0.3412,0.3412,0.3412,0.3412,0.3412,0.3412,0.3412,0.3412,0.3412,0.3412,0.3412,0.3412,0.3412,0.3412,0.3416,0.3419,0.3425,0.3454,0.3464,0.3463,0.3459,0.3438,0.3427,0.3461,0.3509,0.3326,0.2222,0.0894,0.0,0.0,0.0,0.0,0.0,0.0,0.0,0.0,0.0,0.0,0.0,0.0,0.0,0.0,0.0,0.0,0.0,0.0,0.0,0.0,0.0,0.0,0.0,0.0,0.0,0.0,0.0,0.0,0.0,0.0,0.0,0.0,0.0,0.0,0.0,0.0,0.0,0.0,0.0,0.0,0.0,0.0,0.0,0.0,0.0,0.0,0.0,0.0,0.0,0.0,1.6992,1.6992,1.7039,1.6989,1.5823,1.4927,1.485,1.4786,1.2132,0.4449,0.339,0.3412,0.3465,0.3472,0.3495,0.3551,0.3527,0.3506,0.3495,0.3491,0.3476,0.3452,0.345,0.3438,0.3412,0.3412,0.3412,0.3412,0.3412,0.3412,0.3412,0.3412,0.3412,0.3412,0.3412,0.3412,0.3412,0.3412,0.3412,0.3412,0.3412,0.3412,0.3412,0.3412,0.3412,0.3412,0.3412,0.3412,0.3412,0.3412,0.3412,0.3416,0.3442,0.345,0.3456,0.3486,0.3495,0.349,0.3464,0.3453,0.3463,0.3516,0.354,0.3555,0.3355,0.157,0.0,0.0,0.0,0.0,0.0,0.0,0.0,0.0,0.0,0.0,0.0,0.0,0.0,0.0,0.0,0.0,0.0,0.0,0.0,0.0,0.0,0.0,0.0,0.0,0.0,0.0,0.0,0.0,0.0,0.0,0.0,0.0,0.0,0.0,0.0,0.0,0.0,0.0,0.0,0.0,0.0,0.0,0.0,0.0,0.0,0.0,0.0,0.0,0.0,0.0,1.6996,1.6996,1.7023,1.6895,1.7222,1.7367,1.7016,1.6929,1.5543,1.124,1.0657,1.0746,1.0661,1.1164,1.1251,1.1394,1.1364,1.1329,1.1316,0.6367,0.3491,0.3482,0.3465,0.3442,0.3412,0.3412,0.3412,0.3412,0.3412,0.3412,0.3412,0.3412,0.3412,0.3412,0.3412,0.3412,0.3412,0.3412,0.3412,0.3412,0.3412,0.3412,0.3412,0.3412,0.3412,0.3412,0.3412,0.3412,0.3414,0.343,0.3426,0.342,0.3467,0.3471,0.3463,0.3493,0.3513,0.352,0.349,0.3506,0.3531,0.354,0.3558,0.3572,0.3587,0.2694,0.1572,0.0224,0.0,0.0,0.0,0.0,0.0,0.0,0.0,0.0,0.0,0.0,0.0,0.0,0.0,0.0,0.0,0.0,0.0,0.0,0.0,0.0,0.0,0.0,0.0,0.0,0.0,0.0,0.0,0.0,0.0,0.0,0.0,0.0,0.0,0.0,0.0,0.0,0.0,0.0,0.0,0.0,0.0,0.0,0.0,0.0,0.0,0.0,0.0,0.0,1.7143,1.715,1.7157,1.719,1.7518,1.7634,1.7188,1.7093,1.7019,1.7019,1.6956,1.7123,1.727,1.765,1.7812,1.7948,1.7968,1.7968,1.7935,1.1018,0.5903,0.3725,0.3472,0.344,0.341,0.3411,0.3412,0.3412,0.3412,0.3412,0.3412,0.3412,0.3412,0.3412,0.3412,0.3412,0.3412,0.3412,0.3412,0.3412,0.3412,0.3412,0.3412,0.342,0.3422,0.3422,0.3422,0.3427,0.3435,0.3452,0.3446,0.3442,0.3495,0.3491,0.3475,0.3513,0.3538,0.3551,0.3527,0.3551,0.3576,0.3558,0.3572,0.3589,0.3589,0.3589,0.2919,0.0898,0.0224,0.0,0.0,0.0,0.0,0.0,0.0,0.0,0.0,0.0,0.0,0.0,0.0,0.0,0.0,0.0,0.0,0.0,0.0,0.0,0.0,0.0,0.0,0.0,0.0,0.0,0.0,0.0,0.0,0.0,0.0,0.0,0.0,0.0,0.0,0.0,0.0,0.0,0.0,0.0,0.0,0.0,0.0,0.0,0.0,0.0,0.0,0.0,1.784,1.7868,1.791,1.7843,1.7953,1.7634,1.7188,1.7073,1.6985,1.6985,1.6895,1.7256,1.7857,1.7792,1.7944,1.786,1.788,1.7826,1.7964,1.7252,1.2787,0.396,0.3471,0.343,0.34,0.3407,0.3412,0.3412,0.3412,0.3412,0.3412,0.3412,0.3412,0.3412,0.3412,0.3412,0.3412,0.3412,0.3412,0.3412,0.3412,0.3412,0.3415,0.3444,0.3453,0.3453,0.3453,0.3472,0.3491,0.3465,0.3475,0.3502,0.3531,0.3524,0.3509,0.3565,0.3587,0.3587,0.3583,0.3565,0.3555,0.358,0.3589,0.3589,0.3589,0.3589,0.3141,0.2021,0.0673,0.0,0.0,0.0,0.0,0.0,0.0,0.0,0.0,0.0,0.0,0.0,0.0,0.0,0.0,0.0,0.0,0.0,0.0,0.0,0.0,0.0,0.0,0.0,0.0,0.0,0.0,0.0,0.0,0.0,0.0,0.0,0.0,0.0,0.0,0.0,0.0,0.0,0.0,0.0,0.0,0.0,0.0,0.0,0.0,0.0,0.0,0.0,1.7344,1.7635,1.7912,1.7871,1.7593,1.7297,1.6989,1.7073,1.6978,1.6978,1.6969,1.7136,1.7857,1.7861,1.7812,1.786,1.786,1.7846,1.7812,1.7498,1.5827,1.263,1.212,0.9221,0.3604,0.3399,0.3403,0.3403,0.341,0.3412,0.3412,0.3412,0.3412,0.3412,0.3412,0.3412,0.3414,0.3433,0.344,0.3656,0.5182,0.4762,0.3686,0.5215,0.4787,0.3486,0.3486,0.3493,0.3502,0.3509,0.3506,0.3509,0.3558,0.3551,0.3538,0.358,0.3576,0.3565,0.3587,0.3583,0.3576,0.3587,0.3589,0.3589,0.3589,0.3589,0.3365,0.2919,0.1347,0.0,0.0,0.0,0.0,0.0,0.0,0.0,0.0,0.0,0.0,0.0,0.0,0.0,0.0,0.0,0.0,0.0,0.0,0.0,0.0,0.0,0.0,0.0,0.0,0.0,0.0,0.0,0.0,0.0,0.0,0.0,0.0,0.0,0.0,0.0,0.0,0.0,0.0,0.0,0.0,0.0,0.0,0.0,0.0,0.0,0.0,0.0,1.6994,1.7284,1.7751,1.7822,1.7351,1.7076,1.6929,1.7039,1.6978,1.6978,1.7016,1.7197,1.7864,1.7909,1.786,1.786,1.786,1.7826,1.7944,1.7324,1.717,1.7518,1.7304,1.4175,0.7837,0.7641,0.6372,0.3395,0.3403,0.3407,0.3408,0.3411,0.3412,0.3412,0.3422,0.3426,0.3429,0.3459,0.3905,0.4772,0.6535,0.6551,0.5903,0.6787,0.6141,0.4612,0.3737,0.3524,0.3531,0.354,0.3538,0.3538,0.3576,0.3576,0.3562,0.3583,0.3576,0.3562,0.3583,0.3589,0.3589,0.3589,0.3589,0.3589,0.3589,0.3589,0.3589,0.3594,0.2021,0.0449,0.0,0.0,0.0,0.0,0.0,0.0,0.0,0.0,0.0,0.0,0.0,0.0,0.0,0.0,0.0,0.0,0.0,0.0,0.0,0.0,0.0,0.0,0.0,0.0,0.0,0.0,0.0,0.0,0.0,0.0,0.0,0.0,0.0,0.0,0.0,0.0,0.0,0.0,0.0,0.0,0.0,0.0,0.0,0.0,0.0,0.0,1.6975,1.6975,1.715,1.7875,1.7408,1.6929,1.6998,1.6978,1.6978,1.6985,1.7016,1.7197,1.7864,1.7909,1.786,1.786,1.786,1.7964,1.7885,1.736,1.7039,1.6969,1.7016,1.6969,1.7032,1.708,1.2555,0.3599,0.3607,0.3397,0.3397,0.3407,0.3412,0.3414,0.3444,0.3457,0.346,0.349,0.5031,0.7204,0.7204,0.8508,1.0256,0.7935,0.7076,0.6856,0.4427,0.3565,0.3587,0.3555,0.3565,0.3589,0.3589,0.3589,0.3589,0.3589,0.3589,0.3589,0.3589,0.3589,0.3589,0.3589,0.3589,0.3589,0.3589,0.3589,0.3589,0.3594,0.2694,0.1347,0.0224,0.0,0.0,0.0,0.0,0.0,0.0,0.0,0.0,0.0,0.0,0.0,0.0,0.0,0.0,0.0,0.0,0.0,0.0,0.0,0.0,0.0,0.0,0.0,0.0,0.0,0.0,0.0,0.0,0.0,0.0,0.0,0.0,0.0,0.0,0.0,0.0,0.0,0.0,0.0,0.0,0.0,0.0,0.0,0.0,0.0,1.7662,1.7203,1.715,1.7222,1.7188,1.6929,1.6998,1.6978,1.7012,1.6902,1.7076,1.7237,1.7799,1.7978,1.7826,1.7944,1.7944,1.7806,1.7283,1.7175,1.71,1.7046,1.7053,1.7039,1.6998,1.7032,1.5748,1.2948,1.2979,0.9564,0.339,0.3393,0.3405,0.3425,0.3441,0.3456,0.3689,0.7027,0.9041,0.9686,1.1506,1.1533,1.087,1.1789,1.0028,0.7139,0.625,0.4923,0.3589,0.358,0.3583,0.3589,0.3589,0.3589,0.3589,0.3589,0.3589,0.3589,0.3589,0.3589,0.3587,0.3562,0.3558,0.3551,0.3534,0.3544,0.3558,0.3562,0.2684,0.1347,0.0224,0.0,0.0,0.0,0.0,0.0,0.0,0.0,0.0,0.0,0.0,0.0,0.0,0.0,0.0,0.0,0.0,0.0,0.0,0.0,0.0,0.0,0.0,0.0,0.0,0.0,0.0,0.0,0.0,0.0,0.0,0.0,0.0,0.0,0.0,0.0,0.0,0.0,0.0,0.0,0.0,0.0,0.0,0.0,0.0,0.0,1.7841,1.7555,1.7244,1.709,1.7063,1.7009,1.7087,1.706,1.7093,1.6962,1.711,1.748,1.7861,1.7998,1.7812,1.7895,1.7758,1.7392,1.6989,1.6922,1.7066,1.6985,1.6978,1.6978,1.6978,1.6998,1.7012,1.7012,1.7053,1.4258,0.8685,0.8696,0.8737,0.8807,0.9072,0.8038,0.6561,1.0179,1.1776,1.2204,1.3606,1.4065,1.3626,1.4065,1.2511,0.9843,0.895,0.6943,0.4933,0.4933,0.4485,0.3589,0.3589,0.3589,0.3589,0.3589,0.3589,0.3589,0.3589,0.3589,0.3583,0.3551,0.3544,0.3538,0.3509,0.3524,0.354,0.3531,0.2888,0.2009,0.0222,0.0,0.0,0.0,0.0,0.0,0.0,0.0,0.0,0.0,0.0,0.0,0.0,0.0,0.0,0.0,0.0,0.0,0.0,0.0,0.0,0.0,0.0,0.0,0.0,0.0,0.0,0.0,0.0,0.0,0.0,0.0,0.0,0.0,0.0,0.0,0.0,0.0,0.0,0.0,0.0,0.0,0.0,0.0,0.0,0.0,1.7901,1.7998,1.7629,1.7257,1.6994,1.715,1.7016,1.6996,1.6996,1.7009,1.7573,1.7947,1.7875,1.7998,1.7792,1.7875,1.7351,1.6956,1.6956,1.7053,1.6978,1.6978,1.6978,1.6978,1.6978,1.6978,1.6978,1.6978,1.7012,1.7026,1.7026,1.7087,1.6969,1.711,1.771,1.5408,1.1497,1.2935,1.387,1.452,1.452,1.585,1.7632,1.5413,1.452,1.4065,1.1621,0.9174,0.7166,0.6943,0.5377,0.3589,0.3589,0.3589,0.3589,0.3589,0.3589,0.3589,0.3589,0.3589,0.3583,0.3551,0.354,0.3534,0.3506,0.352,0.3534,0.3509,0.3527,0.2877,0.0658,0.0219,0.0,0.0,0.0,0.0,0.0,0.0,0.0,0.0,0.0,0.0,0.0,0.0,0.0,0.0,0.0,0.0,0.0,0.0,0.0,0.0,0.0,0.0,0.0,0.0,0.0,0.0,0.0,0.0,0.0,0.0,0.0,0.0,0.0,0.0,0.0,0.0,0.0,0.0,0.0,0.0,0.0,0.0,0.0,0.0,1.7981,1.8002,1.7812,1.7772,1.7792,1.7635,1.76,1.7372,1.6968,1.7087,1.7575,1.7875,1.7812,1.7964,1.7861,1.7933,1.7415,1.7026,1.7026,1.6998,1.6978,1.6978,1.6978,1.6978,1.6978,1.6978,1.6978,1.6978,1.6985,1.6992,1.6992,1.6902,1.7029,1.6961,1.7589,1.7286,1.6255,1.6773,1.7001,1.7197,1.7197,1.7424,1.786,1.7418,1.585,1.4065,1.1621,0.9174,0.6943,0.4933,0.4039,0.3589,0.3589,0.3589,0.3589,0.3589,0.3589,0.3589,0.3589,0.3589,0.3583,0.3551,0.3527,0.3502,0.3474,0.349,0.3509,0.3502,0.3527,0.3323,0.2877,0.132,0.0,0.0,0.0,0.0,0.0,0.0,0.0,0.0,0.0,0.0,0.0,0.0,0.0,0.0,0.0,0.0,0.0,0.0,0.0,0.0,0.0,0.0,0.0,0.0,0.0,0.0,0.0,0.0,0.0,0.0,0.0,0.0,0.0,0.0,0.0,0.0,0.0,0.0,0.0,0.0,0.0,0.0,0.0,0.0,1.8409,1.841,1.8198,1.7968,1.7792,1.7834,1.7989,1.7534,1.7337,1.7411,1.765,1.793,1.7846,1.7964,1.7786,1.7552,1.7168,1.708,1.708,1.6936,1.6969,1.6969,1.6902,1.6902,1.6969,1.6902,1.708,1.708,1.708,1.6902,1.6976,1.7043,1.7163,1.7534,1.7854,1.7964,1.786,1.788,1.788,1.786,1.786,1.786,1.786,1.786,1.7197,1.5622,1.3177,1.0066,0.6943,0.5826,0.4485,0.3589,0.3589,0.3589,0.3589,0.3589,0.3589,0.3589,0.3589,0.3589,0.3587,0.3569,0.3534,0.3495,0.3464,0.3469,0.3476,0.3463,0.3483,0.3499,0.3486,0.1951,0.0649,0.0,0.0,0.0,0.0,0.0,0.0,0.0,0.0,0.0,0.0,0.0,0.0,0.0,0.0,0.0,0.0,0.0,0.0,0.0,0.0,0.0,0.0,0.0,0.0,0.0,0.0,0.0,0.0,0.0,0.0,0.0,0.0,0.0,0.0,0.0,0.0,0.0,0.0,0.0,0.0,0.0,0.0,0.0,1.8733,1.8774,1.8552,1.8091,1.7968,1.7826,1.793,1.7909,1.793,1.7944,1.7944,1.7998,1.7935,1.7792,1.7561,1.7036,1.7009,1.7009,1.7229,1.713,1.7197,1.7197,1.7083,1.7069,1.6975,1.7076,1.7016,1.7009,1.7016,1.7076,1.7197,1.7224,1.7528,1.7875,1.7895,1.7978,1.786,1.786,1.786,1.786,1.786,1.786,1.786,1.786,1.786,1.7632,1.5185,1.1172,0.7166,0.7166,0.5601,0.3589,0.3589,0.3589,0.3589,0.3589,0.3589,0.3589,0.3589,0.3587,0.3583,0.3583,0.354,0.3495,0.3464,0.3457,0.3452,0.3431,0.3444,0.3449,0.3425,0.2561,0.1497,0.0216,0.0217,0.0219,0.0,0.0,0.0,0.0,0.0,0.0,0.0,0.0,0.0,0.0,0.0,0.0,0.0,0.0,0.0,0.0,0.0,0.0,0.0,0.0,0.0,0.0,0.0,0.0,0.0,0.0,0.0,0.0,0.0,0.0,0.0,0.0,0.0,0.0,0.0,0.0,0.0,0.0,0.0,0.0,1.8733,1.8774,1.8552,1.8091,1.7968,1.786,1.7846,1.7826,1.788,1.7793,1.7813,1.786,1.7788,1.7544,1.7046,1.6975,1.6948,1.717,1.7829,1.785,1.7864,1.7864,1.7843,1.7621,1.6975,1.7405,1.7607,1.6948,1.7607,1.7843,1.7864,1.7779,1.7854,1.7875,1.7998,1.7846,1.786,1.786,1.786,1.786,1.786,1.786,1.786,1.786,1.786,1.7632,1.5185,1.1172,0.7166,0.7166,0.5601,0.3589,0.3589,0.3589,0.3589,0.3589,0.3589,0.3589,0.3589,0.3569,0.3551,0.3551,0.3527,0.3495,0.3464,0.3457,0.3464,0.3486,0.3472,0.3456,0.3452,0.3216,0.2566,0.0431,0.0865,0.1088,0.0221,0.0,0.0,0.0,0.0,0.0,0.0,0.0,0.0,0.0,0.0,0.0,0.0,0.0,0.0,0.0,0.0,0.0,0.0,0.0,0.0,0.0,0.0,0.0,0.0,0.0,0.0,0.0,0.0,0.0,0.0,0.0,0.0,0.0,0.0,0.0,0.0,0.0,0.0,0.0,1.8409,1.8233,1.8321,1.786,1.7968,1.786,1.786,1.786,1.7914,1.7847,1.8246,1.8476,1.841,1.7928,1.7425,1.7439,1.75,1.7555,1.7779,1.7847,1.7895,1.7895,1.782,1.7813,1.7445,1.7813,1.7813,1.7445,1.7813,1.782,1.7895,1.7964,1.7998,1.7998,1.7826,1.786,1.786,1.786,1.786,1.786,1.786,1.786,1.786,1.786,1.786,1.786,1.6741,1.3177,0.9174,0.9174,0.7611,0.5383,0.4039,0.3589,0.3589,0.3589,0.3589,0.3587,0.3569,0.3565,0.3565,0.3549,0.3534,0.3524,0.3509,0.348,0.3456,0.3453,0.3441,0.3431,0.3431,0.342,0.2989,0.2143,0.1723,0.1736,0.1977,0.0882,0.0,0.0,0.0,0.0,0.0,0.0,0.0,0.0,0.0,0.0,0.0,0.0,0.0,0.0,0.0,0.0,0.0,0.0,0.0,0.0,0.0,0.0,0.0,0.0,0.0,0.0,0.0,0.0,0.0,0.0,0.0,0.0,0.0,0.0,0.0,0.0,0.0,0.0]}]]